[[{"header":{"parameterUnit":"m.s-1","parameterCategory":1,"la1":30.6,"la2":28.766,"lo1":-90.7593,"lo2":-88.6598,"dx":0.0162,"dy":0.0183,"nx":116,"ny":114,"refTime":"2023-01-28T06:00:00:Z","depth":0,"parameterNumber":2,"parameterNumberName":"U-component_of_WINDS"},"data":[0.0,0.0,0.0,0.0,0.0,0.0,0.0,0.0,0.0,0.0,0.0,0.0,0.0,0.0,0.0,0.0,0.0,0.0,0.0,0.0,0.0,0.0,0.0,0.0,0.0,0.0,0.0,0.0,0.0,0.0,0.0,0.0,0.0,0.0,0.0,0.0,0.0,0.0,0.0,0.0,0.0,0.0,0.0,0.0,0.0,0.0,0.0,0.0,0.0,0.0,0.0,0.0,0.0,0.0,0.0,0.0,0.0,0.0,0.0,0.0,0.0,0.0,0.0,0.0,0.0,0.0,0.0,0.0,0.0,0.0,0.0,0.0,0.0,0.0,0.0,0.0,0.0,0.0,0.0,0.0,0.0,0.0,0.0,0.0,0.0,0.0,0.0,0.0,0.0,0.0,0.0,0.0,0.0,0.0,0.0,0.0,0.0,0.0,0.0,0.0,0.0,0.0,0.0,0.0,0.0,0.0,0.0,0.0,0.0,0.0,0.0,0.0,0.0,0.0,0.0,0.0,0.0,0.0,0.0,0.0,0.0,0.0,0.0,0.0,0.0,0.0,0.0,0.0,0.0,0.0,0.0,0.0,0.0,0.0,0.0,0.0,0.0,0.0,0.0,0.0,0.0,0.0,0.0,0.0,0.0,0.0,0.0,0.0,0.0,0.0,0.0,0.0,0.0,0.0,0.0,0.0,0.0,0.0,0.0,0.0,0.0,0.0,0.0,0.0,0.0,0.0,0.0,0.0,0.0,0.0,0.0,0.0,0.0,0.0,0.0,0.0,0.0,0.0,0.0,0.0,0.0,0.0,0.0,0.0,0.0,0.0,0.0,0.0,0.0,0.0,0.0,0.0,0.0,0.0,0.0,0.0,0.0,0.0,0.0,0.0,0.0,0.0,0.0,0.0,0.0,0.0,0.0,0.0,0.0,0.0,0.0,0.0,0.0,0.0,0.0,0.0,0.0,0.0,0.0,0.0,0.0,0.0,0.0,0.0,0.0,0.0,0.0,0.0,0.0,0.0,0.0,0.0,0.0,0.0,0.0,0.0,0.0,0.0,0.0,0.0,0.0,0.0,0.0,0.0,0.0,0.0,0.0,0.0,0.0,0.0,0.0,0.0,0.0,0.0,0.0,0.0,0.0,0.0,0.0,0.0,0.0,0.0,0.0,0.0,0.0,0.0,0.0,0.0,0.0,0.0,0.0,0.0,0.0,0.0,0.0,0.0,0.0,0.0,0.0,0.0,0.0,0.0,0.0,0.0,0.0,0.0,0.0,0.0,0.0,0.0,0.0,0.0,0.0,0.0,0.0,0.0,0.0,0.0,0.0,0.0,0.0,0.0,0.0,0.0,0.0,0.0,0.0,0.0,0.0,0.0,0.0,0.0,0.0,0.0,0.0,0.0,0.0,0.0,0.0,0.0,0.0,0.0,0.0,0.0,0.0,0.0,0.0,0.0,0.0,0.0,0.0,0.0,0.0,0.0,0.0,0.0,0.0,0.0,0.0,0.0,0.0,0.0,0.0,0.0,0.0,0.0,0.0,0.0,0.0,0.0,0.0,0.0,0.0,0.0,0.0,0.0,0.0,0.0,0.0,0.0,0.0,0.0,0.0,0.0,0.0,0.0,0.0,0.0,0.0,0.0,0.0,0.0,0.0,0.0,0.0,0.0,0.0,0.0,0.0,0.0,0.0,0.0,0.0,0.0,0.0,0.0,0.0,0.0,0.0,0.0,0.0,0.0,0.0,0.0,0.0,0.0,0.0,0.0,0.0,0.0,0.0,0.0,0.0,0.0,0.0,0.0,0.0,0.0,0.0,0.0,0.0,0.0,0.0,0.0,0.0,0.0,0.0,0.0,0.0,0.0,0.0,0.0,0.0,0.0,0.0,0.0,0.0,0.0,0.0,0.0,0.0,0.0,0.0,0.0,0.0,0.0,0.0,0.0,0.0,0.0,0.0,0.0,0.0,0.0,0.0,0.0,0.0,0.0,0.0,0.0,0.0,0.0,0.0,0.0,0.0,0.0,0.0,0.0,0.0,0.0,0.0,0.0,0.0,0.0,0.0,0.0,0.0,0.0,0.0,0.0,0.0,0.0,0.0,0.0,0.0,0.0,0.0,0.0,0.0,0.0,0.0,0.0,0.0,0.0,0.0,0.0,0.0,0.0,0.0,0.0,0.0,0.0,0.0,0.0,0.0,0.0,0.0,0.0,0.0,0.0,0.0,0.0,0.0,0.0,0.0,0.0,0.0,0.0,0.0,0.0,0.0,0.0,0.0,0.0,0.0,0.0,0.0,0.0,0.0,0.0,0.0,0.0,0.0,0.0,0.0,0.0,0.0,0.0,0.0,0.0,0.0,0.0,0.0,0.0,0.0,0.0,0.0,0.0,0.0,0.0,0.0,0.0,0.0,0.0,0.0,0.0,0.0,0.0,0.0,0.0,0.0,0.0,0.0,0.0,0.0,0.0,0.0,0.0,0.0,0.0,0.0,0.0,0.0,0.0,0.0,0.0,0.0,0.0,0.0,0.0,0.0,0.0,0.0,0.0,0.0,0.0,0.0,0.0,0.0,0.0,0.0,0.0,0.0,0.0,0.0,0.0,0.0,0.0,0.0,0.0,0.0,0.0,0.0,0.0,0.0,0.0,0.0,0.0,0.0,0.0,0.0,0.0,0.0,0.0,0.0,0.0,0.0,0.0,0.0,0.0,0.0,0.0,0.0,0.0,0.0,0.0,0.0,0.0,0.0,0.0,0.0,0.0,0.0,0.0,0.0,0.0,0.0,0.0,0.0,0.0,0.0,0.0,0.0,0.0,0.0,0.0,0.0,0.0,0.0,0.0,0.0,0.0,0.0,0.0,0.0,0.0,0.0,0.0,0.0,0.0,0.0,0.0,0.0,0.0,0.0,0.0,0.0,0.0,0.0,0.0,0.0,0.0,0.0,0.0,0.0,0.0,0.0,0.0,0.0,0.0,0.0,0.0,0.0,0.0,0.0,0.0,0.0,0.0,0.0,0.0,0.0,0.0,0.0,0.0,0.0,0.0,0.0,0.0,0.0,0.0,0.0,0.0,0.0,0.0,0.0,0.0,0.0,0.0,0.0,0.0,0.0,0.0,0.0,0.0,0.0,0.0,0.0,0.0,0.0,0.0,0.0,0.0,0.0,0.0,0.0,0.0,0.0,0.0,0.0,0.0,0.0,0.0,0.0,0.0,0.0,0.0,0.0,0.0,0.0,0.0,0.0,0.0,0.0,0.0,0.0,0.0,0.0,0.0,0.0,0.0,0.0,0.0,0.0,0.0,0.0,0.0,0.0,0.0,0.0,0.0,0.0,0.0,0.0,0.0,0.0,0.0,0.0,0.0,0.0,0.0,0.0,0.0,0.0,0.0,0.0,0.0,0.0,0.0,0.0,0.0,0.0,0.0,0.0,0.0,0.0,0.0,0.0,0.0,0.0,0.0,0.0,0.0,0.0,0.0,0.0,0.0,0.0,0.0,0.0,0.0,0.0,0.0,0.0,0.0,0.0,0.0,0.0,0.0,0.0,0.0,0.0,0.0,0.0,0.0,0.0,0.0,0.0,0.0,0.0,0.0,0.0,0.0,0.0,0.0,0.0,0.0,0.0,0.0,0.0,0.0,0.0,0.0,0.0,0.0,0.0,0.0,0.0,0.0,0.0,0.0,0.0,0.0,0.0,0.0,0.0,0.0,0.0,0.0,0.0,0.0,0.0,0.0,0.0,0.0,0.0,0.0,0.0,0.0,0.0,0.0,0.0,0.0,0.0,0.0,0.0,0.0,0.0,0.0,0.0,0.0,0.0,0.0,0.0,0.0,0.0,0.0,0.0,0.0,0.0,0.0,0.0,0.0,0.0,0.0,0.0,0.0,0.0,0.0,0.0,0.0,0.0,0.0,0.0,0.0,0.0,0.0,0.0,0.0,0.0,0.0,0.0,0.0,0.0,0.0,0.0,0.0,0.0,0.0,0.0,0.0,0.0,0.0,0.0,0.0,0.0,0.0,0.0,0.0,0.0,0.0,0.0,0.0,0.0,0.0,0.0,0.0,0.0,0.0,0.0,0.0,0.0,0.0,0.0,0.0,0.0,0.0,0.0,0.0,0.0,0.0,0.0,0.0,0.0,0.0,0.0,0.0,0.0,0.0,0.0,0.0,0.0,0.0,0.0,0.0,0.0,0.0,0.0,0.0,0.0,0.0,0.0,0.0,0.0,0.0,0.0,0.0,0.0,0.0,0.0,0.0,0.0,0.0,0.0,0.0,0.0,0.0,0.0,0.0,0.0,0.0,0.0,0.0,0.0,0.0,0.0,0.0,0.0,0.0,0.0,0.0,0.0,0.0,0.0,0.0,0.0,0.0,0.0,0.0,0.0,0.0,0.0,0.0,0.0,0.0,0.0,0.0,0.0,0.0,0.0,0.0,0.0,0.0,0.0,0.0,0.0,0.0,0.0,0.0,0.0,0.0,0.0,0.0,0.0,0.0,0.0,0.0,0.0,0.0,0.0,0.0,0.0,0.0,0.0,0.0,0.0,0.0,0.0,0.0,0.0,0.0,0.0,0.0,0.0,0.0,0.0,0.0,0.0,0.0,0.0,0.0,0.0,0.0,0.0,0.0,0.0,0.0,0.0,0.0,0.0,0.0,0.0,0.0,0.0,0.0,0.0,0.0,0.0,0.0,0.0,0.0,0.0,0.0,0.0,0.0,0.0,0.0,0.0,0.0,0.0,0.0,0.0,0.0,0.0,0.0,0.0,0.0,0.0,0.0,0.0,0.0,0.0,0.0,0.0,0.0,0.0,0.0,0.0,0.0,0.0,0.0,0.0,0.0,0.0,0.0,0.0,0.0,0.0,0.0,0.0,0.0,0.0,0.0,0.0,0.0,0.0,0.0,0.0,0.0,0.0,0.0,0.0,0.0,0.0,0.0,0.0,0.0,0.0,0.0,0.0,0.0,0.0,0.0,0.0,0.0,0.0,0.0,0.0,0.0,0.0,0.0,0.0,0.0,0.0,0.0,0.0,0.0,0.0,0.0,0.0,0.0,0.0,0.0,0.0,0.0,0.0,0.0,0.0,0.0,0.0,0.0,0.0,0.0,0.0,0.0,0.0,0.0,0.0,0.0,0.0,0.0,0.0,0.0,0.0,0.0,0.0,0.0,0.0,0.0,0.0,0.0,0.0,0.0,0.0,0.0,0.0,0.0,0.0,0.0,0.0,0.0,0.0,0.0,0.0,0.0,0.0,0.0,0.0,0.0,0.0,0.0,0.0,0.0,0.0,0.0,0.0,0.0,0.0,0.0,0.0,0.0,0.0,0.0,0.0,0.0,0.0,0.0,0.0,0.0,0.0,0.0,0.0,0.0,0.0,0.0,0.0,0.0,0.0,0.0,0.0,0.0,0.0,0.0,0.0,0.0,0.0,0.0,0.0,0.0,0.0,0.0,0.0,0.0,0.0,0.0,0.0,0.0,0.0,0.0,0.0,0.0,0.0,0.0,0.0,0.0,0.0,0.0,0.0,0.0,0.0,0.0,0.0,0.0,0.0,0.0,0.0,0.0,0.0,0.0,0.0,0.0,0.0,0.0,0.0,0.0,0.0,0.0,0.0,0.0,0.0,0.0,0.0,0.0,0.0,0.0,0.0,0.0,0.0,0.0,0.0,0.0,0.0,0.0,0.0,0.0,0.0,0.0,0.0,0.0,0.0,0.0,0.0,0.0,0.0,0.0,0.0,0.0,0.0,0.0,0.0,0.0,0.0,0.0,0.0,0.0,0.0,0.0,0.0,0.0,0.0,0.0,0.0,0.0,0.0,0.0,0.0,0.0,0.0,0.0,0.0,0.0,0.0,0.0,0.0,0.0,0.0,0.0,0.0,0.0,0.0,0.0,0.0,0.0,0.0,0.0,0.0,0.0,0.0,0.0,0.0,0.0,0.0,0.0,0.0,0.0,0.0,0.0,0.0,0.0,0.0,0.0,0.0,0.0,0.0,0.0,0.0,0.0,0.0,0.0,0.0,0.0,0.0,0.0,0.0,0.0,0.0,0.0,0.0,0.0,0.0,0.0,0.0,0.0,0.0,0.0,0.0,0.0,0.0,0.0,0.0,0.0,-5.6523,-5.7493,0.0,0.0,0.0,0.0,0.0,0.0,0.0,0.0,0.0,0.0,0.0,0.0,0.0,0.0,0.0,0.0,0.0,0.0,0.0,0.0,0.0,0.0,0.0,0.0,0.0,0.0,0.0,0.0,0.0,0.0,0.0,0.0,0.0,0.0,0.0,0.0,0.0,0.0,0.0,0.0,0.0,0.0,0.0,0.0,0.0,0.0,0.0,0.0,0.0,0.0,0.0,0.0,0.0,0.0,0.0,0.0,0.0,0.0,0.0,0.0,0.0,0.0,0.0,0.0,0.0,0.0,0.0,0.0,0.0,0.0,0.0,0.0,0.0,0.0,0.0,0.0,0.0,0.0,0.0,0.0,0.0,0.0,0.0,0.0,0.0,0.0,0.0,0.0,0.0,0.0,0.0,0.0,0.0,0.0,0.0,0.0,0.0,0.0,0.0,0.0,0.0,0.0,0.0,0.0,0.0,0.0,0.0,0.0,0.0,0.0,0.0,0.0,0.0,0.0,-5.5808,-5.6557,0.0,0.0,0.0,0.0,0.0,0.0,0.0,0.0,0.0,0.0,0.0,0.0,0.0,0.0,0.0,0.0,0.0,0.0,0.0,0.0,0.0,0.0,0.0,0.0,0.0,0.0,0.0,0.0,0.0,0.0,0.0,0.0,0.0,0.0,0.0,0.0,0.0,0.0,0.0,0.0,0.0,0.0,0.0,0.0,0.0,0.0,0.0,0.0,0.0,0.0,0.0,0.0,0.0,0.0,0.0,0.0,0.0,0.0,0.0,0.0,0.0,0.0,0.0,0.0,0.0,0.0,0.0,0.0,0.0,0.0,0.0,0.0,0.0,0.0,0.0,0.0,0.0,0.0,0.0,0.0,0.0,0.0,0.0,0.0,0.0,0.0,0.0,0.0,0.0,0.0,0.0,0.0,0.0,0.0,0.0,0.0,0.0,0.0,0.0,0.0,0.0,0.0,0.0,0.0,0.0,0.0,0.0,0.0,-5.1765,-5.2554,-5.4472,-5.3895,-5.4395,-5.5686,-5.5091,-5.5625,-5.6809,-5.6659,0.0,0.0,0.0,0.0,0.0,0.0,0.0,0.0,0.0,0.0,0.0,0.0,0.0,0.0,0.0,0.0,0.0,0.0,0.0,0.0,0.0,0.0,0.0,0.0,0.0,0.0,0.0,0.0,0.0,0.0,0.0,0.0,0.0,0.0,0.0,0.0,0.0,0.0,0.0,0.0,0.0,0.0,0.0,0.0,0.0,0.0,0.0,0.0,0.0,0.0,0.0,0.0,0.0,0.0,0.0,0.0,0.0,0.0,0.0,0.0,0.0,0.0,0.0,0.0,0.0,0.0,0.0,0.0,0.0,0.0,0.0,0.0,0.0,0.0,0.0,0.0,0.0,0.0,0.0,0.0,0.0,0.0,0.0,0.0,0.0,0.0,-5.2281,-5.3025,0.0,0.0,0.0,0.0,0.0,0.0,0.0,0.0,0.0,0.0,0.0,0.0,0.0,-5.1674,-5.1789,-5.2569,-5.2974,-5.306,-5.3715,-5.4195,-5.4511,-5.5088,-5.5472,-5.5714,-5.5591,0.0,-5.5441,-5.6129,0.0,0.0,0.0,0.0,0.0,0.0,0.0,0.0,0.0,0.0,0.0,0.0,0.0,0.0,0.0,0.0,0.0,0.0,0.0,0.0,0.0,0.0,0.0,0.0,0.0,0.0,0.0,0.0,0.0,0.0,0.0,0.0,0.0,0.0,0.0,0.0,0.0,0.0,0.0,0.0,0.0,0.0,0.0,0.0,0.0,0.0,0.0,0.0,0.0,0.0,0.0,0.0,0.0,0.0,0.0,0.0,0.0,0.0,0.0,0.0,0.0,0.0,0.0,0.0,0.0,0.0,0.0,0.0,0.0,0.0,0.0,0.0,0.0,0.0,0.0,0.0,0.0,0.0,0.0,0.0,0.0,0.0,0.0,0.0,0.0,-5.1851,-5.1896,-5.1425,-5.2945,-5.356,0.0,0.0,0.0,0.0,0.0,0.0,0.0,0.0,0.0,-5.2171,-5.2483,-5.2615,-5.2615,-5.301,-5.3433,-5.3933,-5.4318,-5.4741,-5.5203,-5.5549,-5.5703,-5.5703,-5.5703,-5.535,-5.4798,-5.5177,-5.506,-5.468,0.0,0.0,0.0,0.0,-5.5044,-5.4236,0.0,0.0,0.0,0.0,0.0,0.0,0.0,0.0,0.0,0.0,0.0,0.0,0.0,0.0,0.0,-3.7841,0.0,0.0,0.0,0.0,0.0,0.0,0.0,0.0,0.0,0.0,0.0,0.0,0.0,0.0,0.0,0.0,0.0,0.0,0.0,0.0,0.0,0.0,0.0,0.0,0.0,0.0,0.0,0.0,0.0,0.0,0.0,0.0,0.0,0.0,0.0,0.0,0.0,0.0,0.0,0.0,0.0,0.0,0.0,0.0,0.0,0.0,0.0,0.0,0.0,0.0,0.0,0.0,0.0,0.0,0.0,0.0,0.0,0.0,0.0,0.0,0.0,-5.1339,-5.1732,-5.0364,-5.234,-5.3271,0.0,0.0,0.0,0.0,0.0,0.0,-5.2971,-5.2536,-5.2615,-5.351,-5.3549,-5.3549,-5.3549,-5.3741,-5.4164,-5.4818,-5.4818,-5.5126,-5.5703,-5.5703,-5.5703,-5.5703,-5.5703,-5.5237,-5.4484,-5.4484,-5.4153,-5.3662,-5.3662,-5.3662,-5.3683,-5.405,-5.3628,-5.2878,0.0,0.0,0.0,0.0,0.0,0.0,0.0,0.0,0.0,0.0,0.0,0.0,0.0,0.0,-3.9361,-3.8788,-4.1061,-4.2544,0.0,0.0,0.0,0.0,0.0,0.0,0.0,0.0,0.0,0.0,0.0,0.0,0.0,0.0,0.0,0.0,0.0,0.0,0.0,0.0,0.0,0.0,0.0,0.0,0.0,0.0,0.0,0.0,0.0,0.0,0.0,0.0,0.0,0.0,0.0,0.0,0.0,0.0,0.0,0.0,0.0,0.0,0.0,0.0,0.0,0.0,0.0,0.0,0.0,0.0,0.0,0.0,0.0,0.0,0.0,0.0,0.0,0.0,0.0,0.0,0.0,-5.1905,-5.3702,0.0,0.0,0.0,0.0,-5.1471,-5.2439,-5.2922,-5.2641,-5.2965,-5.3549,-5.4395,-5.4434,-5.4434,-5.4434,-5.5203,-5.5588,-5.5626,-5.5626,-5.5665,-5.5703,-5.5703,-5.5703,-5.5703,-5.5703,-5.5237,-5.4484,-5.4484,-5.3997,-5.3209,-5.3209,-5.3209,-5.323,-5.3251,-5.2757,-5.1948,0.0,0.0,0.0,0.0,0.0,0.0,0.0,0.0,0.0,0.0,0.0,0.0,0.0,-4.1069,-4.0933,-4.0509,-4.1841,-4.2646,-4.2449,0.0,0.0,0.0,0.0,0.0,0.0,0.0,0.0,0.0,0.0,0.0,0.0,0.0,0.0,0.0,0.0,0.0,0.0,0.0,0.0,0.0,0.0,0.0,0.0,0.0,0.0,0.0,0.0,0.0,0.0,0.0,0.0,0.0,0.0,0.0,0.0,0.0,0.0,0.0,0.0,0.0,0.0,0.0,0.0,0.0,0.0,0.0,0.0,0.0,0.0,0.0,0.0,0.0,0.0,0.0,0.0,0.0,0.0,0.0,0.0,-5.3223,-5.5423,0.0,-5.4097,-5.4808,-5.5061,-5.4125,-5.5058,-5.5685,-5.5818,-5.6264,-5.6357,-5.6137,-5.6099,-5.5818,-5.528,-5.5549,-5.5703,-5.5703,-5.5703,-5.5703,-5.5703,-5.5703,-5.5703,-5.5703,-5.5703,-5.553,-5.526,-5.526,-5.4464,-5.324,-5.3775,-5.3665,-5.323,-5.3504,-5.2733,-5.1584,0.0,0.0,0.0,0.0,0.0,0.0,0.0,0.0,0.0,0.0,0.0,-4.3573,-4.2569,-4.2498,-4.2318,-4.1897,-4.2621,-4.3084,-4.3096,0.0,0.0,0.0,0.0,0.0,0.0,0.0,0.0,0.0,0.0,0.0,0.0,0.0,0.0,0.0,0.0,0.0,0.0,0.0,0.0,0.0,0.0,0.0,-4.7903,0.0,0.0,0.0,0.0,0.0,0.0,0.0,0.0,0.0,0.0,0.0,0.0,0.0,0.0,0.0,0.0,0.0,0.0,0.0,0.0,0.0,0.0,0.0,0.0,0.0,0.0,0.0,0.0,0.0,0.0,0.0,0.0,0.0,0.0,-5.3942,-5.484,-5.4511,-5.6229,-5.6873,-5.5359,-5.5987,-5.6436,-5.6299,-5.7239,-5.7911,-5.802,-5.845,-5.8319,-5.7473,-5.7137,-5.6603,-5.576,-5.576,-5.5808,-5.5852,-5.5808,-5.576,-5.576,-5.5707,-5.5703,-5.5703,-5.6011,-5.5951,-5.5751,-5.6279,-5.5361,-5.3665,-5.4179,-5.3992,-5.3424,-5.3702,-5.3029,-5.1973,0.0,0.0,0.0,0.0,0.0,0.0,0.0,0.0,0.0,0.0,0.0,-4.4923,-4.345,-4.3636,-4.3563,-4.2802,-4.3435,-4.4118,-4.4693,-4.3412,0.0,0.0,0.0,0.0,0.0,0.0,0.0,0.0,0.0,0.0,0.0,0.0,0.0,0.0,0.0,0.0,0.0,0.0,0.0,0.0,0.0,0.0,-4.819,0.0,0.0,0.0,0.0,0.0,0.0,0.0,0.0,0.0,0.0,0.0,0.0,0.0,0.0,0.0,0.0,0.0,0.0,0.0,0.0,0.0,0.0,0.0,0.0,0.0,0.0,0.0,0.0,0.0,0.0,0.0,0.0,0.0,-5.3576,-5.4402,-5.5237,-5.5737,-5.6106,-5.6504,-5.7013,-5.7039,-5.7191,-5.7634,-5.8833,-5.9343,-5.8977,-5.9306,-5.9165,-5.8319,-5.7484,-5.6695,-5.5915,-5.5924,-5.6029,-5.623,-5.6061,-5.5954,-5.5954,-5.575,-5.5703,-5.578,-5.6637,-5.6537,-5.5902,-5.7469,-5.6668,-5.4458,-5.4473,-5.4219,-5.3833,-5.3833,-5.3556,-5.3081,0.0,0.0,0.0,0.0,0.0,0.0,0.0,0.0,0.0,0.0,-4.8282,-4.6456,-4.549,-4.4331,-4.3597,-4.3523,-4.3215,-4.36,-4.49,0.0,0.0,0.0,0.0,0.0,0.0,0.0,0.0,0.0,0.0,0.0,0.0,0.0,0.0,0.0,0.0,0.0,0.0,0.0,0.0,0.0,0.0,0.0,-4.8033,0.0,0.0,0.0,0.0,0.0,0.0,0.0,0.0,0.0,0.0,0.0,0.0,0.0,0.0,0.0,0.0,0.0,0.0,0.0,0.0,0.0,0.0,0.0,0.0,0.0,0.0,0.0,0.0,0.0,0.0,0.0,-5.4506,-5.5453,-5.5104,-5.6115,-5.7142,-5.7862,-5.8283,-5.8583,-5.872,-5.9019,-5.914,-5.8911,-5.984,-6.0264,-5.9789,-6.0188,-5.9781,-5.8357,-5.8162,-5.7366,-5.5915,-5.6614,-5.7014,-5.7053,-5.6922,-5.6822,-5.6814,-5.6068,-5.6049,-5.6676,-5.6907,-5.7174,-5.7469,-5.7921,-5.7154,-5.5734,-5.6021,-5.557,-5.4764,-5.5088,-5.4163,-5.2703,0.0,0.0,0.0,0.0,0.0,0.0,0.0,0.0,0.0,0.0,-4.9338,-4.7709,-4.5936,-4.4798,-4.4068,-4.3828,-4.3257,-4.3576,-4.5046,0.0,0.0,0.0,0.0,0.0,0.0,0.0,0.0,0.0,0.0,0.0,0.0,0.0,0.0,0.0,0.0,0.0,0.0,0.0,0.0,0.0,0.0,0.0,-4.8237,-4.7724,-4.9141,-5.1452,-5.1627,-5.1899,-5.2309,-5.3478,0.0,0.0,0.0,0.0,0.0,0.0,0.0,0.0,0.0,0.0,0.0,0.0,0.0,0.0,0.0,0.0,0.0,0.0,0.0,0.0,0.0,0.0,0.0,0.0,-5.6132,-5.7371,-5.7302,-5.7762,-5.8467,-5.9509,-5.9504,-5.9543,-5.9946,-6.0074,-6.0089,-5.9977,-6.0495,-6.0671,-6.043,-6.0647,-6.0012,-5.8357,-5.878,-5.8211,-5.6555,-5.7541,-5.7899,-5.7623,-5.7381,-5.7105,-5.6788,-5.6425,-5.6522,-5.706,-5.7742,-5.817,-5.8429,-5.8786,-5.8182,-5.7024,0.0,0.0,0.0,0.0,-5.4803,-5.2794,0.0,0.0,0.0,0.0,0.0,0.0,0.0,0.0,0.0,0.0,0.0,-4.8816,-4.5823,-4.5337,-4.4874,-4.393,-4.3569,-4.3833,0.0,0.0,0.0,0.0,0.0,0.0,0.0,0.0,0.0,0.0,0.0,0.0,0.0,0.0,0.0,0.0,0.0,0.0,0.0,0.0,0.0,0.0,0.0,0.0,-4.8643,-4.8124,-4.9547,-5.1813,-5.2091,-5.2676,-5.3495,-5.4937,0.0,0.0,0.0,0.0,0.0,0.0,0.0,0.0,0.0,0.0,0.0,0.0,0.0,0.0,0.0,0.0,0.0,0.0,0.0,0.0,0.0,0.0,0.0,0.0,-5.8035,-5.955,-5.9627,-5.9294,-5.9483,-6.0669,-6.015,-6.0,-6.0734,-6.0405,-6.0351,-6.0757,-6.0781,-6.0781,-6.0781,-6.0781,0.0,0.0,0.0,-5.9039,-5.7409,-5.851,-5.873,-5.8007,-5.7712,-5.7164,-5.6469,-5.682,-5.7099,-5.7368,-5.8858,-5.9281,-5.9021,-5.9798,-5.9376,-5.8233,-5.7697,-5.7092,-5.6572,-5.6756,-5.528,-5.3203,0.0,0.0,0.0,0.0,0.0,0.0,0.0,0.0,0.0,0.0,0.0,0.0,0.0,0.0,-4.5501,-4.4303,0.0,0.0,0.0,0.0,0.0,0.0,0.0,0.0,0.0,0.0,0.0,0.0,0.0,0.0,0.0,0.0,0.0,0.0,0.0,0.0,0.0,0.0,0.0,0.0,0.0,0.0,-4.8685,-4.9384,-5.1029,-5.2947,-5.2722,-5.3115,-5.3801,-5.4127,-5.3497,-5.2679,-5.3289,0.0,0.0,0.0,0.0,0.0,0.0,0.0,0.0,0.0,0.0,0.0,0.0,0.0,0.0,0.0,0.0,0.0,0.0,0.0,0.0,-5.758,-5.8776,-5.9742,-6.0435,-6.0465,-6.0517,-6.0781,-6.1249,-6.1377,-6.0846,-6.0734,-6.0722,-6.0781,-6.0781,-6.0781,-6.0781,-6.0781,-6.0012,-5.8357,-5.9381,-5.9153,-5.7409,-5.9187,-5.964,-5.8714,-5.8538,0.0,-5.8041,-5.7332,-5.7742,-5.9011,-5.9358,-5.9639,-5.9874,-6.0027,-5.9526,-5.86,-5.7855,-5.7496,-5.7232,-5.6284,-5.478,-5.3087,0.0,0.0,0.0,0.0,0.0,0.0,0.0,0.0,0.0,0.0,0.0,0.0,0.0,0.0,-4.7247,-4.6558,0.0,0.0,0.0,0.0,0.0,0.0,0.0,0.0,0.0,0.0,0.0,0.0,0.0,0.0,0.0,0.0,0.0,0.0,0.0,0.0,0.0,0.0,0.0,0.0,0.0,0.0,-4.7846,-4.8762,-5.041,-5.2201,-5.1917,-5.2101,-5.263,-5.3448,-5.294,-5.2105,-5.2569,-5.1966,-5.1219,0.0,0.0,0.0,0.0,0.0,0.0,0.0,0.0,0.0,0.0,0.0,0.0,0.0,0.0,-5.363,0.0,0.0,-5.7109,-5.9226,-6.0242,-6.1089,-6.1935,-6.2435,-6.2243,-6.0935,-6.1166,-6.1293,-6.0819,-6.0781,-6.0781,-6.0781,-6.0781,-6.0781,-6.0781,-6.0396,-5.981,-5.907,-5.9675,-5.9381,-5.8165,-5.9635,-5.9681,-5.8304,-5.8559,-5.8409,-5.7852,-5.814,-5.8704,-5.9511,-5.9973,-6.0275,-6.0418,-5.9996,-5.9537,-5.9039,-5.7774,-5.7315,-5.7174,-5.611,-5.4626,-5.3087,0.0,0.0,0.0,0.0,0.0,0.0,0.0,0.0,0.0,0.0,0.0,0.0,0.0,0.0,0.0,0.0,0.0,0.0,0.0,0.0,0.0,0.0,0.0,0.0,0.0,0.0,0.0,0.0,0.0,0.0,0.0,0.0,0.0,0.0,0.0,0.0,0.0,0.0,0.0,0.0,0.0,0.0,-4.741,-4.7877,-4.9312,-5.1059,-5.0529,-5.0794,-5.1449,-5.2316,-5.2052,-5.1472,-5.1997,-5.1605,-5.1027,-5.1492,-5.17,0.0,0.0,0.0,0.0,0.0,0.0,0.0,0.0,0.0,-5.1895,-5.3587,-5.4087,-5.4587,-5.5972,-5.7049,-5.8457,-6.0718,-6.179,-6.2574,-6.3249,-6.3933,-6.3589,-6.1512,-6.1435,-6.1396,-6.1089,-6.105,-6.0973,-6.0819,-6.0781,-6.0781,-6.0781,-5.9973,-5.9577,-5.9796,-5.9931,-5.9732,-5.9165,-5.9994,-5.9639,-5.8162,-5.8506,-5.8421,-5.7928,-5.8995,-5.9665,-6.0012,-6.055,-6.0781,-6.0704,-5.9704,-5.9281,-5.9088,-5.7407,-5.6753,-5.6637,-5.578,-5.4511,-5.3087,0.0,0.0,0.0,0.0,0.0,0.0,0.0,0.0,0.0,0.0,0.0,0.0,0.0,0.0,0.0,0.0,0.0,0.0,0.0,0.0,0.0,0.0,0.0,0.0,0.0,0.0,0.0,0.0,0.0,0.0,0.0,0.0,0.0,0.0,0.0,0.0,0.0,0.0,0.0,0.0,0.0,0.0,-4.9024,-4.8098,-4.9042,-5.0653,-4.9246,-5.0183,-5.1803,-5.0013,-5.0567,-5.197,-5.1814,-5.1972,-5.2281,-5.2607,0.0,-5.2109,-5.1562,-5.0849,-5.0564,-5.1731,-5.0855,-5.0914,0.0,0.0,-5.4549,-5.6252,-5.7203,-5.778,-5.7973,-5.9319,-6.0768,-6.1949,-6.2695,-6.3261,-6.3526,-6.3494,-6.3358,-6.3051,-6.3705,-6.3589,-6.2101,-6.1947,-6.1639,-6.0858,-6.0781,-6.0781,-6.0781,-5.9973,-5.9577,-5.9796,-5.9931,-6.0005,-6.0065,-6.0267,-6.0173,-5.9727,-5.9043,-5.9281,-6.0365,-5.9754,-6.0319,-6.1793,-6.1089,-6.0781,-6.0666,-5.9088,-5.8434,-5.828,-5.6511,-5.5857,-5.5742,-5.4934,-5.4049,-5.3203,0.0,0.0,0.0,0.0,0.0,0.0,0.0,0.0,0.0,0.0,0.0,0.0,0.0,0.0,0.0,0.0,0.0,0.0,0.0,0.0,0.0,0.0,0.0,0.0,0.0,0.0,0.0,0.0,0.0,0.0,0.0,0.0,0.0,0.0,0.0,0.0,0.0,0.0,0.0,0.0,0.0,0.0,-4.7893,-4.8418,-4.9248,-5.0025,-4.9375,-4.9615,0.0,0.0,-5.1069,-5.219,-5.2304,-5.2735,-5.3207,-5.3551,-5.3423,0.0,-5.2244,-5.2115,-5.2364,-5.2994,-5.3298,-5.4084,-5.6545,-5.6568,-5.6522,-5.8132,-5.8742,-5.9165,-5.9665,-6.0742,-6.1896,0.0,-6.3604,-6.4274,-6.4958,-6.4905,-6.4628,-6.4128,-6.4397,-6.4128,-6.2935,-6.2358,-6.1947,-6.1601,-6.1089,-6.0823,-6.0915,-6.0113,-6.0016,-6.0778,-6.0335,-6.0171,-6.0303,-6.0297,-6.0207,-5.9999,-6.0046,-6.0565,-6.1562,-6.1166,-6.1127,-6.132,-6.0973,-6.0512,-5.9973,-5.9281,-5.8434,-5.7473,-5.6753,-5.6137,-5.5588,-5.478,-5.428,-5.3895,0.0,0.0,0.0,0.0,0.0,0.0,0.0,0.0,0.0,0.0,0.0,0.0,0.0,0.0,0.0,0.0,0.0,0.0,0.0,0.0,0.0,0.0,0.0,0.0,0.0,0.0,0.0,0.0,0.0,0.0,0.0,0.0,0.0,0.0,0.0,0.0,0.0,0.0,0.0,0.0,0.0,0.0,-4.8004,-4.9462,-5.0056,-5.0011,-4.9729,-4.984,0.0,0.0,-5.1902,-5.2855,-5.2941,-5.3658,-5.4381,-5.4387,-5.3958,-5.3403,-5.2957,-5.3357,-5.3951,-5.4409,-5.5571,-5.685,-5.7779,-5.7962,-5.8343,-5.9708,-6.0016,-6.019,-6.0773,-6.156,-6.2485,-6.3457,-6.4144,-6.4929,-6.5954,-6.5793,-6.532,-6.4666,-6.4397,-6.4012,-6.3346,-6.2551,-6.2101,-6.2101,-6.1323,-6.0884,-6.0988,-6.0251,-6.0352,-6.1459,-6.0648,-6.036,-6.0699,-6.0356,-6.0343,-6.0656,-6.0893,-6.161,-6.2781,-6.2551,-6.182,-6.0781,-6.0781,-6.0435,-5.9858,-5.9588,-5.8781,-5.7676,-5.7434,-5.6973,-5.6357,-5.5742,-5.5088,-5.4434,0.0,0.0,0.0,0.0,0.0,0.0,0.0,0.0,0.0,0.0,0.0,0.0,0.0,0.0,0.0,0.0,0.0,0.0,0.0,0.0,0.0,0.0,0.0,0.0,0.0,0.0,0.0,0.0,0.0,0.0,0.0,0.0,0.0,0.0,0.0,0.0,0.0,0.0,0.0,0.0,0.0,0.0,-5.0768,-5.1531,-5.1558,-5.1118,-5.0073,0.0,0.0,0.0,-5.263,-5.4243,-5.3664,-5.4684,0.0,-5.5113,-5.3844,0.0,0.0,0.0,-5.4373,-5.5938,-5.6974,-5.8045,-5.9576,-5.9933,-6.0161,-6.1044,-6.1232,-6.1182,-6.1031,-6.1715,-6.2567,-6.3446,-6.4144,-6.4929,-6.5954,-6.5253,-6.4628,-6.4589,-6.3858,-6.332,-6.3308,-6.2551,-6.2101,-6.2101,-6.1388,-6.0997,-6.0997,-6.0345,-6.0463,-6.1462,-6.0648,-6.0612,-6.1468,-6.0606,-6.0887,-6.2236,-6.1396,-6.2228,-6.4512,-6.3666,-6.2358,-6.0781,-6.0781,-6.0781,-6.0704,-5.9858,-5.9473,-5.9358,-5.8588,-5.8242,-5.8204,-5.8204,-5.6626,-5.4626,0.0,0.0,0.0,0.0,0.0,0.0,0.0,0.0,0.0,0.0,0.0,0.0,0.0,0.0,0.0,0.0,0.0,0.0,0.0,0.0,0.0,0.0,0.0,0.0,0.0,0.0,0.0,0.0,0.0,0.0,0.0,0.0,0.0,0.0,0.0,0.0,0.0,0.0,0.0,0.0,0.0,0.0,-5.0827,-5.1828,-5.2752,-5.3609,0.0,0.0,0.0,0.0,0.0,0.0,-5.564,0.0,0.0,-5.5208,0.0,0.0,0.0,0.0,-5.6133,-5.7847,-5.8861,-5.9751,-6.0779,-6.0992,-6.1049,-6.1267,-6.0855,-6.0409,-6.0352,-6.0992,-6.1888,-6.2902,-6.4104,-6.5234,-6.6166,-6.5875,-6.5131,-6.3883,-6.3462,-6.3122,-6.2702,-6.2413,-6.222,-6.222,-6.1593,-6.1253,-6.1315,-6.1127,-6.1189,-6.1633,-6.1361,-6.1584,-6.2359,-6.1942,-6.2763,-6.4803,-6.4977,-6.4867,-6.4589,-6.3705,-6.2397,-6.0781,-6.0781,-6.0473,-5.9973,-6.0242,-5.9704,-5.8742,-5.9011,-5.8781,-5.8319,-5.8319,-5.778,-5.7049,0.0,0.0,0.0,0.0,0.0,0.0,0.0,0.0,0.0,0.0,0.0,0.0,0.0,0.0,0.0,0.0,0.0,0.0,0.0,0.0,0.0,0.0,0.0,0.0,0.0,0.0,0.0,0.0,0.0,0.0,0.0,0.0,0.0,0.0,0.0,0.0,0.0,0.0,0.0,0.0,0.0,0.0,-5.2301,-5.3865,-5.5053,0.0,0.0,0.0,0.0,0.0,0.0,0.0,0.0,0.0,0.0,0.0,0.0,0.0,0.0,-5.6749,-5.7766,-5.9211,-6.0187,-6.0936,-6.1431,-6.1577,-6.1566,-6.1478,-6.0761,-6.0122,-6.0078,-6.0497,-6.1052,-6.1716,-6.2858,-6.4117,-6.5291,-6.4838,-6.4122,-6.3477,-6.2866,-6.2313,-6.187,-6.1918,-6.2075,-6.2346,-6.1744,-6.1396,-6.1501,-6.1566,-6.1629,-6.1719,-6.1949,-6.243,-6.3159,-6.3249,-6.4222,-6.6024,-6.6767,-6.6051,-6.4128,-6.3551,-6.2397,-6.0781,-6.0781,-6.0473,-6.0012,-6.055,-6.0165,-5.9242,-5.9742,-5.9665,-5.9204,-5.9204,-5.9204,-5.9127,0.0,0.0,0.0,0.0,0.0,0.0,0.0,0.0,0.0,0.0,0.0,0.0,0.0,0.0,0.0,0.0,0.0,0.0,0.0,0.0,0.0,0.0,0.0,0.0,0.0,0.0,0.0,0.0,0.0,0.0,0.0,0.0,0.0,0.0,0.0,0.0,0.0,0.0,0.0,0.0,0.0,0.0,-5.5144,-5.7361,0.0,0.0,0.0,0.0,0.0,0.0,0.0,0.0,0.0,0.0,0.0,0.0,0.0,-5.6656,-5.747,-5.8328,-5.915,-6.0051,-6.0873,-6.152,-6.1677,-6.1719,-6.1719,-6.1719,-6.1015,-6.0349,0.0,0.0,-6.0191,-6.0144,-6.0822,-6.1951,-6.3696,-6.249,-6.1959,0.0,0.0,0.0,0.0,-6.12,-6.1612,-6.2391,-6.1888,-6.1509,-6.1509,-6.1633,-6.1719,-6.1758,-6.2432,-6.3163,-6.3904,-6.464,-6.5329,-6.6051,-6.6744,-6.582,-6.3435,-6.3346,-6.2397,-6.0858,-6.0819,-6.0781,-6.0781,-6.0781,-6.0781,-6.0781,-6.0781,-6.0781,-6.0781,-6.0781,-6.0781,-6.0512,0.0,0.0,0.0,0.0,0.0,0.0,0.0,0.0,0.0,0.0,0.0,0.0,0.0,0.0,0.0,0.0,0.0,0.0,0.0,0.0,0.0,0.0,0.0,0.0,0.0,0.0,0.0,0.0,0.0,0.0,0.0,0.0,0.0,0.0,0.0,0.0,0.0,0.0,0.0,0.0,0.0,0.0,-5.8176,0.0,0.0,0.0,0.0,0.0,0.0,0.0,0.0,0.0,0.0,0.0,-5.8178,0.0,0.0,-5.7483,-5.8997,-5.9542,-5.9932,-6.0794,-6.1257,-6.1509,-6.1525,-6.1633,-6.1719,-6.1719,-6.1015,-6.039,0.0,0.0,0.0,-6.2016,-6.2952,0.0,-6.5652,-6.4938,0.0,-6.3645,0.0,-6.1881,-6.1259,-6.1364,-6.1576,-6.1894,-6.175,-6.1637,-6.1637,-6.1679,-6.1949,-6.2503,-6.2716,-6.3663,-6.5485,-6.6803,-6.7589,-6.7782,-6.7321,-6.6436,-6.5205,-6.3897,-6.2743,-6.1716,-6.1089,-6.0781,-6.0781,-6.0781,-6.0781,-6.0781,-6.0781,-6.0781,-6.0781,-6.0781,-6.0396,-5.9781,0.0,0.0,0.0,0.0,0.0,0.0,0.0,0.0,0.0,0.0,0.0,0.0,0.0,0.0,0.0,0.0,0.0,0.0,0.0,0.0,0.0,0.0,0.0,0.0,0.0,0.0,0.0,0.0,0.0,0.0,0.0,0.0,0.0,0.0,0.0,0.0,0.0,0.0,0.0,0.0,0.0,0.0,0.0,0.0,0.0,0.0,0.0,0.0,0.0,0.0,0.0,-5.9897,-5.8824,-5.8706,-5.8877,-5.8592,0.0,-5.8648,-5.9611,-6.0155,-6.0544,-6.1056,-6.1301,-6.1413,-6.1495,-6.1588,-6.1719,-6.1719,-6.1015,0.0,-5.9922,-6.0156,0.0,0.0,0.0,0.0,-6.4827,-6.4589,-6.4046,0.0,-6.2891,0.0,-6.1456,-6.1786,-6.2117,-6.2265,-6.2265,-6.2265,-6.2265,-6.2617,-6.3001,-6.3374,-6.4029,-6.5446,-6.7652,-6.8552,-6.8783,-6.8398,-6.7625,-6.6576,-6.5379,-6.4415,-6.3295,-6.2148,-6.162,-6.1127,-6.0781,-6.0781,-6.0781,-6.0781,-6.0781,-6.0781,-6.0781,-6.0781,-6.0242,-5.9511,0.0,0.0,0.0,0.0,0.0,0.0,0.0,0.0,0.0,0.0,0.0,0.0,0.0,0.0,0.0,0.0,0.0,0.0,0.0,0.0,0.0,0.0,0.0,0.0,0.0,0.0,0.0,0.0,0.0,0.0,0.0,0.0,0.0,0.0,0.0,0.0,0.0,0.0,0.0,0.0,0.0,0.0,0.0,0.0,0.0,0.0,0.0,0.0,0.0,0.0,-6.2447,-5.9784,-5.9148,-5.9369,-5.9711,-5.9138,-5.9434,-5.9907,-5.9851,-6.0401,-6.0952,-6.0952,-6.1135,-6.1323,-6.1467,-6.1584,-6.1719,-6.1719,0.0,-6.0351,-5.9648,-6.0117,-6.039,-5.9805,0.0,-6.2226,-6.3203,-6.3164,-6.3004,-6.2959,-6.2764,-6.2335,-6.1582,-6.2215,-6.275,-6.2968,-6.3125,-6.3164,-6.3164,-6.3866,-6.4281,-6.4349,-6.5848,-6.758,-6.9513,-6.9398,-6.8988,-6.827,-6.7574,-6.6438,-6.5002,-6.485,-6.3949,-6.2478,-6.2315,-6.1704,-6.0819,-6.0935,-6.0896,-6.0781,-6.0781,-6.0781,-6.0781,-6.0781,-6.0242,-5.9473,0.0,0.0,0.0,0.0,0.0,0.0,0.0,0.0,0.0,0.0,0.0,0.0,0.0,0.0,0.0,0.0,0.0,0.0,0.0,0.0,0.0,0.0,0.0,0.0,0.0,0.0,0.0,0.0,0.0,0.0,0.0,0.0,0.0,0.0,0.0,0.0,0.0,0.0,0.0,0.0,0.0,0.0,0.0,0.0,0.0,0.0,0.0,0.0,0.0,0.0,-6.3756,-6.2571,-6.3255,-6.2618,-6.1639,-6.1505,-6.1054,-6.063,-6.063,-6.0707,-6.0823,-6.0823,-6.107,-6.1295,-6.1318,-6.1517,0.0,0.0,-6.1562,-6.1445,-6.1289,-6.1367,-6.164,-6.2265,-6.2578,-6.332,-6.4922,-6.3906,-6.3238,0.0,-6.2719,-6.1787,-6.1549,-6.1743,-6.2186,-6.293,-6.3672,-6.4062,-6.4062,-6.4122,-6.4636,-6.5713,-6.7244,-6.8231,-6.8629,-6.7898,-6.7574,-6.755,-6.6748,-6.6256,-6.6107,-6.52,-6.4298,-6.3359,-6.3191,-6.2204,-6.0858,-6.1601,-6.1447,-6.0781,-6.0781,-6.0781,-6.0781,-6.0781,-6.0242,-5.9396,0.0,0.0,0.0,0.0,0.0,0.0,0.0,0.0,0.0,0.0,0.0,0.0,0.0,0.0,0.0,0.0,0.0,0.0,0.0,0.0,0.0,0.0,0.0,0.0,0.0,0.0,0.0,0.0,0.0,0.0,0.0,0.0,0.0,0.0,0.0,0.0,0.0,0.0,0.0,0.0,0.0,0.0,0.0,0.0,0.0,0.0,0.0,0.0,0.0,0.0,-6.5447,-6.457,-6.4291,-6.3834,-6.332,-6.2858,-6.2127,-6.155,-6.1973,-6.1781,-6.1485,-6.1485,-6.1694,-6.1828,-6.14,0.0,0.0,0.0,-6.2383,-6.2226,-6.1797,-6.1719,0.0,-6.2265,-6.2305,-6.2773,-6.4062,-6.3515,0.0,-6.288,-6.2576,-6.2186,-6.1668,-6.2068,-6.2539,-6.2969,-6.4219,-6.4961,-6.4961,-6.5175,-6.5758,-6.6767,-6.7405,-6.7975,-6.8479,-6.7679,-6.7328,-6.7487,-6.6743,-6.6396,-6.6503,-6.5968,-6.5226,-6.4349,-6.3719,-6.2701,-6.1485,-6.1435,-6.1166,-6.0781,-6.0781,-6.0781,-6.0781,-6.0781,-6.0242,-5.9435,0.0,0.0,0.0,0.0,0.0,0.0,0.0,0.0,0.0,0.0,0.0,0.0,0.0,0.0,0.0,0.0,0.0,0.0,0.0,0.0,0.0,0.0,0.0,0.0,0.0,0.0,0.0,0.0,0.0,0.0,0.0,0.0,0.0,0.0,0.0,0.0,0.0,0.0,0.0,0.0,0.0,0.0,0.0,0.0,0.0,0.0,0.0,0.0,0.0,0.0,-6.7095,-6.6284,-6.4944,-6.4657,-6.4674,-6.3911,-6.304,-6.2425,-6.2989,-6.267,-6.2221,-6.2221,-6.2345,-6.2367,-6.1945,-6.2563,0.0,0.0,-6.3397,-6.3161,-6.2145,-6.195,-6.1872,0.0,-6.1679,-6.1992,0.0,-6.2851,-6.2539,0.0,-6.2422,0.0,-6.1758,-6.2305,-6.2812,-6.3008,-6.4609,-6.5663,-6.577,-6.6312,-6.6866,-6.7307,-6.7188,-6.7408,-6.8021,-6.7425,-6.7118,-6.7048,-6.6763,-6.6625,-6.6678,-6.6625,-6.6057,-6.5064,-6.4208,-6.3186,-6.2062,-6.1358,-6.0973,-6.0781,-6.0781,-6.0781,-6.0781,-6.0781,-6.0358,-5.9742,0.0,0.0,0.0,0.0,0.0,0.0,0.0,0.0,0.0,0.0,0.0,0.0,0.0,0.0,0.0,0.0,0.0,0.0,0.0,0.0,0.0,0.0,0.0,0.0,0.0,0.0,0.0,0.0,0.0,0.0,0.0,0.0,0.0,0.0,0.0,0.0,0.0,0.0,0.0,0.0,0.0,0.0,0.0,0.0,0.0,0.0,0.0,0.0,0.0,0.0,0.0,-6.8068,-6.6892,-6.605,-6.5424,-6.4965,0.0,0.0,-6.2749,-6.2612,-6.2536,-6.2536,-6.2545,-6.2678,-6.3423,0.0,0.0,-6.418,-6.4672,-6.4596,-6.2998,-6.2683,-6.2446,0.0,0.0,-6.1992,0.0,0.0,0.0,-6.2812,0.0,0.0,-6.1719,-6.1758,-6.2148,-6.293,-6.4609,-6.5803,-6.629,-6.7061,-6.7376,-6.7127,-6.7116,-6.6808,-6.614,-6.6183,-6.5924,-6.5342,-6.6182,-6.669,-6.6874,-6.6685,-6.6057,-6.5064,-6.4821,-6.3688,-6.2101,-6.2024,-6.1524,-6.0781,-6.0781,-6.0781,-6.0781,-6.0781,-6.0742,-6.055,0.0,0.0,0.0,0.0,0.0,0.0,0.0,0.0,0.0,0.0,0.0,0.0,0.0,0.0,0.0,0.0,0.0,0.0,0.0,0.0,0.0,0.0,0.0,0.0,0.0,0.0,0.0,0.0,0.0,0.0,0.0,0.0,0.0,0.0,0.0,0.0,0.0,0.0,0.0,0.0,0.0,0.0,0.0,0.0,0.0,0.0,0.0,0.0,0.0,0.0,0.0,0.0,-6.748,-6.6476,0.0,0.0,-6.3913,-6.3254,-6.3905,-6.3711,-6.3543,-6.4364,-6.4319,-6.4279,-6.5181,0.0,-6.6015,-6.6523,-6.635,-6.5875,-6.5211,-6.3756,-6.2494,0.0,0.0,0.0,-6.1971,0.0,0.0,-6.207,-6.1445,-6.1133,-6.164,-6.1719,-6.207,-6.293,-6.414,-6.5106,-6.5706,-6.6474,-6.6592,-6.5902,-6.5704,-6.5589,-6.5549,-6.5521,-6.5723,-6.6173,-6.6584,-6.6832,-6.6914,-6.6831,-6.6151,-6.507,-6.4454,-6.3447,-6.2179,-6.1554,-6.1164,-6.0915,-6.0823,-6.0781,-6.0781,-6.0781,-6.0781,-6.0742,0.0,0.0,0.0,0.0,0.0,0.0,0.0,0.0,0.0,0.0,0.0,0.0,0.0,0.0,0.0,0.0,0.0,0.0,0.0,0.0,0.0,0.0,0.0,0.0,0.0,0.0,0.0,0.0,0.0,0.0,0.0,0.0,-7.1293,-7.1293,0.0,0.0,0.0,0.0,0.0,0.0,0.0,0.0,0.0,0.0,0.0,0.0,0.0,0.0,0.0,0.0,0.0,0.0,0.0,0.0,0.0,0.0,-6.4218,-6.3521,-6.4764,-6.4641,-6.4474,-6.5761,-6.5708,-6.569,0.0,0.0,-6.7674,-6.8351,-6.8021,-6.7335,-6.6595,-6.4869,-6.3415,0.0,0.0,-6.1116,-6.1771,-6.0473,0.0,0.0,0.0,-6.0386,-6.1519,-6.1913,-6.2344,-6.2969,-6.3828,-6.4607,-6.536,-6.6057,-6.6162,-6.5524,-6.5014,-6.4765,-6.4852,-6.5046,-6.5457,-6.6089,-6.664,-6.6758,-6.6523,-6.6523,-6.5876,-6.4743,-6.3891,-6.3061,-6.2275,-6.1341,-6.0983,-6.0988,-6.0923,-6.0823,-6.0781,-6.0781,-6.0781,-6.0781,0.0,0.0,0.0,0.0,0.0,0.0,0.0,0.0,0.0,0.0,0.0,0.0,0.0,0.0,0.0,0.0,0.0,0.0,0.0,0.0,0.0,0.0,0.0,0.0,0.0,0.0,0.0,0.0,0.0,0.0,0.0,0.0,0.0,0.0,0.0,0.0,0.0,0.0,0.0,0.0,0.0,0.0,0.0,0.0,0.0,0.0,0.0,0.0,0.0,0.0,0.0,0.0,0.0,0.0,0.0,0.0,-6.5253,-6.3813,-6.4833,-6.5099,-6.529,-6.6183,-6.6231,-6.6582,0.0,0.0,-6.8948,-6.917,-6.9558,-6.9101,-6.6583,-6.6061,-6.5509,-6.3854,0.0,0.0,-6.2772,-6.1188,-6.0034,0.0,-5.9441,-5.9597,-6.1317,-6.2414,-6.3008,-6.3008,-6.3828,-6.4687,-6.5547,-6.6223,-6.6533,-6.6393,-6.5563,-6.4662,-6.3819,-6.4809,-6.4899,-6.4163,-6.601,-6.6445,-6.5625,-6.5625,-6.5069,-6.4073,-6.3182,-6.2695,-6.2445,-6.1627,-6.1186,-6.0997,-6.0997,-6.0925,-6.0781,-6.0781,-6.0781,-6.0781,0.0,0.0,0.0,0.0,0.0,0.0,0.0,0.0,0.0,0.0,0.0,0.0,0.0,0.0,0.0,0.0,0.0,0.0,0.0,0.0,0.0,0.0,0.0,0.0,0.0,0.0,0.0,0.0,0.0,0.0,0.0,0.0,0.0,0.0,0.0,0.0,0.0,0.0,0.0,0.0,0.0,0.0,0.0,0.0,0.0,0.0,0.0,0.0,0.0,0.0,0.0,0.0,0.0,0.0,0.0,0.0,0.0,0.0,-6.4916,-6.5518,-6.6284,-6.7472,-6.7791,-6.8278,-7.0078,0.0,-6.9967,-7.0653,-7.0316,-6.9633,-6.8859,-6.7194,-6.5581,-6.4463,0.0,0.0,0.0,0.0,0.0,-6.0993,-6.0918,-6.101,-6.1596,-6.1913,-6.2109,-6.2109,-6.3476,-6.4414,-6.4687,-6.5466,-6.5614,-6.4974,-6.4466,-6.4184,-6.4154,-6.4367,-6.4692,-6.5111,-6.5741,-6.5547,-6.4726,-6.4726,-6.4172,-6.3182,-6.2909,-6.2425,-6.1803,-6.1445,-6.1259,-6.1193,-6.1056,-6.0925,-6.0781,-6.0781,-6.0781,-6.0781,0.0,0.0,0.0,0.0,0.0,0.0,0.0,0.0,0.0,0.0,0.0,0.0,0.0,0.0,0.0,0.0,0.0,0.0,0.0,0.0,0.0,0.0,0.0,0.0,0.0,0.0,0.0,0.0,0.0,0.0,0.0,0.0,0.0,0.0,0.0,0.0,0.0,0.0,0.0,0.0,0.0,0.0,-7.2496,0.0,0.0,0.0,0.0,0.0,0.0,0.0,0.0,0.0,0.0,0.0,0.0,0.0,0.0,0.0,0.0,-6.6742,-6.7414,-6.8614,-6.8962,0.0,0.0,0.0,-7.063,-7.127,-7.0787,-7.017,-6.9899,-6.8461,-6.6936,-6.5743,-6.4205,0.0,0.0,0.0,0.0,-6.0483,-6.119,-6.152,-6.125,-6.1797,-6.2187,-6.2187,-6.3203,-6.3945,-6.4297,-6.4805,-6.4726,-6.3828,-6.3943,-6.4253,-6.4805,-6.4365,-6.4482,-6.5117,-6.5117,-6.4648,-6.3828,-6.3828,-6.3278,-6.2399,-6.2399,-6.2086,0.0,-6.1495,-6.1409,-6.1354,-6.12,-6.1027,-6.086,-6.0827,-6.0781,-6.0781,0.0,0.0,0.0,0.0,0.0,0.0,0.0,0.0,0.0,0.0,0.0,0.0,0.0,0.0,0.0,0.0,0.0,0.0,0.0,0.0,0.0,0.0,0.0,0.0,0.0,0.0,0.0,0.0,-7.1783,-7.1402,-6.9963,0.0,0.0,0.0,0.0,0.0,0.0,0.0,0.0,0.0,0.0,0.0,0.0,0.0,0.0,0.0,0.0,0.0,0.0,0.0,0.0,0.0,0.0,0.0,0.0,0.0,0.0,0.0,0.0,0.0,0.0,0.0,0.0,0.0,0.0,0.0,0.0,-7.1137,-7.1079,-7.0744,-6.9937,-6.9706,-6.9052,-6.7359,-6.5628,0.0,0.0,-6.1986,-5.9721,-5.9059,-6.0453,-6.1221,-6.0468,-6.1914,-6.289,-6.289,-6.2969,-6.3398,-6.4258,-6.4258,-6.3906,-6.3203,-6.3867,-6.4648,-6.5508,-6.4687,-6.4336,-6.4375,-6.4375,-6.3906,-6.3008,-6.3008,-6.2539,-6.1719,-6.1719,-6.1719,-6.1719,-6.1719,-6.1631,-6.1495,-6.1344,-6.1179,-6.097,-6.0856,-6.0781,-6.0781,0.0,0.0,0.0,0.0,0.0,0.0,0.0,0.0,0.0,0.0,0.0,0.0,0.0,0.0,0.0,0.0,0.0,0.0,0.0,0.0,0.0,0.0,0.0,0.0,0.0,0.0,0.0,-7.3936,-7.2155,-7.0568,-6.9119,-6.6916,0.0,0.0,0.0,0.0,0.0,0.0,0.0,0.0,0.0,0.0,0.0,0.0,0.0,0.0,-7.1101,-7.046,0.0,0.0,0.0,0.0,0.0,0.0,0.0,0.0,-7.202,0.0,0.0,0.0,0.0,0.0,0.0,0.0,0.0,0.0,0.0,0.0,0.0,0.0,0.0,-6.959,-6.8359,-6.7282,-6.5128,-6.3614,-6.3646,-6.2529,-6.1213,-5.9888,-6.0765,-6.1161,-6.0319,-6.1324,-6.1992,-6.1992,-6.2617,-6.3398,-6.4258,-6.3672,-6.3828,-6.4961,-6.3906,-6.3711,-6.4609,-6.4414,-6.4648,-6.5273,-6.5273,-6.4492,-6.3008,-6.3008,-6.2539,-6.1719,-6.1719,-6.1719,-6.1719,-6.1719,-6.1631,-6.1495,-6.1344,-6.1179,-6.097,-6.0856,-6.0781,-6.0781,0.0,0.0,0.0,0.0,0.0,0.0,0.0,0.0,0.0,0.0,0.0,0.0,0.0,0.0,0.0,0.0,0.0,0.0,0.0,0.0,0.0,0.0,0.0,0.0,0.0,0.0,0.0,0.0,0.0,-7.0741,0.0,0.0,0.0,0.0,0.0,0.0,0.0,0.0,0.0,0.0,-7.2899,0.0,0.0,0.0,0.0,0.0,-7.1431,-7.084,0.0,-7.0151,-7.0198,-7.0421,0.0,0.0,0.0,0.0,-7.2732,0.0,0.0,0.0,0.0,-7.036,-7.0591,-7.0898,0.0,0.0,0.0,0.0,0.0,0.0,0.0,-6.9283,-6.7975,-6.6744,-6.4705,-6.306,-6.2348,-6.1911,-6.1462,-6.0784,-6.0815,-6.0895,-6.0881,-6.1365,-6.1719,-6.1719,-6.2148,-6.2617,-6.3086,-6.2656,-6.2851,-6.3789,-6.3281,-6.3594,-6.4883,-6.4492,-6.4726,-6.5586,-6.4805,-6.3906,-6.3008,-6.2578,-6.2148,-6.1719,-6.1719,-6.1719,-6.1719,-6.1719,-6.1677,-6.1577,-6.1369,-6.1234,-6.1112,-6.0871,-6.0781,-6.0781,0.0,0.0,0.0,0.0,0.0,0.0,0.0,0.0,0.0,0.0,0.0,0.0,0.0,0.0,0.0,0.0,0.0,0.0,0.0,0.0,0.0,0.0,0.0,0.0,0.0,0.0,0.0,0.0,0.0,0.0,0.0,0.0,0.0,0.0,0.0,0.0,0.0,0.0,0.0,0.0,-7.323,0.0,0.0,0.0,0.0,0.0,0.0,0.0,0.0,-7.0312,-7.0361,-7.0705,-7.0839,0.0,0.0,0.0,0.0,0.0,0.0,-7.1668,-7.0898,-7.0898,-7.0898,-7.0898,-7.0898,0.0,0.0,0.0,0.0,0.0,0.0,-6.8975,-6.7744,-6.632,-6.4628,-6.2941,-6.1379,-6.1253,-6.1368,-6.1439,-6.0815,-6.0661,-6.1404,-6.1601,-6.1719,-6.1719,-6.1719,-6.1758,-6.1875,-6.1758,-6.1758,-6.1875,-6.2617,-6.3711,-6.5195,-6.4726,-6.4883,-6.5586,-6.4101,-6.3242,-6.2969,-6.2226,-6.1836,-6.1719,-6.1719,-6.1719,-6.1719,-6.1719,-6.1719,-6.1679,-6.1413,-6.1306,-6.1253,-6.0963,-6.0827,-6.0781,0.0,0.0,0.0,0.0,0.0,0.0,0.0,0.0,0.0,0.0,0.0,0.0,0.0,0.0,0.0,0.0,0.0,0.0,0.0,0.0,0.0,0.0,0.0,0.0,0.0,0.0,0.0,0.0,0.0,0.0,-6.6843,-6.5815,-6.6109,0.0,0.0,0.0,0.0,0.0,0.0,0.0,0.0,0.0,0.0,0.0,0.0,0.0,0.0,0.0,0.0,-7.1777,-7.1626,-7.1626,-7.2364,0.0,0.0,0.0,0.0,0.0,-7.3168,-7.2129,-7.0898,-7.0898,-7.0898,-7.0898,-7.0898,0.0,0.0,0.0,0.0,0.0,0.0,-6.8821,-6.7205,-6.6974,-6.5513,-6.3832,-6.2159,-6.2506,-6.2474,-6.1228,-6.1123,-6.0949,-6.0464,-6.1206,-6.1719,-6.1719,-6.1719,-6.2031,-6.2773,-6.2109,-6.2031,-6.2773,-6.293,-6.3125,-6.3398,-6.4726,-6.5469,-6.5586,-6.5312,-6.4414,-6.3008,-6.2851,-6.2383,-6.1719,-6.1719,-6.1719,-6.1719,-6.1719,-6.1719,-6.1679,-6.152,-6.1392,-6.1265,-6.104,-6.0884,-6.0781,0.0,0.0,0.0,0.0,0.0,0.0,0.0,0.0,0.0,0.0,0.0,0.0,0.0,0.0,0.0,0.0,0.0,0.0,0.0,0.0,0.0,0.0,0.0,0.0,0.0,0.0,0.0,0.0,0.0,-6.8763,-6.7797,-6.6953,-6.721,-6.8385,0.0,0.0,0.0,0.0,0.0,0.0,0.0,0.0,0.0,0.0,0.0,0.0,0.0,0.0,0.0,0.0,-7.1595,-7.1553,-7.1962,0.0,0.0,0.0,0.0,0.0,-7.3261,-7.2245,-7.0898,-7.0898,-7.0552,-7.0244,-7.0244,-7.0898,0.0,0.0,0.0,0.0,0.0,0.0,-6.6128,-6.5205,-6.4051,-6.2974,-6.2216,-6.1589,-6.1218,-6.1174,-6.0819,-6.0716,-6.0999,-6.1443,-6.1719,-6.1719,-6.1719,-6.1875,-6.2265,-6.1914,-6.1875,-6.2265,-6.2734,-6.3008,-6.3008,-6.4258,-6.4883,-6.4883,-6.4414,-6.3789,-6.2969,-6.25,-6.207,-6.1719,-6.1719,-6.1719,-6.1719,-6.1719,-6.1719,-6.1679,-6.1568,-6.1404,-6.1259,-6.0982,-6.0867,-6.0781,0.0,0.0,0.0,0.0,0.0,0.0,0.0,0.0,0.0,0.0,0.0,0.0,0.0,0.0,0.0,0.0,0.0,0.0,0.0,0.0,0.0,0.0,0.0,0.0,0.0,0.0,0.0,0.0,-7.011,-6.9009,-6.8605,-6.7797,-6.7944,0.0,0.0,0.0,0.0,0.0,0.0,-7.1725,0.0,0.0,0.0,0.0,0.0,0.0,0.0,0.0,0.0,0.0,0.0,0.0,0.0,0.0,0.0,0.0,-7.2913,-7.1706,-7.3139,-7.2245,-7.0821,-7.0398,0.0,-6.9744,-6.9937,-7.0321,-7.0437,0.0,0.0,0.0,0.0,-6.609,-6.4743,-6.3012,-6.2358,-6.2101,-6.2101,-6.0935,-6.0498,-6.148,-6.0828,-6.0664,-6.1601,-6.1719,-6.1719,-6.1719,-6.1719,-6.1719,-6.1719,-6.1719,-6.1719,-6.1719,-6.2539,-6.289,-6.2695,-6.3555,-6.3984,-6.3984,-6.332,-6.289,-6.2656,-6.1992,-6.1719,-6.1719,-6.1719,-6.1719,-6.1719,-6.1719,-6.1719,-6.1679,-6.1582,-6.1467,-6.1253,-6.0954,-6.085,-6.0781,0.0,0.0,0.0,0.0,0.0,0.0,0.0,0.0,0.0,0.0,0.0,0.0,0.0,0.0,0.0,0.0,0.0,0.0,0.0,0.0,0.0,0.0,0.0,0.0,0.0,0.0,0.0,0.0,0.0,0.0,-6.776,-6.6953,-6.7393,0.0,0.0,0.0,0.0,0.0,0.0,-7.2496,-7.334,0.0,0.0,0.0,0.0,0.0,0.0,0.0,0.0,0.0,0.0,0.0,0.0,0.0,0.0,0.0,-7.2536,-7.1007,-7.2985,-7.2245,-7.0514,-6.8975,-6.9129,-6.9898,-7.0629,-7.0283,0.0,-6.9706,0.0,0.0,-6.7436,-6.5128,-6.2935,-6.1243,-6.1589,-6.2101,-6.2101,-6.1985,-6.2043,-6.2368,-6.1711,-6.1357,-6.1679,-6.1719,-6.1719,-6.1719,-6.1719,-6.1719,-6.1719,-6.1719,-6.1719,-6.1719,-6.2539,-6.2617,-6.1797,-6.2656,-6.3086,-6.3086,-6.3047,-6.2578,-6.1797,-6.1719,-6.1719,-6.1719,-6.1719,-6.1719,-6.1719,-6.1719,-6.1719,-6.1719,-6.1679,-6.1517,-6.1265,-6.1065,-6.0905,-6.0781,0.0,0.0,0.0,0.0,0.0,0.0,0.0,0.0,0.0,0.0,0.0,0.0,0.0,0.0,0.0,0.0,0.0,0.0,0.0,0.0,0.0,0.0,0.0,0.0,0.0,0.0,0.0,0.0,0.0,0.0,0.0,0.0,0.0,0.0,0.0,0.0,0.0,0.0,0.0,-7.1211,-7.3523,-7.4625,0.0,0.0,0.0,0.0,0.0,0.0,0.0,0.0,-7.2496,0.0,0.0,0.0,0.0,0.0,-7.2311,-7.1233,-7.237,-7.1822,-7.0629,-6.9475,-6.8629,0.0,0.0,-6.8706,-6.8744,-6.8205,-6.8513,-6.8205,-6.5974,-6.432,-6.3077,-6.2474,-6.2204,-6.2101,-6.2101,-6.1639,-6.1425,-6.1713,-6.1478,-6.1396,-6.1679,-6.1719,-6.1719,-6.1719,-6.1719,-6.1719,-6.1719,-6.1719,-6.1719,-6.1719,-6.2031,-6.2031,-6.1719,-6.2031,-6.2187,-6.2187,-6.2187,-6.2031,-6.1719,-6.1719,-6.1719,-6.1719,-6.1719,-6.1719,-6.1719,-6.1719,-6.1719,-6.1679,-6.1629,-6.1478,-6.1265,-6.1081,-6.0915,-6.0816,0.0,0.0,0.0,0.0,0.0,0.0,0.0,0.0,0.0,0.0,0.0,0.0,0.0,0.0,0.0,0.0,0.0,0.0,0.0,0.0,0.0,0.0,0.0,0.0,0.0,0.0,0.0,0.0,0.0,0.0,0.0,0.0,0.0,0.0,0.0,0.0,0.0,0.0,0.0,-7.1101,-7.3817,-7.4918,0.0,0.0,0.0,0.0,0.0,0.0,0.0,0.0,-7.2496,0.0,0.0,0.0,0.0,0.0,0.0,-7.1477,-7.203,-7.1552,-7.0706,0.0,0.0,0.0,-6.6782,-6.7398,-6.7821,-6.7205,-6.7167,-6.659,-6.4551,-6.3281,-6.2512,-6.2512,-6.205,-6.1678,-6.1678,-6.1166,-6.0923,-6.1246,-6.1283,-6.1396,-6.1679,-6.1719,-6.1719,-6.1719,-6.1719,-6.1719,-6.1719,-6.1719,-6.1719,-6.1719,-6.1719,-6.1719,-6.1719,-6.1719,-6.1719,-6.1719,-6.1719,-6.1719,-6.1719,-6.1719,-6.1719,-6.1719,-6.1719,-6.1719,-6.1719,-6.1719,-6.1719,-6.1679,-6.1587,-6.1491,-6.1344,-6.1201,-6.1023,-6.0892,0.0,0.0,0.0,0.0,0.0,0.0,0.0,0.0,0.0,0.0,0.0,0.0,0.0,0.0,0.0,0.0,0.0,0.0,0.0,0.0,0.0,0.0,0.0,0.0,0.0,0.0,0.0,0.0,0.0,0.0,0.0,0.0,0.0,0.0,0.0,0.0,0.0,0.0,0.0,-7.2642,-7.4258,-7.4882,-7.5065,0.0,0.0,0.0,0.0,0.0,0.0,0.0,-7.2496,-7.2602,0.0,0.0,0.0,0.0,-7.2688,-7.151,-7.203,-7.1552,-7.0706,0.0,0.0,0.0,-6.6051,-6.6513,-6.709,-6.709,-6.5743,-6.432,-6.3474,-6.1935,-6.0781,-6.0781,-6.0781,-6.0781,-6.0781,-6.0781,-6.0923,-6.1246,-6.1283,-6.1396,-6.1679,-6.1719,-6.1719,-6.1719,-6.1719,-6.1719,-6.1719,-6.1719,-6.1719,-6.1719,-6.1719,-6.1719,-6.1719,-6.1719,-6.1719,-6.1719,-6.1719,-6.1719,-6.1719,-6.1719,-6.1719,-6.1719,-6.1719,-6.1719,-6.1719,-6.1719,-6.1719,-6.1719,-6.1719,-6.1631,-6.1504,-6.1504,-6.1284,-6.104,0.0,0.0,0.0,0.0,0.0,0.0,0.0,0.0,0.0,0.0,0.0,0.0,0.0,0.0,0.0,0.0,0.0,0.0,0.0,0.0,0.0,0.0,0.0,0.0,0.0,0.0,0.0,0.0,0.0,0.0,0.0,0.0,0.0,-7.2165,0.0,0.0,0.0,0.0,0.0,-7.1762,-7.2789,-7.356,-7.4184,0.0,0.0,0.0,0.0,0.0,0.0,0.0,0.0,0.0,0.0,0.0,0.0,-7.2756,-7.2068,-7.1065,-7.1255,-7.1091,-7.0706,-6.9898,0.0,0.0,0.0,-6.5166,0.0,0.0,-6.4897,-6.3628,-6.3346,-6.1935,-6.0781,-6.0781,-6.0781,-6.0781,-6.0781,-6.0781,-6.0923,-6.1246,-6.1283,-6.1396,-6.1679,-6.1719,-6.1719,-6.1719,-6.1719,-6.1719,-6.1719,-6.1719,-6.1719,-6.1719,-6.1719,-6.1719,-6.1719,-6.1719,-6.1719,-6.1719,-6.1719,-6.1719,-6.1719,-6.1719,-6.1719,-6.1719,-6.1719,-6.1719,-6.1719,-6.1719,-6.1719,-6.1719,-6.1719,-6.1631,-6.1504,-6.1504,-6.1383,-6.124,0.0,0.0,0.0,0.0,0.0,0.0,0.0,0.0,0.0,0.0,0.0,0.0,0.0,0.0,0.0,0.0,0.0,0.0,0.0,0.0,0.0,0.0,0.0,0.0,0.0,0.0,0.0,0.0,0.0,0.0,0.0,0.0,0.0,0.0,0.0,0.0,0.0,0.0,0.0,-7.1872,-7.2642,-7.3266,-7.378,0.0,0.0,0.0,0.0,0.0,0.0,0.0,0.0,0.0,0.0,0.0,0.0,-7.291,-7.2479,-7.186,-7.1514,-7.1168,0.0,-7.0283,-6.8013,-6.5513,-6.3974,0.0,0.0,-6.5205,-6.4282,-6.3192,-6.2897,-6.1704,-6.0781,-6.0781,-6.0781,-6.0781,-6.0781,-6.0856,-6.0963,-6.1253,-6.1027,-6.0932,-6.1171,-6.1172,-6.1172,-6.1172,-6.1484,-6.1562,-6.1211,-6.1523,-6.1523,-6.1172,-6.1523,-6.1719,-6.1719,-6.1719,-6.1523,-6.1172,-6.1172,-6.1172,-6.1211,-6.1523,-6.1719,-6.168,-6.1328,-6.1367,-6.168,-6.1328,-6.1406,-6.1719,-6.1719,-6.1637,-6.158,-6.158,-6.1501,-6.1387,0.0,0.0,0.0,0.0,0.0,0.0,0.0,0.0,0.0,0.0,0.0,0.0,0.0,0.0,0.0,0.0,0.0,0.0,0.0,0.0,0.0,0.0,0.0,0.0,0.0,0.0,0.0,0.0,0.0,0.0,0.0,0.0,0.0,0.0,0.0,-7.2496,0.0,0.0,0.0,-7.2569,-7.323,-7.3523,-7.367,-7.4404,0.0,0.0,0.0,0.0,0.0,0.0,0.0,0.0,0.0,0.0,-7.4151,-7.366,-7.3437,-7.3206,-7.2399,-7.1552,-7.0937,-7.1014,-6.8436,-6.5243,-6.2678,-6.2666,-6.3435,-6.432,-6.3782,-6.2974,-6.2216,-6.1408,-6.0781,-6.0781,-6.0781,-6.0781,-6.0781,-6.0817,-6.094,-6.1149,-6.0538,-6.0117,-6.0273,-6.0351,-6.0351,-6.0312,-6.1094,-6.1211,-6.0351,-6.1094,-6.1211,-6.043,-6.125,-6.1719,-6.1719,-6.1719,-6.125,-6.039,-6.039,-6.0351,-6.0312,-6.1172,-6.1562,-6.1523,-6.0664,-6.0742,-6.1406,-6.0625,-6.0781,-6.1562,-6.1562,-6.164,-6.1719,-6.1719,-6.1632,-6.1522,0.0,0.0,0.0,0.0,0.0,0.0,0.0,0.0,0.0,0.0,0.0,0.0,0.0,0.0,0.0,0.0,0.0,0.0,0.0,0.0,0.0,0.0,0.0,0.0,0.0,0.0,0.0,0.0,0.0,0.0,0.0,0.0,0.0,0.0,0.0,0.0,0.0,0.0,0.0,0.0,-7.2018,-7.2202,-7.2789,-7.2973,-7.3195,0.0,0.0,0.0,0.0,0.0,0.0,0.0,-7.4571,-7.4486,-7.3931,-7.3599,-7.3014,-7.2437,0.0,-7.1552,0.0,0.0,-6.8898,-6.5243,-6.2678,-6.2216,-6.2589,-6.3397,-6.2935,-6.2332,-6.2139,-6.1408,-6.0781,-6.0781,-6.0781,-6.0781,-6.0781,-6.0222,-5.994,-6.0235,-5.9521,-5.9123,-5.9413,-6.0039,-6.0156,-5.9492,-6.0234,-6.0312,-5.9492,-6.0234,-6.0586,-6.039,-6.125,-6.1719,-6.1719,-6.1719,-6.125,-6.039,-6.039,-6.0078,-5.9492,-6.0312,-6.0664,-6.0625,-5.9805,-5.957,-5.9726,-5.9531,-5.9922,-6.0664,-6.0664,-6.1094,-6.1719,-6.1719,-6.1679,-6.1677,0.0,0.0,0.0,0.0,0.0,0.0,0.0,0.0,0.0,0.0,0.0,0.0,0.0,0.0,0.0,0.0,0.0,0.0,0.0,0.0,0.0,0.0,0.0,0.0,0.0,0.0,0.0,0.0,0.0,0.0,0.0,0.0,0.0,0.0,0.0,0.0,0.0,0.0,0.0,0.0,-7.2055,-7.2129,-7.2524,-7.2816,-7.3119,0.0,0.0,0.0,0.0,0.0,0.0,0.0,0.0,0.0,-7.434,-7.3706,-7.3168,0.0,0.0,0.0,0.0,-6.9937,0.0,-6.5436,-6.3705,-6.2974,-6.2781,-6.3205,-6.2666,-6.1985,-6.155,-6.1089,-6.0781,-6.0781,-6.0781,-6.0781,-6.0781,-6.0557,-6.0251,-6.0014,-5.9373,-5.8992,-5.9179,-5.9219,-5.9219,-5.9219,-5.9609,-5.9453,-5.8633,-5.9375,-5.9844,-5.9844,-6.0625,-6.1289,-6.1719,-6.1719,-6.125,-6.039,-6.0,-5.9375,-5.8594,-5.9453,-5.9844,-5.9765,-5.8945,-5.8828,-5.918,-5.875,-5.9297,-6.039,-6.039,-6.0937,-6.1719,-6.1719,-6.1719,-6.1719,0.0,0.0,0.0,0.0,0.0,0.0,0.0,0.0,0.0,0.0,0.0,0.0,0.0,0.0,0.0,0.0,0.0,0.0,0.0,0.0,0.0,0.0,0.0,0.0,0.0,0.0,0.0,0.0,0.0,0.0,0.0,0.0,0.0,0.0,0.0,0.0,0.0,0.0,0.0,0.0,0.0,0.0,0.0,0.0,0.0,0.0,0.0,0.0,-7.4464,-7.4547,0.0,0.0,0.0,0.0,-7.4788,-7.3605,-7.3283,0.0,0.0,0.0,-7.0514,-6.7975,-6.6821,0.0,-6.5243,-6.4359,-6.3705,-6.3551,-6.2743,-6.1831,-6.0973,-6.0781,-6.0781,-6.0781,-6.0781,-6.0742,-6.0589,-6.0704,-6.0514,-5.9637,-5.9051,-5.8788,-5.8945,-5.8476,-5.8359,-5.8945,-5.9101,-5.875,-5.7734,-5.8515,-5.8984,-5.8984,-5.9883,-6.0742,-6.1484,-6.1601,-6.1172,-6.0195,-5.9219,-5.8359,-5.7695,-5.8437,-5.8828,-5.8945,-5.8047,-5.8086,-5.8711,-5.8125,-5.8828,-6.0195,-6.0351,-6.0937,-6.1719,-6.1719,-6.1719,-6.1719,0.0,0.0,0.0,0.0,0.0,0.0,0.0,0.0,0.0,0.0,0.0,0.0,0.0,0.0,0.0,0.0,0.0,0.0,0.0,0.0,0.0,0.0,0.0,0.0,0.0,0.0,0.0,0.0,0.0,0.0,0.0,0.0,0.0,0.0,0.0,0.0,0.0,0.0,0.0,0.0,0.0,0.0,0.0,0.0,0.0,0.0,0.0,0.0,-7.5073,-7.5622,-7.5413,0.0,0.0,0.0,-7.4442,-7.2846,-7.236,0.0,0.0,0.0,-7.1398,0.0,-6.8167,-6.7859,0.0,0.0,-6.532,-6.4589,-6.3205,-6.1831,-6.0973,-6.0781,-6.0781,-6.0781,-6.0781,-6.055,-5.9781,-5.9196,-5.8583,-5.7842,-5.7166,-5.7125,-5.8008,-5.8633,-5.875,-5.8125,-5.8789,-5.8476,-5.6875,-5.7617,-5.8086,-5.8086,-5.9609,-6.0469,-6.0586,-6.1328,-6.0898,-5.9336,-5.7734,-5.6875,-5.6797,-5.6875,-5.7344,-5.8047,-5.7148,-5.6836,-5.6992,-5.7656,-5.8476,-5.9414,-6.0117,-6.0937,-6.1719,-6.1719,-6.1719,-6.1719,0.0,0.0,0.0,0.0,0.0,0.0,0.0,0.0,0.0,0.0,0.0,0.0,0.0,0.0,0.0,0.0,0.0,0.0,0.0,0.0,0.0,0.0,0.0,0.0,0.0,0.0,0.0,0.0,0.0,0.0,0.0,-6.9633,-6.9633,0.0,0.0,0.0,0.0,0.0,0.0,0.0,0.0,0.0,0.0,0.0,0.0,0.0,0.0,0.0,-7.4926,-7.5187,-7.5434,-7.5517,-7.4879,0.0,0.0,0.0,-7.2206,0.0,-7.1591,-7.1475,-7.1091,0.0,-6.9129,-6.8898,-6.8013,-6.7167,-6.6205,-6.4859,-6.3628,-6.2358,-6.105,-6.0781,-6.0781,-6.0781,-6.0781,-6.0684,-6.0393,-6.0187,-5.9601,-5.8382,-5.8085,-5.7963,-5.789,-5.7812,-5.7773,-5.789,-5.7812,-5.7422,-5.664,-5.6953,-5.7383,-5.789,-5.9101,-5.9726,-5.9726,-6.0547,-6.0117,-5.8476,-5.7695,-5.707,-5.6601,-5.6601,-5.6797,-5.7148,-5.6758,-5.6601,-5.668,-5.7539,-5.8398,-5.9297,-6.0078,-6.0937,-6.1719,-6.1719,-6.1719,-6.1719,0.0,0.0,0.0,0.0,0.0,0.0,0.0,0.0,0.0,0.0,0.0,0.0,0.0,0.0,0.0,0.0,0.0,0.0,0.0,0.0,0.0,0.0,0.0,0.0,0.0,0.0,0.0,0.0,0.0,0.0,-6.9449,-6.8678,-6.8311,0.0,-6.8715,0.0,0.0,0.0,0.0,0.0,0.0,0.0,0.0,0.0,0.0,0.0,0.0,-7.3206,-7.3822,-7.4245,-7.4822,-7.5207,-7.4361,-7.4053,0.0,0.0,0.0,0.0,0.0,0.0,-7.0744,-7.0167,-7.0167,-7.0167,0.0,0.0,-6.7898,-6.6244,-6.4859,-6.3435,-6.1743,-6.1089,-6.0781,-6.0781,-6.0811,-6.0815,-6.0708,-6.0871,-6.0399,-5.8799,-5.8779,-5.8594,-5.7969,-5.7305,-5.7187,-5.7851,-5.7305,-5.6836,-5.6601,-5.6601,-5.6914,-5.7539,-5.8633,-5.9101,-5.8867,-5.9453,-5.914,-5.789,-5.7695,-5.7344,-5.6914,-5.6914,-5.6914,-5.6914,-5.6719,-5.6719,-5.6992,-5.7851,-5.8711,-5.9609,-6.039,-6.1133,-6.1719,-6.1719,-6.1719,-6.1719,0.0,0.0,0.0,0.0,0.0,0.0,0.0,0.0,0.0,0.0,0.0,0.0,0.0,0.0,0.0,0.0,0.0,0.0,0.0,0.0,0.0,0.0,0.0,0.0,0.0,0.0,0.0,0.0,0.0,0.0,-6.7797,-6.699,-6.6623,-6.6696,-6.8238,-6.8495,-6.776,0.0,0.0,0.0,0.0,0.0,0.0,0.0,0.0,0.0,0.0,-7.1052,-7.136,-7.3014,-7.3577,-7.3476,-7.2591,-7.2322,-7.2129,0.0,0.0,0.0,0.0,-7.0321,0.0,-7.086,0.0,0.0,0.0,0.0,-7.1475,-6.9783,-6.7475,-6.5243,-6.3512,-6.1858,-6.0781,-6.0781,-6.0905,-6.0717,-5.996,-6.0072,-5.9625,-5.7952,-5.7882,-5.7969,-5.789,-5.7851,-5.7851,-5.789,-5.7851,-5.7461,-5.664,-5.6601,-5.6601,-5.668,-5.832,-5.8789,-5.7969,-5.8008,-5.8008,-5.789,-5.707,-5.707,-5.7812,-5.7812,-5.7812,-5.7773,-5.6953,-5.707,-5.789,-5.8789,-5.9609,-6.043,-6.1289,-6.164,-6.1719,-6.1719,-6.1719,-6.1719,0.0,0.0,0.0,0.0,0.0,0.0,0.0,0.0,0.0,0.0,0.0,0.0,0.0,0.0,0.0,0.0,0.0,0.0,0.0,0.0,0.0,0.0,0.0,0.0,0.0,0.0,0.0,0.0,0.0,-6.9522,-6.9192,-6.7871,-6.699,-6.6512,-6.71,-6.6916,-6.6145,-6.6145,0.0,0.0,0.0,0.0,0.0,0.0,0.0,-6.6128,-6.7282,-6.8398,-6.9398,-7.0014,-7.1321,-7.2514,-7.1629,-7.1745,-7.2014,-7.1168,-7.0898,0.0,0.0,0.0,0.0,-7.1591,-7.1975,-7.236,-7.2899,-7.2168,-7.0898,-6.9206,-6.7282,-6.5205,-6.2935,-6.1589,-6.0781,-6.0781,-6.0915,-6.0932,-6.0791,-6.091,-6.0427,-5.8858,-5.871,-5.8281,-5.7187,-5.707,-5.707,-5.707,-5.707,-5.6914,-5.6601,-5.6601,-5.6601,-5.6601,-5.7734,-5.8203,-5.789,-5.7344,-5.707,-5.707,-5.6758,-5.707,-5.789,-5.789,-5.789,-5.789,-5.7578,-5.7305,-5.7187,-5.8594,-5.9375,-5.9765,-6.1172,-6.1719,-6.1719,-6.1719,-6.1719,-6.1719,0.0,0.0,0.0,0.0,0.0,0.0,0.0,0.0,0.0,0.0,0.0,0.0,0.0,0.0,0.0,0.0,0.0,0.0,0.0,0.0,0.0,0.0,0.0,0.0,0.0,0.0,0.0,0.0,0.0,0.0,0.0,0.0,-6.7393,-6.688,-6.688,-6.6145,0.0,0.0,0.0,-6.5078,0.0,0.0,-6.4078,0.0,0.0,-6.3474,-6.4628,-6.5743,-6.6782,-6.7359,-6.8706,-7.0014,-6.9706,-7.0206,0.0,0.0,0.0,0.0,-7.0514,0.0,0.0,0.0,0.0,-7.2783,-7.336,-7.2822,-7.1706,-7.0014,-6.8129,-6.6051,-6.3794,-6.2216,-6.1162,-6.0916,-6.1,-6.1179,-6.1339,-6.1491,-6.0962,-5.9375,-5.9219,-5.8515,-5.6758,-5.6601,-5.6601,-5.6601,-5.6601,-5.6601,-5.6601,-5.6601,-5.6719,-5.7031,-5.7305,-5.7617,-5.789,-5.7031,-5.6601,-5.6601,-5.6601,-5.7226,-5.8359,-5.8359,-5.8359,-5.8359,-5.8359,-5.7851,-5.7148,-5.8594,-5.9375,-5.9726,-6.1133,-6.1719,-6.1719,-6.1719,-6.1719,-6.1719,0.0,0.0,0.0,0.0,0.0,0.0,0.0,0.0,0.0,0.0,0.0,0.0,0.0,0.0,0.0,0.0,0.0,0.0,0.0,0.0,0.0,0.0,0.0,0.0,0.0,0.0,0.0,0.0,0.0,0.0,0.0,0.0,-6.7687,0.0,-6.7677,-6.6329,-6.4177,0.0,-6.4778,-6.4591,0.0,-6.3032,-6.3497,0.0,-6.0781,-6.1012,-6.2627,-6.3231,-6.3512,-6.5205,-6.582,-6.6013,-6.6821,0.0,0.0,0.0,0.0,0.0,0.0,0.0,0.0,0.0,0.0,0.0,-7.3514,0.0,-7.4207,-7.2514,-7.0167,-6.7936,-6.6205,-6.3871,-6.1935,-6.1203,-6.1218,-6.1339,-6.1491,-6.163,-6.1094,-5.9414,-5.9258,-5.8555,-5.6836,-5.668,-5.668,-5.668,-5.668,-5.668,-5.668,-5.668,-5.7031,-5.7851,-5.707,-5.7031,-5.7851,-5.7031,-5.6601,-5.6601,-5.6601,-5.75,-5.9219,-5.9219,-5.9219,-5.9219,-5.9219,-5.8711,-5.7969,-5.8828,-5.9648,-6.0469,-6.1367,-6.1719,-6.1719,-6.1719,-6.1719,-6.1719,0.0,0.0,0.0,0.0,0.0,0.0,0.0,0.0,0.0,0.0,0.0,0.0,-7.077,-7.077,0.0,0.0,0.0,0.0,0.0,0.0,0.0,0.0,0.0,0.0,0.0,0.0,0.0,0.0,0.0,0.0,0.0,0.0,0.0,0.0,-6.71,-6.6145,-6.4971,-6.5113,0.0,-6.2944,-6.2259,-6.1999,0.0,0.0,-6.0781,-6.0858,-6.132,-6.1897,-6.2512,-6.2986,-6.3974,-6.5205,-6.6628,0.0,0.0,0.0,0.0,0.0,-7.0398,0.0,0.0,0.0,0.0,0.0,-7.3514,-7.3668,-7.336,-7.1629,-7.0244,-6.8629,-6.632,-6.4883,-6.3835,-6.3136,-6.2037,-6.1339,-6.1491,-6.163,-6.1289,-6.0195,-6.0078,-5.9648,-5.8594,-5.8476,-5.8476,-5.8476,-5.8476,-5.8476,-5.8476,-5.8476,-5.8281,-5.789,-5.7656,-5.7344,-5.6953,-5.6719,-5.6601,-5.6601,-5.6601,-5.75,-5.9219,-5.9219,-5.9531,-6.0039,-5.9453,-5.8711,-5.7969,-5.8828,-5.9336,-5.9687,-6.1133,-6.1719,-6.1719,-6.1719,-6.1719,-6.1797,0.0,0.0,0.0,0.0,0.0,0.0,0.0,0.0,0.0,0.0,0.0,0.0,0.0,0.0,0.0,0.0,0.0,0.0,0.0,0.0,0.0,0.0,-7.1798,0.0,0.0,0.0,0.0,0.0,0.0,0.0,0.0,0.0,0.0,0.0,0.0,0.0,0.0,0.0,0.0,0.0,-6.2501,0.0,0.0,-6.1017,-6.0781,-6.0781,-6.0781,-6.1127,-6.1562,-6.1562,-6.2435,-6.3782,-6.5089,0.0,0.0,0.0,0.0,0.0,0.0,0.0,0.0,0.0,0.0,0.0,-7.3024,-7.3231,-7.3014,-7.1245,-7.0244,-6.9013,-6.6821,-6.6119,-6.5562,-6.4494,-6.3876,-6.3292,-6.2746,-6.2418,-6.1914,-6.1055,-6.0625,-6.0078,-5.9297,-5.9219,-5.9219,-5.9219,-5.9219,-5.9219,-5.9219,-5.9219,-5.8984,-5.8476,-5.8086,-5.7656,-5.7148,-5.6797,-5.6601,-5.6601,-5.6601,-5.7305,-5.8672,-5.9023,-5.9258,-5.9336,-5.9258,-5.8515,-5.7422,-5.8281,-5.8867,-5.9375,-6.1055,-6.1719,-6.1719,-6.1719,-6.1914,-6.2305,0.0,0.0,0.0,0.0,0.0,0.0,0.0,0.0,0.0,0.0,-6.9486,-6.9963,0.0,0.0,0.0,0.0,0.0,0.0,0.0,0.0,0.0,-7.2459,-7.2496,-7.2496,0.0,0.0,0.0,0.0,0.0,0.0,0.0,0.0,0.0,0.0,0.0,0.0,0.0,0.0,0.0,-6.3063,-6.3183,-6.2706,0.0,-6.1089,-6.0781,-6.0781,-6.0781,-6.0781,-6.0781,-6.0781,-6.1358,-6.2243,-6.3051,-6.3974,-6.5205,0.0,-6.8398,0.0,0.0,0.0,0.0,0.0,-7.286,0.0,-7.2395,-7.2885,-7.299,-7.1245,-7.0321,-6.9321,-6.7667,-6.7404,-6.6967,-6.5712,-6.6117,-6.61,-6.4648,-6.3789,-6.2969,-6.2109,-6.1289,-6.0547,-5.9844,-5.9765,-5.9765,-5.9765,-5.9687,-5.9609,-5.9609,-5.9531,-5.9414,-5.9336,-5.8476,-5.8047,-5.8047,-5.707,-5.664,-5.6758,-5.664,-5.707,-5.793,-5.8711,-5.8672,-5.8086,-5.875,-5.8164,-5.6797,-5.7578,-5.8398,-5.9375,-6.0937,-6.1601,-6.1719,-6.1719,-6.2265,-6.3008,0.0,0.0,0.0,0.0,0.0,0.0,0.0,0.0,0.0,0.0,0.0,0.0,0.0,0.0,0.0,0.0,0.0,0.0,0.0,0.0,-7.0991,-7.2459,-7.2496,-7.2496,-7.2496,0.0,0.0,0.0,0.0,0.0,0.0,0.0,0.0,0.0,0.0,0.0,0.0,0.0,0.0,-6.2709,-6.2727,-6.2065,-6.105,-6.0858,-6.0781,-6.0781,-6.0781,-6.0781,-6.0781,-6.0781,-6.1358,-6.2243,-6.3051,-6.4397,-6.5859,-6.7013,0.0,0.0,0.0,0.0,0.0,-7.1975,-7.286,0.0,-7.2385,-7.286,-7.3014,-7.1245,-7.0783,-7.036,-6.936,-6.822,-6.7494,-6.7861,-6.7169,-6.6292,-6.5468,-6.5195,-6.4765,-6.3906,-6.3633,-6.3476,-6.332,-6.3281,-6.3281,-6.3281,-6.2656,-6.2265,-6.2265,-6.1601,-6.0898,-6.0195,-5.9375,-5.8945,-5.8945,-5.7383,-5.6953,-5.7656,-5.6953,-5.707,-5.789,-5.8086,-5.8437,-5.8906,-5.8398,-5.7969,-5.7656,-5.7812,-5.8398,-5.9297,-6.0273,-6.1094,-6.1719,-6.1719,-6.2265,-6.3086,0.0,0.0,0.0,0.0,0.0,0.0,0.0,0.0,0.0,0.0,0.0,0.0,0.0,0.0,0.0,0.0,0.0,0.0,0.0,0.0,-7.0036,-7.1248,-7.1688,-7.1725,-7.1321,-7.2092,0.0,0.0,0.0,0.0,0.0,0.0,0.0,0.0,0.0,0.0,0.0,0.0,-6.3923,-6.3192,-6.3002,0.0,-6.0781,-6.0781,-6.0781,-6.0781,-6.0781,-6.0781,-6.0781,-6.0781,-6.1089,-6.1666,-6.2897,-6.3897,-6.4936,-6.659,-6.8013,-6.9167,0.0,-7.0591,-7.1629,-7.2091,-7.3168,0.0,0.0,-7.3514,-7.3745,-7.2476,-7.186,-7.1283,-7.0437,-6.9726,-6.9314,-6.9412,-6.9234,-6.8906,-6.8241,-6.7422,-6.6719,-6.6289,-6.5859,-6.5586,-6.5586,-6.5586,-6.543,-6.4961,-6.375,-6.3008,-6.3008,-6.2187,-6.1484,-6.1055,-6.0234,-5.9805,-5.9805,-5.8086,-5.7461,-5.789,-5.7031,-5.6836,-5.7265,-5.7695,-5.789,-5.789,-5.789,-5.789,-5.789,-5.789,-5.8633,-5.9844,-6.0234,-6.0937,-6.1719,-6.1719,-6.2539,-6.3711,0.0,0.0,0.0,0.0,0.0,0.0,0.0,0.0,0.0,0.0,0.0,0.0,0.0,0.0,0.0,0.0,0.0,0.0,0.0,0.0,-6.8715,0.0,0.0,-7.0624,-6.9669,-7.1211,-7.1027,0.0,0.0,0.0,0.0,0.0,0.0,0.0,0.0,0.0,0.0,0.0,0.0,-6.3671,0.0,-6.2243,-6.1012,-6.0858,-6.0781,-6.0781,-6.0781,-6.0781,-6.0781,-6.0781,-6.0781,-6.105,-6.2589,-6.3281,-6.3935,-6.6013,-6.759,-6.8783,-6.9321,-7.0783,-7.2245,-7.2423,-7.3591,-7.4514,0.0,0.0,0.0,-7.3668,-7.2822,-7.1975,-7.1283,-7.1062,-7.0767,-7.0191,-7.0826,-7.1218,-7.0638,-6.9555,-6.8744,-6.8476,-6.7812,-6.7383,-6.7383,-6.7226,-6.6875,-6.6133,-6.4492,-6.3437,-6.3242,-6.2422,-6.1875,-6.1719,-6.0859,-6.0469,-6.0664,-5.8984,-5.8164,-5.8125,-5.7265,-5.6758,-5.6601,-5.7344,-5.7265,-5.664,-5.7344,-5.7734,-5.789,-5.789,-5.8906,-6.039,-6.039,-6.0937,-6.1719,-6.1719,-6.2695,-6.4062,-6.7393,-6.6476,0.0,0.0,0.0,0.0,0.0,0.0,0.0,0.0,0.0,0.0,0.0,0.0,0.0,0.0,0.0,0.0,-6.5632,-6.6366,0.0,0.0,0.0,-6.9522,-6.8008,-6.9559,-6.9889,-6.8898,0.0,0.0,0.0,0.0,0.0,0.0,-6.2988,0.0,0.0,0.0,-6.3035,0.0,-6.2538,-6.2139,0.0,-6.1089,-6.0781,-6.0781,-6.0781,-6.0781,-6.0781,-6.0781,-6.0781,-6.0973,-6.1947,-6.3243,-6.4512,-6.4782,-6.709,-6.9398,-6.8744,-7.036,-7.2399,-7.3168,-7.4053,-7.4668,-7.4591,0.0,-7.4476,-7.3668,0.0,-7.2168,-7.2052,0.0,0.0,-6.9784,-7.0106,-7.0272,-7.0024,-7.0664,-7.0697,-6.9491,-6.9258,-6.918,-6.9101,-6.8476,-6.8008,-6.789,-6.6289,-6.4961,-6.418,-6.332,-6.25,-6.1719,-6.0859,-6.0781,-6.1523,-5.9883,-5.9062,-5.9023,-5.8164,-5.7344,-5.6601,-5.6719,-5.668,-5.6601,-5.6719,-5.7187,-5.789,-5.789,-5.8906,-6.039,-6.039,-6.0937,-6.1719,-6.1719,-6.2305,-6.3242,-6.6817,-6.6072,0.0,0.0,0.0,0.0,0.0,0.0,0.0,0.0,0.0,0.0,0.0,-6.5925,-6.5154,0.0,-6.3282,-6.3649,-6.3833,-6.5081,0.0,0.0,-6.8128,-6.8862,-6.7724,-6.9265,-6.9486,-6.8201,-6.8678,0.0,0.0,0.0,0.0,0.0,-6.2613,0.0,-6.2935,0.0,-6.2863,0.0,0.0,-6.2101,-6.1985,-6.1127,-6.0781,-6.0781,-6.0781,-6.0473,-6.0127,-6.0627,-6.0473,-6.0281,-6.1678,-6.2589,-6.3243,-6.3705,-6.559,-6.7513,-6.7628,-6.986,-7.2283,-7.2629,-7.3745,-7.4591,-7.413,-7.363,-7.3283,-7.3476,0.0,0.0,0.0,0.0,0.0,0.0,-7.1435,-7.1353,-7.0882,-7.124,-7.1303,-7.0715,-7.0306,-7.0105,-7.0156,-6.9375,-6.8906,-6.8945,-6.6875,-6.5234,-6.4336,-6.3476,-6.2617,-6.1719,-6.1367,-6.1328,-6.1719,-6.0508,-5.9883,-5.9883,-5.8555,-5.7695,-5.7344,-5.6836,-5.6875,-5.7344,-5.7344,-5.8125,-5.9336,-5.9336,-6.0078,-6.1133,-6.1133,-6.1367,-6.1719,-6.1719,-6.2578,-6.3828,0.0,0.0,0.0,0.0,0.0,0.0,0.0,0.0,0.0,0.0,0.0,0.0,-6.4787,-6.4751,-6.4016,-6.1973,-6.2181,-6.2254,-6.1826,-6.3392,-6.409,-6.3649,-6.6402,-6.732,-6.6035,-6.8054,-6.8531,0.0,0.0,0.0,0.0,0.0,0.0,0.0,0.0,-6.2482,-6.2394,0.0,-6.2653,-6.2897,-6.205,-6.1601,-6.1331,-6.0935,-6.0666,-6.0473,-6.0704,-6.0242,-5.9588,-6.0242,-6.0012,-5.9704,-6.0973,-6.1716,-6.2216,0.0,0.0,0.0,-6.6551,-6.8898,-7.1206,-7.1475,-7.2591,-7.3591,-7.3206,-7.2476,-7.2168,-7.3283,-7.2822,0.0,0.0,0.0,0.0,0.0,0.0,-7.223,-7.1452,-7.1353,-7.1381,-7.1536,-7.0965,-7.0604,-7.0703,-6.9726,-6.8984,-6.8789,-6.7031,-6.5351,-6.4023,-6.3555,-6.2851,-6.1758,-6.1719,-6.1719,-6.1719,-6.1055,-6.0625,-6.039,-5.918,-5.8359,-5.789,-5.7226,-5.7187,-5.7578,-5.7812,-5.8711,-6.0078,-6.0312,-6.0898,-6.1719,-6.1719,-6.1719,-6.1719,-6.1953,-6.2851,-6.4062,-6.5462,-6.5186,0.0,0.0,0.0,0.0,0.0,0.0,0.0,-6.5602,-6.5112,-6.4364,-6.3038,-6.152,-6.0272,-5.9368,-5.8621,-5.851,-5.9258,-6.0823,-6.1006,-5.9441,-6.3257,-6.4273,-6.1851,-6.4971,-6.6586,0.0,0.0,0.0,0.0,0.0,0.0,0.0,-6.3215,-6.332,-6.3688,-6.258,-6.2127,-6.2062,-6.1166,-6.0319,-5.9665,-6.0473,-6.0281,-5.9665,-6.0512,-6.0242,-5.9511,-5.9511,-5.9511,-5.9511,-5.9588,-6.0742,-6.2101,-6.2139,-6.332,-6.482,-6.5705,-6.7205,-6.8744,-6.959,-7.0398,-7.1245,-7.2052,-7.1552,-7.1437,-7.3168,-7.2822,-7.2476,-7.336,0.0,0.0,0.0,0.0,0.0,0.0,-7.0939,-7.1087,-7.1612,-7.108,-7.0703,-7.0703,-6.9219,-6.789,-6.7031,-6.6914,-6.5742,-6.3164,-6.3828,-6.3476,-6.1758,-6.1719,-6.1719,-6.1719,-6.168,-6.1211,-6.039,-6.0351,-5.9453,-5.789,-5.7851,-5.7422,-5.668,-5.7539,-5.8398,-5.9297,-6.0078,-6.0898,-6.1719,-6.1719,-6.1719,-6.1797,-6.2656,-6.3008,-6.3398,0.0,0.0,0.0,0.0,0.0,0.0,0.0,-6.5403,-6.5531,-6.4621,-6.4692,-6.3868,-6.1483,-6.119,-6.0456,-5.8584,-5.8657,-5.8694,-5.8437,-5.9905,-6.0566,-6.0015,-6.234,-6.3539,-6.3246,-6.4347,-6.5154,-6.5705,-6.5705,0.0,0.0,0.0,0.0,0.0,0.0,-6.2845,0.0,0.0,0.0,0.0,-6.0281,-5.9435,-5.8819,-5.9627,-5.9742,-5.9473,-5.9242,-5.8973,-5.8704,-5.8704,-5.8319,-5.805,-5.9165,-5.9896,-6.0473,-6.105,-6.205,-6.3243,-6.4666,-6.6244,-6.759,-6.7898,-6.9052,-6.9898,-6.9013,-6.859,-6.8859,-7.0629,-7.0744,-7.1168,-7.3129,0.0,0.0,0.0,0.0,0.0,0.0,-7.1363,-7.0947,-7.0549,-7.0419,-7.0245,-6.9882,-6.832,-6.7226,-6.6914,-6.582,-6.4805,-6.3906,-6.3594,-6.3164,-6.2578,-6.1992,-6.1719,-6.1719,-6.1719,-6.1562,-6.125,-6.0664,-6.0117,-5.9531,-5.8984,-5.8906,-5.914,-5.9414,-6.0039,-6.0898,-6.1133,-6.1445,-6.1719,-6.1719,-6.1719,-6.1797,-6.2695,-6.3359,-6.4336,-6.5436,0.0,0.0,0.0,-6.4746,-6.4533,-6.4422,-6.4555,-6.4308,-6.3333,-6.3396,-6.274,-6.0638,-6.0603,-6.0015,-5.8143,-5.8474,-5.8437,-5.7629,-5.9098,-5.9869,-5.9575,-6.108,-6.2071,-6.2365,-6.2915,-6.3529,-6.423,-6.4081,-6.4058,0.0,0.0,0.0,0.0,0.0,-6.2947,-6.2787,-6.2029,-6.1358,0.0,0.0,-5.9011,-5.8319,-5.8511,-5.8588,-5.8588,-5.8357,-5.8088,-5.7857,-5.7857,-5.7473,-5.7253,-5.8627,-5.9281,-5.9665,-6.055,-6.1204,-6.1935,-6.332,-6.4512,-6.5397,-6.5667,-6.6627,-6.7304,-6.6423,-6.6067,-6.6488,-6.847,-6.9102,-7.0015,-7.2251,0.0,0.0,0.0,0.0,0.0,0.0,-7.1132,-7.0485,-6.9972,-6.9803,-6.9518,-6.8932,-6.7559,-6.65,-6.5969,-6.5149,-6.4406,-6.3781,-6.3554,-6.332,-6.3008,-6.2773,-6.2344,-6.1719,-6.1992,-6.1992,-6.168,-6.1133,-6.0703,-6.039,-5.9844,-5.9765,-6.0,-6.0273,-6.0703,-6.125,-6.1562,-6.1719,-6.1719,-6.1719,-6.1719,-6.1836,-6.3047,-6.4609,-6.6484,0.0,0.0,-6.4782,-6.5526,-6.6,-6.5962,-6.4961,-6.4489,-6.3643,-6.1763,-6.1308,-6.0942,-6.0344,-5.9551,-5.8744,-5.7997,-5.7886,-5.7556,-5.6859,-5.823,-5.8767,-5.8033,-5.9465,-5.9942,-5.9221,-6.0713,-6.1721,-6.2247,-6.1781,0.0,0.0,0.0,0.0,0.0,-6.4123,0.0,-6.3308,-6.3281,-6.232,-6.0781,-5.9819,-5.8973,-5.8204,-5.728,-5.6945,-5.706,-5.7857,-5.7665,-5.6983,-5.6945,-5.6945,-5.7099,-5.7973,-5.8781,-5.9627,-6.0473,-6.0781,-6.0973,-6.187,-6.2101,-6.2293,-6.3063,-6.3433,-6.3748,-6.4351,-6.4143,-6.4454,-6.6785,-6.7871,-6.8973,-7.0726,-7.2302,0.0,0.0,0.0,0.0,0.0,0.0,-6.9707,-6.9815,-6.929,-6.8622,-6.7968,-6.6912,-6.5683,-6.4193,-6.4746,-6.4476,-6.2956,-6.3743,-6.3906,-6.3164,-6.3906,-6.3515,-6.1836,-6.2617,-6.2578,-6.1758,-6.1719,-6.1289,-6.0469,-6.0469,-6.0039,-5.9375,-6.0117,-6.0469,-6.0547,-6.1367,-6.1719,-6.1719,-6.1719,-6.1758,-6.2031,-6.375,-6.6484,-6.9531,-6.3628,-6.383,-6.3657,-6.2578,-6.3784,-6.4575,-6.3487,-6.3089,-6.2401,-6.0906,-6.0478,-5.9887,-5.8727,-5.7923,-5.7336,-5.7152,-5.6565,-5.6381,-5.6785,-5.7189,-5.7593,-5.7997,-5.84,-5.8804,-5.9184,-5.9588,-6.0333,-6.139,-6.1298,0.0,-6.3389,0.0,0.0,0.0,0.0,0.0,-6.3281,-6.2666,-6.2166,-6.1601,-5.9473,-5.8473,-5.8127,-5.6626,-5.6011,-5.6049,-5.628,-5.6626,-5.6907,-5.6252,-5.6011,-5.6203,-5.7049,-5.7934,-5.8781,-5.9588,-6.0281,-6.0973,-6.187,-6.2101,-6.2186,-6.247,-6.3062,-6.3494,-6.313,-6.3429,-6.4176,-6.545,-6.5743,-6.6506,-6.8857,-7.0025,0.0,0.0,0.0,0.0,0.0,0.0,-6.9463,-6.886,-6.871,-6.8419,-6.7804,-6.5883,-6.4517,-6.4115,-6.3185,-6.3003,-6.3863,-6.3554,-6.3828,-6.4883,-6.4531,-6.4101,-6.3633,-6.3203,-6.289,-6.2656,-6.1992,-6.1562,-6.1367,-6.1367,-6.125,-6.1055,-6.1289,-6.1367,-6.1367,-6.1601,-6.1719,-6.1719,-6.1719,-6.25,-6.3789,-6.4844,-6.7031,-6.9531,-6.2704,-6.2779,-6.2444,-6.1399,-6.2208,-6.2704,-6.1886,-6.1315,-6.0706,-5.9989,-5.9124,-5.8289,-5.7565,-5.6748,-5.6124,-5.5794,-5.5647,-5.5794,-5.6235,-5.6602,-5.7152,-5.796,-5.7997,-5.8217,-5.8694,-5.8694,-5.9213,-6.0376,-6.0157,0.0,-6.3175,0.0,0.0,0.0,0.0,-6.2666,-6.2704,-6.1897,-6.1524,-6.1331,-5.9165,-5.8088,0.0,-5.6203,-5.5703,-5.5703,-5.5703,-5.6011,-5.6368,-5.5857,-5.5703,-5.5934,-5.7165,-5.7896,-5.855,-5.9704,-6.0435,-6.0896,-6.1408,-6.1524,-6.1559,-6.1636,-6.2111,-6.2455,-6.1942,-6.2334,-6.3044,-6.3901,-6.4178,-6.484,-6.6722,-6.7879,-6.9013,0.0,0.0,0.0,0.0,-6.8783,-6.8398,-6.7898,-6.7598,-6.7304,-6.6969,-6.538,-6.4271,-6.3926,-6.2754,-6.2649,-6.4018,-6.3744,-6.418,-6.5547,-6.5117,-6.4687,-6.4297,-6.3437,-6.3008,-6.3008,-6.2109,-6.1719,-6.1719,-6.1719,-6.1719,-6.1719,-6.1719,-6.1719,-6.1719,-6.1719,-6.1719,-6.1758,-6.2109,-6.3086,-6.4492,-6.6133,-6.789,-6.9609,-6.1607,-6.1454,-6.1119,-6.0828,-6.0864,-6.0766,-6.0184,-5.9575,-5.9184,-5.9184,-5.7863,-5.6932,-5.6822,-5.6088,-5.528,-5.4473,-5.495,-5.5354,-5.5574,-5.6235,-5.7042,-5.796,-5.8088,-5.8074,-5.8074,-5.8031,-5.85,-5.9475,-5.899,-6.0223,0.0,0.0,0.0,0.0,0.0,0.0,0.0,-6.1204,-6.0781,-6.0666,-5.8973,-5.778,-5.6907,-5.6011,-5.5703,-5.5703,-5.5703,-5.5703,-5.5703,-5.5703,-5.5703,-5.5972,-5.7473,-5.805,-5.8434,-6.0012,-6.055,-6.0666,-6.0781,-6.0781,-6.0793,-6.0839,-6.1036,-6.122,-6.1081,-6.1256,-6.1683,-6.2464,-6.2964,-6.3568,-6.4563,-6.5925,-6.7244,0.0,0.0,-6.8282,-6.8385,-6.7667,-6.7116,-6.7153,-6.6499,0.0,-6.5767,-6.508,-6.4366,-6.364,-6.2839,-6.2758,-6.3626,-6.4076,-6.4687,-6.5586,-6.5703,-6.5351,-6.4492,-6.3711,-6.3242,-6.3008,-6.2226,-6.1797,-6.1719,-6.1719,-6.1719,-6.1719,-6.1719,-6.1719,-6.1719,-6.1719,-6.1758,-6.1953,-6.2695,-6.3672,-6.4922,-6.7305,-6.8828,-6.9883,-5.9846,-6.0039,-5.9838,-5.877,-5.9113,-5.9288,-5.8534,-5.8877,-5.9184,-5.9184,-5.84,-5.7556,-5.6859,-5.6088,-5.528,-5.4473,-5.3922,-5.4179,-5.55,-5.5721,-5.6455,-5.7923,-5.8354,-5.857,-5.857,-5.8259,-5.871,-5.9962,-5.9163,-5.9984,-6.2281,0.0,0.0,0.0,0.0,0.0,-6.3012,-6.1435,0.0,-6.0666,-5.8973,-5.778,-5.6907,-5.6011,-5.5703,-5.5703,-5.5703,-5.5703,-5.5703,-5.5703,-5.5703,-5.5742,-5.6049,-5.6626,-5.7445,-5.8434,-5.9204,-5.9896,-6.0589,-6.0781,-6.085,-6.0925,-6.0997,-6.1097,-6.122,-6.1289,-6.1367,-6.1523,-6.1522,-6.1742,-6.2629,-6.4591,-6.6359,-6.7205,-6.7321,-6.759,-6.8321,-6.7667,-6.7164,-6.7325,-6.724,-6.6582,-6.5112,-6.429,-6.3737,-6.3621,-6.2402,-6.2067,-6.2928,-6.3817,-6.4687,-6.5586,-6.6289,-6.625,-6.539,-6.5234,-6.4414,-6.3008,-6.2851,-6.2383,-6.1719,-6.1719,-6.1719,-6.1719,-6.1719,-6.1719,-6.1719,-6.1719,-6.2109,-6.2773,-6.293,-6.4414,-6.6601,-6.7773,-6.918,-7.0742,-5.945,-5.9328,-5.9011,-5.8148,-5.8327,-5.8437,-5.807,-5.8327,-5.8437,-5.801,-5.7262,-5.6455,-5.5647,-5.484,-5.4216,-5.3812,-5.3445,-5.3702,-5.4913,-5.4987,-5.5595,-5.6995,-5.7286,-5.7507,-5.7753,-5.7574,-5.81,-5.9417,-5.9021,-5.9917,-6.2101,0.0,0.0,0.0,0.0,-6.1897,0.0,0.0,-6.0281,-5.9435,-5.8627,-5.7511,-5.6291,-5.5857,-5.5703,-5.5703,-5.5703,-5.5703,-5.5703,-5.5703,-5.5703,-5.5857,-5.6742,-5.7357,-5.7934,-5.9204,-5.9858,-6.0281,-6.0704,-6.0509,-6.0228,-6.0228,-5.999,-5.9943,-6.0499,-6.0633,-6.0794,-6.1374,-6.1238,-6.1232,-6.2063,-6.319,-6.442,-6.5615,-6.5878,-6.6194,-6.7,-6.6815,-6.646,-6.608,-6.6061,-6.5574,-6.4404,-6.339,-6.2856,-6.2906,-6.1965,-6.1803,-6.2753,-6.3742,-6.4492,-6.4922,-6.5781,-6.6015,-6.5586,-6.5156,-6.4492,-6.3672,-6.3203,-6.2539,-6.1719,-6.1719,-6.1719,-6.1719,-6.1719,-6.1719,-6.1758,-6.2187,-6.2617,-6.3086,-6.3984,-6.539,-6.707,-6.8359,-6.9922,-7.1562,-5.9454,-5.9009,-5.8549,-5.8074,-5.7997,-5.7997,-5.7997,-5.7997,-5.7703,-5.6932,-5.6235,-5.5464,-5.4509,-5.3849,-5.3408,-5.3203,-5.3203,-5.3555,-5.4363,-5.4399,-5.4928,-5.6139,-5.6312,-5.6554,-5.7057,-5.6964,-5.7483,-5.8689,-5.8689,-5.9677,-6.1562,0.0,0.0,0.0,0.0,0.0,-6.2024,-6.0973,-5.9742,-5.8511,-5.8165,-5.7203,-5.5972,-5.578,-5.5703,-5.5703,-5.5703,-5.5703,-5.5703,-5.5703,-5.5703,-5.5934,-5.7319,-5.7742,-5.8088,-5.9781,-6.0281,-6.0319,-6.0473,-6.01,-5.9582,-5.9298,-5.8952,-5.8784,-5.9529,-5.9782,-6.0161,-6.1143,-6.1178,-6.1157,-6.1736,-6.2092,-6.2723,-6.4099,-6.4602,-6.5072,-6.5793,-6.5997,-6.5731,-6.489,-6.4774,-6.4423,-6.3578,-6.2626,-6.2062,-6.2016,-6.1575,-6.165,-6.245,-6.3465,-6.4023,-6.4023,-6.5039,-6.5508,-6.5312,-6.5,-6.4687,-6.4297,-6.3789,-6.3008,-6.1992,-6.1992,-6.1875,-6.1719,-6.1914,-6.1992,-6.2031,-6.2734,-6.3125,-6.3437,-6.5195,-6.6523,-6.7617,-6.914,-7.0781,-7.2383,-5.9324,-5.9009,-5.8549,-5.8074,-5.7997,-5.7997,-5.7997,-5.7997,-5.7703,-5.6932,-5.6748,-5.6124,-5.4583,-5.4326,-5.3995,-5.324,-5.3203,-5.3555,-5.4363,-5.4399,-5.4928,-5.6139,-5.6626,-5.7052,-5.7539,-5.7187,-5.7443,-5.835,-5.835,-5.8823,-5.9742,-6.0473,-6.1281,0.0,-6.1166,-6.1293,-6.1985,-6.0319,-5.9511,-5.9242,-5.7742,-5.7022,-5.6791,-5.6011,-5.5703,-5.5703,-5.5703,-5.5703,-5.5703,-5.5703,-5.5703,-5.5742,-5.5895,-5.5934,-5.628,-5.8011,-5.855,-5.8704,-5.9435,-5.9573,-5.9353,-5.8588,-5.8363,-5.8382,-5.857,-5.9109,-5.9669,-6.0053,-6.0621,-6.0963,-6.0916,-6.1667,-6.2569,-6.3291,-6.4215,-6.5072,-6.5793,-6.5923,-6.5631,-6.488,-6.4696,-6.4073,-6.2573,-6.2225,-6.1841,-6.1173,-6.1232,-6.1334,-6.1423,-6.2512,-6.3125,-6.3125,-6.4726,-6.5234,-6.4414,-6.5898,-6.5859,-6.4297,-6.5039,-6.4492,-6.289,-6.289,-6.2461,-6.1758,-6.2539,-6.289,-6.289,-6.2969,-6.3476,-6.4336,-6.6094,-6.7773,-6.9375,-7.0234,-7.168,-7.3203,-5.9348,-5.8796,-5.8216,-5.8042,-5.7593,-5.7299,-5.7299,-5.6859,-5.6271,-5.5464,-5.5794,-5.5464,-5.3849,-5.3702,-5.3555,-5.3203,-5.3203,-5.3314,-5.3665,-5.3702,-5.4006,-5.4726,-5.5215,-5.5655,-5.6085,-5.5938,-5.6281,-5.7162,-5.7357,-5.8058,-5.9153,-5.9995,-6.0444,-6.0512,-5.9665,-5.9473,-5.9781,-5.9088,-5.8473,-5.7934,-5.7291,-5.6983,-5.6907,-5.6011,-5.6011,-5.6406,-5.5895,-5.5703,-5.5703,-5.5703,-5.5703,-5.578,-5.6329,-5.6483,-5.6703,-5.7934,-5.8319,-5.8357,-5.8704,-5.8477,-5.8018,-5.7632,-5.7293,-5.7172,-5.7605,-5.8396,-5.9211,-5.9865,-6.0529,-6.0963,-6.08,-6.0866,-6.1299,-6.25,-6.32,-6.3987,-6.51,-6.586,-6.5775,-6.4364,-6.4245,-6.3681,-6.2095,-6.1655,-6.1378,-6.1172,-6.115,-6.1227,-6.14,-6.2845,-6.3232,-6.2265,-6.4922,-6.5703,-6.4297,-6.6015,-6.6289,-6.5078,-6.543,-6.4961,-6.3789,-6.3789,-6.3594,-6.3281,-6.3633,-6.3789,-6.3828,-6.4336,-6.5078,-6.5976,-6.7187,-6.8711,-7.0312,-7.1172,-7.2578,-7.414,-5.9192,-5.8673,-5.809,-5.7689,-5.7373,-5.7005,-5.6528,-5.6161,-5.5574,-5.4546,-5.4876,-5.473,-5.3371,-5.3203,-5.3093,-5.2858,-5.3078,-5.3004,-5.2527,-5.2711,-5.3031,-5.3442,-5.3761,-5.4236,-5.4905,-5.4905,-5.5223,-5.5846,-5.6343,-5.7103,-5.8186,-5.9123,-5.9409,-5.9127,-5.855,-5.8319,-5.828,-5.805,-5.7703,-5.7319,-5.683,-5.6907,-5.728,-5.6395,-5.6483,-5.6907,-5.6291,-5.5934,-5.5703,-5.5703,-5.5703,-5.5818,-5.6406,-5.6637,-5.6791,-5.7665,-5.7934,-5.7934,-5.7934,-5.7533,-5.7052,-5.6718,-5.6334,-5.6262,-5.7032,-5.7932,-5.8884,-6.0017,-6.0638,-6.0963,-6.08,-6.0342,-6.0311,-6.1354,-6.201,-6.2668,-6.355,-6.4896,-6.5163,-6.3553,-6.3492,-6.3007,-6.1629,-6.1175,-6.1065,-6.1207,-6.1143,-6.1175,-6.1417,-6.292,-6.3268,-6.2109,-6.4961,-6.5937,-6.4687,-6.6172,-6.6601,-6.5976,-6.5976,-6.5547,-6.4687,-6.4414,-6.4453,-6.4687,-6.4414,-6.4453,-6.4726,-6.5351,-6.6094,-6.6992,-6.8125,-6.9453,-7.0859,-7.1953,-7.332,-7.4687,-5.8744,-5.8713,-5.8269,-5.7022,-5.7446,-5.7446,-5.5868,-5.6271,-5.6235,-5.462,-5.4399,-5.4106,-5.3277,-5.3203,-5.2894,-5.2087,-5.2747,-5.2527,-5.0949,-5.1573,-5.2203,-5.2603,-5.2639,-5.3225,-5.4484,-5.45,-5.45,-5.4538,-5.533,-5.5981,-5.6469,-5.7719,-5.8308,-5.8319,-5.8319,-5.8319,-5.8242,-5.7357,-5.7511,-5.8127,-5.6395,-5.6742,-5.8204,-5.733,-5.6983,-5.6983,-5.6983,-5.6445,-5.5703,-5.5703,-5.5703,-5.5703,-5.5703,-5.5703,-5.5895,-5.6753,-5.7022,-5.7022,-5.7022,-5.7022,-5.6791,-5.5934,-5.5714,-5.5979,-5.6949,-5.7786,-5.8792,-6.0446,-6.0905,-6.0963,-6.08,-6.0258,-5.9805,-5.974,-6.0628,-6.1266,-6.1074,-6.2672,-6.3468,-6.2448,-6.2305,-6.1965,-6.1092,-6.1006,-6.1006,-6.1006,-6.1193,-6.1283,-6.1289,-6.239,-6.3008,-6.2969,-6.4687,-6.5625,-6.5586,-6.6445,-6.6875,-6.6875,-6.6875,-6.6445,-6.5547,-6.4687,-6.4765,-6.5547,-6.4687,-6.4805,-6.5586,-6.5586,-6.6094,-6.707,-6.8828,-6.9961,-7.0898,-7.2656,-7.3828,-7.4609,-5.908,-5.8673,-5.7929,-5.6955,-5.6565,-5.6014,-5.495,-5.4546,-5.4179,-5.3665,-5.3592,-5.3482,-5.3203,-5.2711,-5.227,-5.2013,-5.172,-5.1353,-5.0839,-5.1059,-5.125,-5.1391,-5.1621,-5.2225,-5.3187,-5.3187,-5.3469,-5.4013,-5.4558,-5.5454,-5.6746,-5.7187,-5.7396,-5.7396,-5.678,-5.6511,-5.6511,-5.6242,-5.628,-5.6511,-5.656,-5.728,-5.8204,-5.7319,-5.7357,-5.7742,-5.6549,-5.5934,-5.5703,-5.5703,-5.5703,-5.5703,-5.5703,-5.5703,-5.5742,-5.6011,-5.6088,-5.6088,-5.6088,-5.6088,-5.6049,-5.578,-5.5769,-5.5902,-5.6126,-5.7268,-5.8781,-6.0435,-6.0823,-6.0856,-6.0804,-6.02,-5.9955,-6.0674,-6.1144,-6.1599,-6.2138,-6.3325,-6.3779,-6.2776,-6.2719,-6.2446,-6.1549,-6.1374,-6.133,-6.133,-6.14,-6.1693,-6.2282,-6.3232,-6.3777,-6.3867,-6.5586,-6.6211,-6.5625,-6.6445,-6.6914,-6.6914,-6.6914,-6.6758,-6.6484,-6.6211,-6.6211,-6.6484,-6.6172,-6.6211,-6.6484,-6.6484,-6.7305,-6.8672,-6.9219,-7.0312,-7.1797,-7.3555,-7.4375,-7.4765,-5.8896,-5.8285,-5.7299,-5.6492,-5.5941,-5.5207,-5.4106,-5.3775,-5.3555,-5.3261,-5.3203,-5.3203,-5.3203,-5.2491,-5.1867,-5.1573,-5.1096,-5.0545,-4.9921,-5.0178,-5.0362,-5.0362,-5.0582,-5.1232,-5.2344,-5.2381,-5.277,-5.3565,-5.4162,-5.506,-5.6231,-5.6433,-5.6522,-5.6483,-5.5934,-5.5703,-5.5703,-5.5703,-5.5895,-5.6214,-5.6406,-5.7396,-5.8627,-5.7434,-5.755,-5.8127,-5.6703,-5.5972,-5.5703,-5.5703,-5.5934,-5.6214,-5.6214,-5.6214,-5.6126,-5.578,-5.5703,-5.5703,-5.5703,-5.5703,-5.5703,-5.5703,-5.576,-5.5981,-5.6554,-5.7742,-5.9127,-6.0512,-6.055,-6.0315,-6.0376,-5.9485,-5.9111,-6.0204,-6.0453,-6.084,-6.1693,-6.2684,-6.3082,-6.2407,-6.2397,-6.2218,-6.1671,-6.1568,-6.1504,-6.1504,-6.1566,-6.2086,-6.3298,-6.3884,-6.4364,-6.4765,-6.6172,-6.664,-6.6094,-6.664,-6.6914,-6.6914,-6.6914,-6.6914,-6.6914,-6.6914,-6.6914,-6.6914,-6.6914,-6.6914,-6.6914,-6.6914,-6.789,-6.9414,-6.9414,-7.0664,-7.2656,-7.4062,-7.4805,-7.5273,-5.8229,-5.7571,-5.6455,-5.5647,-5.5522,-5.4987,-5.3445,-5.3849,-5.4069,-5.3298,-5.3203,-5.3203,-5.3203,-5.2491,-5.1683,-5.0949,-5.0839,-5.0141,-4.86,-4.9187,-4.961,-4.961,-4.9537,-5.0235,-5.1814,-5.1867,-5.2364,-5.323,-5.4121,-5.4731,-5.5121,-5.5493,-5.5703,-5.5703,-5.5703,-5.5703,-5.5703,-5.5703,-5.6175,-5.6868,-5.6165,-5.728,-5.9242,-5.7753,-5.7665,-5.828,-5.7396,-5.656,-5.5895,-5.5895,-5.6395,-5.7099,-5.7099,-5.706,-5.683,-5.6011,-5.5742,-5.5703,-5.5703,-5.5703,-5.5703,-5.5703,-5.5703,-5.6126,-5.7819,-5.8781,-5.9588,-6.0435,-5.9973,-5.9447,-5.958,-5.8347,-5.7681,-5.8819,-5.8928,-5.9204,-6.0104,-6.1006,-6.1559,-6.1442,-6.1473,-6.1512,-6.1512,-6.1512,-6.1512,-6.1512,-6.1633,-6.2461,-6.4219,-6.4297,-6.4726,-6.5664,-6.6484,-6.6914,-6.6914,-6.6914,-6.6914,-6.6914,-6.6914,-6.6914,-6.6914,-6.6914,-6.6914,-6.6914,-6.6914,-6.6914,-6.6914,-6.6914,-6.789,-6.9414,-6.9414,-7.1015,-7.3398,-7.4297,-7.5156,-7.6015,-5.6646,-5.6351,-5.5611,-5.4803,-5.4693,-5.4363,-5.3371,-5.3371,-5.3445,-5.3203,-5.3203,-5.3203,-5.3203,-5.2491,-5.1903,-5.172,-5.1169,-5.0618,-5.0251,-4.9811,-4.961,-4.961,-4.8967,-4.9114,-5.0161,-5.0765,-5.1922,-5.3644,-5.451,-5.5026,-5.5121,-5.5493,-5.5703,-5.5703,-5.5703,-5.5703,-5.5703,-5.5703,-5.5818,-5.6088,-5.7242,-5.805,-5.8627,-5.8819,-5.905,-5.9127,-5.828,-5.7857,-5.7665,-5.7665,-5.7819,-5.7973,-5.7973,-5.755,-5.6945,-5.6753,-5.6214,-5.5703,-5.5703,-5.5703,-5.5703,-5.5703,-5.5703,-5.5972,-5.7049,-5.7473,-5.7819,-5.8704,-5.8742,-5.8638,-5.8776,-5.8463,-5.8566,-5.9716,-5.9315,-5.9256,-6.0228,-6.0546,-6.0703,-6.0661,-6.1246,-6.1637,-6.1637,-6.1637,-6.1637,-6.1637,-6.1679,-6.2461,-6.4219,-6.4297,-6.5,-6.6523,-6.6797,-6.6914,-6.6914,-6.6914,-6.6914,-6.6914,-6.6914,-6.6914,-6.6914,-6.6914,-6.6914,-6.6914,-6.6914,-6.6914,-6.6914,-6.6914,-6.789,-6.9414,-6.9414,-7.1015,-7.3398,-7.4297,-7.5156,-7.6015,-5.6086,-5.5632,-5.4913,-5.4473,-5.4106,-5.3702,-5.3298,-5.3203,-5.3203,-5.3203,-5.3203,-5.3203,-5.3203,-5.2821,-5.2564,-5.2564,-5.1463,-5.0655,-5.0288,-4.9831,-4.9427,-4.9003,-4.8563,-4.871,-4.9574,-5.0191,-5.1581,-5.3801,-5.4254,-5.4804,-5.5387,-5.5599,-5.5703,-5.5703,-5.5703,-5.5703,-5.5703,-5.5703,-5.5934,-5.6329,-5.6896,-5.7819,-5.8819,-5.8473,-5.8819,-5.9396,-5.8588,-5.8319,-5.8319,-5.8319,-5.855,-5.8858,-5.8858,-5.828,-5.7588,-5.7588,-5.6703,-5.5703,-5.5703,-5.5972,-5.6291,-5.6291,-5.5972,-5.5934,-5.6791,-5.6983,-5.7253,-5.8127,-5.7973,-5.7752,-5.7886,-5.7661,-5.7812,-5.8868,-5.8716,-5.8778,-5.9726,-6.0156,-6.039,-6.039,-6.1172,-6.1719,-6.1719,-6.1719,-6.1719,-6.1719,-6.1719,-6.2461,-6.4219,-6.4297,-6.5117,-6.6836,-6.6914,-6.6914,-6.6914,-6.6484,-6.6523,-6.6914,-6.6484,-6.6523,-6.6914,-6.6914,-6.6914,-6.6914,-6.6914,-6.7148,-6.75,-6.75,-6.8476,-7.0,-7.0,-7.1601,-7.3945,-7.4414,-7.539,-7.6562,-5.5614,-5.4979,-5.4216,-5.4216,-5.3665,-5.3203,-5.3203,-5.3203,-5.3203,-5.3203,-5.3203,-5.3203,-5.3203,-5.3203,-5.3203,-5.3203,-5.183,-5.0692,-5.0014,-4.9721,-4.928,-4.8526,-4.8379,-4.8636,-4.939,-4.9932,-5.1387,-5.3798,-5.3887,-5.452,-5.5703,-5.5703,-5.5703,-5.5703,-5.5703,-5.5703,-5.5703,-5.5818,-5.6329,-5.6945,-5.6472,-5.755,-5.9358,-5.805,-5.8473,-5.9627,-5.8934,-5.8665,-5.8665,-5.8665,-5.9127,-5.9704,-5.9704,-5.905,-5.8319,-5.8319,-5.7165,-5.5857,-5.5742,-5.6252,-5.6791,-5.6791,-5.6252,-5.5895,-5.6637,-5.6791,-5.7022,-5.7742,-5.7319,-5.6837,-5.6996,-5.6544,-5.651,-5.7551,-5.7685,-5.8047,-5.9062,-5.9805,-6.0273,-6.039,-6.1172,-6.1719,-6.1719,-6.1719,-6.1758,-6.1875,-6.1914,-6.2656,-6.4414,-6.4492,-6.5234,-6.6836,-6.6914,-6.6836,-6.6719,-6.5859,-6.5859,-6.668,-6.5937,-6.6055,-6.6914,-6.6914,-6.6914,-6.6914,-6.7031,-6.7539,-6.8203,-6.832,-6.9297,-7.0703,-7.0859,-7.2422,-7.4609,-7.4765,-7.582,-7.7187,-5.3728,-5.3508,-5.3408,-5.3408,-5.3277,-5.3203,-5.3203,-5.3203,-5.3203,-5.3203,-5.3203,-5.3203,-5.3203,-5.3203,-5.3203,-5.3203,-5.2344,-5.1756,-5.1667,-5.0345,-4.9537,-4.939,-4.8673,-4.8379,-4.8489,-4.994,-5.1726,-5.3798,-5.4196,-5.4852,-5.5703,-5.5703,-5.5703,-5.5703,-5.5703,-5.5703,-5.5742,-5.6483,-5.6868,-5.7099,-5.8396,-5.9165,-5.955,-6.0012,-6.0358,-6.0589,-6.0473,-6.0396,-6.0396,-6.0396,-6.0473,-6.0589,-6.0589,-5.955,-5.8319,-5.8319,-5.7588,-5.6637,-5.5895,-5.578,-5.5895,-5.5895,-5.578,-5.5742,-5.5857,-5.5895,-5.5934,-5.6088,-5.6011,-5.5941,-5.6068,-5.6162,-5.651,-5.7551,-5.7176,-5.7344,-5.8984,-5.9297,-5.9648,-6.0312,-6.1172,-6.1719,-6.1719,-6.1719,-6.1992,-6.2734,-6.2812,-6.3555,-6.5312,-6.539,-6.5859,-6.6875,-6.6914,-6.6562,-6.582,-6.4922,-6.4922,-6.5781,-6.5664,-6.6055,-6.6914,-6.6914,-6.6914,-6.6953,-6.7695,-6.8086,-6.8242,-6.8945,-6.9805,-7.0781,-7.1523,-7.2969,-7.4687,-7.543,-7.6328,-7.7187,-5.3293,-5.3203,-5.3203,-5.3203,-5.3203,-5.3203,-5.3203,-5.3203,-5.3203,-5.3203,-5.3203,-5.3203,-5.3203,-5.3203,-5.3203,-5.3203,-5.2087,-5.1353,-5.1353,-5.0271,-4.939,-4.893,-4.8526,-4.8514,-4.8949,-4.991,-5.1193,-5.2794,-5.3437,-5.4241,-5.5049,-5.5511,-5.5703,-5.5703,-5.5703,-5.5703,-5.5742,-5.6637,-5.6983,-5.7099,-5.8357,-5.9127,-5.955,-5.9935,-6.0396,-6.0781,-6.0781,-6.0781,-6.0781,-6.0781,-6.0781,-6.0781,-6.0781,-5.9935,-5.8934,-5.8934,-5.8011,-5.7022,-5.7088,-5.6742,-5.6406,-5.6406,-5.6049,-5.5703,-5.5703,-5.5703,-5.5703,-5.5703,-5.5703,-5.5707,-5.5789,-5.6015,-5.6329,-5.6819,-5.6733,-5.6875,-5.7695,-5.8203,-5.8633,-5.9023,-6.0195,-6.1015,-6.1015,-6.1406,-6.1875,-6.2265,-6.2305,-6.3047,-6.4805,-6.4883,-6.5508,-6.6875,-6.6445,-6.6015,-6.5586,-6.4258,-6.4258,-6.5586,-6.5117,-6.5586,-6.6914,-6.6914,-6.7148,-6.7617,-6.8047,-6.8711,-6.957,-6.9961,-7.0625,-7.1445,-7.1836,-7.3086,-7.4648,-7.5039,-7.6055,-7.7187,-5.3314,-5.3203,-5.3203,-5.3203,-5.3203,-5.3203,-5.3203,-5.3203,-5.3203,-5.3203,-5.3203,-5.3203,-5.3203,-5.3203,-5.3203,-5.3203,-5.1903,-5.0986,-5.0802,-5.0031,-4.9206,-4.8343,-4.8383,-4.8813,-4.9617,-4.9936,-5.0799,-5.2192,-5.2856,-5.3741,-5.478,-5.5395,-5.5703,-5.5703,-5.5703,-5.5703,-5.578,-5.6857,-5.7291,-5.7396,-5.8434,-5.9242,-5.9819,-5.9819,-6.0204,-6.0781,-6.0781,-6.0781,-6.0781,-6.0781,-6.0781,-6.0781,-6.0781,-6.0204,-5.9473,-5.9281,-5.8165,-5.7137,-5.7819,-5.7511,-5.6983,-5.6983,-5.6522,-5.6049,-5.6242,-5.6165,-5.6049,-5.6242,-5.6126,-5.6011,-5.6011,-5.611,-5.6191,-5.6191,-5.6443,-5.668,-5.6875,-5.7461,-5.8047,-5.8437,-5.9609,-6.0469,-6.0664,-6.1328,-6.1797,-6.1992,-6.1992,-6.2656,-6.4219,-6.4297,-6.4922,-6.625,-6.5664,-6.5312,-6.5312,-6.3789,-6.3789,-6.5273,-6.4844,-6.539,-6.6914,-6.7109,-6.7578,-6.8203,-6.8594,-6.9492,-7.0742,-7.1133,-7.1562,-7.2031,-7.2461,-7.3281,-7.4336,-7.4765,-7.5742,-7.6914,-5.3359,-5.3203,-5.3203,-5.3203,-5.3203,-5.3203,-5.3203,-5.3203,-5.3203,-5.3203,-5.3203,-5.3203,-5.3203,-5.3203,-5.3203,-5.3203,-5.2417,-5.161,-5.0839,-5.0031,-4.9206,-4.8343,-4.8676,-4.9234,-5.0024,-5.0061,-5.1067,-5.3087,-5.3164,-5.4049,-5.5588,-5.5665,-5.5703,-5.5703,-5.5703,-5.5703,-5.5818,-5.7473,-5.8204,-5.8357,-5.9973,-6.0666,-6.0704,-6.0704,-6.0742,-6.0781,-6.0781,-6.0781,-6.0781,-6.0781,-6.0781,-6.0781,-6.0781,-6.0204,-5.9358,-5.8627,-5.7742,-5.7022,-5.7099,-5.706,-5.6983,-5.6983,-5.6945,-5.7137,-5.7934,-5.7473,-5.7137,-5.7934,-5.7473,-5.6907,-5.6907,-5.6536,-5.6191,-5.6191,-5.6443,-5.6875,-5.7695,-5.7851,-5.8476,-6.0039,-6.0312,-6.0703,-6.1523,-6.164,-6.2031,-6.2851,-6.289,-6.332,-6.4258,-6.4297,-6.4375,-6.4492,-6.4414,-6.4414,-6.4414,-6.3476,-6.3476,-6.4414,-6.5156,-6.5976,-6.6914,-6.7734,-6.8125,-6.8281,-6.9844,-7.0586,-7.082,-7.2422,-7.2656,-7.2148,-7.3789,-7.3984,-7.3594,-7.5195,-7.5898,-7.6094,-5.3359,-5.3203,-5.3203,-5.3203,-5.3203,-5.3203,-5.3203,-5.3203,-5.3203,-5.3203,-5.3203,-5.3203,-5.3203,-5.3203,-5.3203,-5.3203,-5.2454,-5.1867,-5.1573,-5.0345,-4.9304,-4.8713,-4.9043,-4.9759,-5.0836,-5.1101,-5.1869,-5.3203,-5.3741,-5.4318,-5.4972,-5.5472,-5.5703,-5.5703,-5.5703,-5.6011,-5.6599,-5.778,-5.8588,-5.9165,-6.0319,-6.0781,-6.0781,-6.0781,-6.0781,-6.0781,-6.0781,-6.0781,-6.0781,-6.0781,-6.0781,-6.0781,-6.0781,-6.055,-6.0127,-5.9281,-5.8819,-5.8434,-5.7934,-5.7819,-5.7819,-5.7819,-5.7819,-5.7742,-5.755,-5.7253,-5.6945,-5.6742,-5.6434,-5.6214,-5.6214,-5.6188,-5.6191,-5.6191,-5.6443,-5.6719,-5.7031,-5.7109,-5.7539,-5.8711,-5.9336,-5.9961,-6.082,-6.1367,-6.207,-6.293,-6.3008,-6.3633,-6.5039,-6.5625,-6.5664,-6.5117,-6.457,-6.4023,-6.3515,-6.3164,-6.3437,-6.4297,-6.5195,-6.6055,-6.6914,-6.7812,-6.8476,-6.9023,-7.0742,-7.1523,-7.1601,-7.2812,-7.2773,-7.207,-7.2734,-7.3125,-7.3398,-7.4023,-7.4961,-7.5937,-5.3359,-5.3203,-5.3203,-5.3203,-5.3203,-5.3203,-5.3203,-5.3203,-5.3203,-5.3203,-5.3203,-5.3203,-5.3203,-5.3203,-5.3203,-5.3203,-5.2711,-5.227,-5.2013,-5.0871,-4.9953,-4.9524,-4.9866,-5.0658,-5.187,-5.2186,-5.2741,-5.3626,-5.4203,-5.4626,-5.4895,-5.5434,-5.5703,-5.5703,-5.5972,-5.6445,-5.706,-5.8204,-5.9011,-5.9588,-6.0435,-6.0781,-6.0781,-6.0781,-6.0781,-6.0781,-6.0781,-6.0781,-6.0781,-6.0781,-6.0781,-6.0781,-6.0781,-6.0589,-6.0281,-5.9665,-5.9319,-5.905,-5.8781,-5.8665,-5.8665,-5.8665,-5.8665,-5.8511,-5.7934,-5.7599,-5.7242,-5.6626,-5.628,-5.6088,-5.6088,-5.6149,-5.6191,-5.6191,-5.6443,-5.6601,-5.6601,-5.6601,-5.7031,-5.8164,-5.8828,-5.9609,-6.0703,-6.1367,-6.207,-6.293,-6.3008,-6.3633,-6.5117,-6.5508,-6.539,-6.4805,-6.4219,-6.3594,-6.3008,-6.3281,-6.3984,-6.5117,-6.6015,-6.6875,-6.7695,-6.8594,-6.9297,-6.9883,-7.1367,-7.1992,-7.207,-7.293,-7.2773,-7.2031,-7.2305,-7.2617,-7.2969,-7.3515,-7.4297,-7.5195,-5.3359,-5.3188,-5.3203,-5.3188,-5.3225,-5.3203,-5.3203,-5.3203,-5.3203,-5.3203,-5.3203,-5.3203,-5.3203,-5.3203,-5.3203,-5.3203,-5.3203,-5.2858,-5.2071,-5.1658,-5.1241,-5.0839,-5.1127,-5.1909,-5.3192,-5.3203,-5.3626,-5.4511,-5.4511,-5.4934,-5.5703,-5.5703,-5.5703,-5.5742,-5.6599,-5.6983,-5.7137,-5.8781,-5.9511,-5.9588,-6.0435,-6.0781,-6.0781,-6.0781,-6.0781,-6.0781,-6.0781,-6.0781,-6.0781,-6.0781,-6.0781,-6.0781,-6.0781,-6.0204,-5.9511,-5.9511,-5.8934,-5.8511,-5.9281,-5.9511,-5.9511,-5.9511,-5.9511,-5.9511,-5.9473,-5.8858,-5.8319,-5.828,-5.7588,-5.6983,-5.6983,-5.6575,-5.6191,-5.6197,-5.6443,-5.6601,-5.6601,-5.6601,-5.7265,-5.8984,-5.9219,-5.9883,-6.1523,-6.1719,-6.207,-6.293,-6.3008,-6.3398,-6.4258,-6.3515,-6.3047,-6.3008,-6.3008,-6.3008,-6.3008,-6.3867,-6.5195,-6.6914,-6.7773,-6.8633,-6.9414,-7.0312,-7.0703,-7.0742,-7.164,-7.1992,-7.207,-7.293,-7.2773,-7.2109,-7.2969,-7.2773,-7.2226,-7.3945,-7.4023,-7.3672,-5.4173,-5.3622,-5.3293,-5.3565,-5.34,-5.3203,-5.3203,-5.3203,-5.3203,-5.3203,-5.3203,-5.3203,-5.3203,-5.3203,-5.3203,-5.3203,-5.3203,-5.2987,-5.2456,-5.2833,-5.3058,-5.2992,-5.2488,-5.28,-5.4077,-5.4126,-5.4511,-5.5318,-5.5318,-5.5472,-5.5703,-5.5703,-5.5703,-5.5742,-5.6599,-5.7319,-5.7973,-5.905,-5.9858,-6.0435,-6.0704,-6.0781,-6.0781,-6.0781,-6.0781,-6.0781,-6.0781,-6.0781,-6.0781,-6.0781,-6.0781,-6.0781,-6.0781,-6.0627,-6.0281,-5.9665,-5.9742,-5.9973,-5.9588,-5.9935,-6.0281,-5.9665,-5.9973,-6.0089,-5.8934,-5.8473,-5.8127,-5.7511,-5.6703,-5.6113,-5.6212,-5.6199,-5.6222,-5.6344,-5.6506,-5.6797,-5.7422,-5.75,-5.8125,-5.9844,-6.0039,-6.0469,-6.1601,-6.2265,-6.2969,-6.3867,-6.5039,-6.5859,-6.6094,-6.5898,-6.5469,-6.4844,-6.4805,-6.4805,-6.4805,-6.5078,-6.5469,-6.6015,-6.75,-6.832,-6.8594,-7.0039,-7.0703,-7.0781,-7.2265,-7.2578,-7.207,-7.293,-7.2773,-7.2031,-7.2305,-7.2226,-7.207,-7.2578,-7.3008,-7.3515,-5.4516,-5.3924,-5.3487,-5.3777,-5.3464,-5.3203,-5.3203,-5.3203,-5.3203,-5.3203,-5.3203,-5.3203,-5.3203,-5.3203,-5.3203,-5.3203,-5.3339,-5.3401,-5.3354,-5.3973,-5.4409,-5.4597,-5.4111,-5.4193,-5.4972,-5.4972,-5.5203,-5.5703,-5.5703,-5.5703,-5.5703,-5.5703,-5.5857,-5.6252,-5.7126,-5.7973,-5.8819,-5.9665,-6.0319,-6.0781,-6.0781,-6.0781,-6.0781,-6.0781,-6.0781,-6.0781,-6.0781,-6.0781,-6.0781,-6.0781,-6.0781,-6.0781,-6.0781,-6.0781,-6.0704,-6.0165,-6.0396,-6.0704,-6.0165,-6.0396,-6.0512,-5.9319,-5.9935,-6.0358,-5.8665,-5.855,-5.855,-5.7703,-5.6819,-5.6249,-5.6377,-5.6317,-5.6237,-5.6377,-5.6786,-5.7305,-5.7812,-5.8203,-5.8906,-6.0234,-6.039,-6.0898,-6.2109,-6.2695,-6.3515,-6.4726,-6.6094,-6.6914,-6.6914,-6.6562,-6.6133,-6.5625,-6.5586,-6.5586,-6.5586,-6.5937,-6.6445,-6.7109,-6.8164,-6.9023,-6.9726,-7.0742,-7.1211,-7.1289,-7.2344,-7.25,-7.2031,-7.2578,-7.2461,-7.1992,-7.1992,-7.1992,-7.2031,-7.2383,-7.2617,-7.3008,-5.4609,-5.4118,-5.3777,-5.3777,-5.3464,-5.3203,-5.3203,-5.3203,-5.3203,-5.3203,-5.3203,-5.3203,-5.3203,-5.3203,-5.3203,-5.3203,-5.3604,-5.4048,-5.4452,-5.4905,-5.5338,-5.5692,-5.5703,-5.5703,-5.5703,-5.5703,-5.5703,-5.5703,-5.5703,-5.5703,-5.5703,-5.578,-5.6252,-5.706,-5.7973,-5.8819,-5.955,-6.0435,-6.0781,-6.0781,-6.0781,-6.0781,-6.0781,-6.0781,-6.0781,-6.0781,-6.0781,-6.0781,-6.0781,-6.0781,-6.0781,-6.0781,-6.0781,-6.0781,-6.0781,-6.0781,-6.0781,-6.0781,-6.0781,-6.0781,-6.0396,-5.8819,-5.9627,-6.0358,-5.8665,-5.8858,-5.9204,-5.855,-5.7703,-5.7135,-5.719,-5.6777,-5.6432,-5.6494,-5.7373,-5.8047,-5.8125,-5.8828,-5.9609,-6.043,-6.0508,-6.1172,-6.2851,-6.3125,-6.3906,-6.5586,-6.6445,-6.6914,-6.6914,-6.6133,-6.5703,-6.5703,-6.5703,-6.5703,-6.5703,-6.6484,-6.7695,-6.9297,-6.9375,-7.0273,-7.1875,-7.1953,-7.1992,-7.1992,-7.1992,-7.1992,-7.1992,-7.1992,-7.1992,-7.1992,-7.1992,-7.1992,-7.2109,-7.289,-7.2695,-7.2344,-5.4919,-5.4083,-5.3424,-5.3758,-5.3464,-5.3203,-5.3203,-5.3203,-5.3203,-5.3203,-5.3203,-5.3203,-5.3203,-5.3203,-5.3203,-5.3203,-5.3888,-5.4387,-5.4484,-5.5173,-5.5599,-5.5703,-5.5703,-5.5703,-5.5703,-5.5703,-5.5703,-5.5703,-5.5703,-5.5703,-5.5703,-5.6406,-5.683,-5.706,-5.855,-5.9358,-5.955,-6.0435,-6.0781,-6.0781,-6.0781,-6.0781,-6.0781,-6.0781,-6.0781,-6.0781,-6.0781,-6.0781,-6.0781,-6.0781,-6.0781,-6.0781,-6.0781,-6.0781,-6.0781,-6.0781,-6.0781,-6.0781,-6.0781,-6.0781,-6.055,-5.9511,-6.0012,-6.0358,-5.8665,-5.8434,-5.8704,-5.9165,-5.8588,-5.7867,-5.7306,-5.7715,-5.799,-5.7512,-5.8271,-5.914,-5.9765,-6.0039,-6.0469,-6.1328,-6.1406,-6.1836,-6.289,-6.4258,-6.5469,-6.6523,-6.6797,-6.6914,-6.6914,-6.6719,-6.6601,-6.6601,-6.6601,-6.6601,-6.6601,-6.6797,-6.7422,-6.8476,-6.914,-7.0,-7.1015,-7.168,-7.1992,-7.1992,-7.1992,-7.1992,-7.1992,-7.1992,-7.1992,-7.1992,-7.1992,-7.1992,-7.2031,-7.2226,-7.2148,-7.207,-5.5363,-5.4716,-5.4101,-5.4135,-5.3758,-5.3404,-5.3209,-5.3203,-5.3203,-5.3203,-5.3203,-5.3203,-5.3203,-5.3203,-5.3293,-5.3464,-5.4121,-5.4579,-5.476,-5.5375,-5.5703,-5.5703,-5.5703,-5.5703,-5.5703,-5.6088,-5.6126,-5.5703,-5.6126,-5.6329,-5.6329,-5.7203,-5.7819,-5.8242,-5.9127,-5.9742,-6.0165,-6.0589,-6.055,-6.0165,-6.0165,-6.0165,-6.0165,-6.0165,-6.0435,-6.0781,-6.0781,-6.0781,-6.0781,-6.0781,-6.0781,-6.0781,-6.0781,-6.0781,-6.0781,-6.0781,-6.0781,-6.0781,-6.0781,-6.0781,-6.0589,-5.9704,-5.9858,-5.9935,-5.9088,-5.9204,-5.9627,-6.0012,-5.9435,-5.8792,-5.8467,-5.8529,-5.8524,-5.8322,-5.9072,-5.9836,-6.0312,-6.0742,-6.1172,-6.164,-6.207,-6.2812,-6.4101,-6.543,-6.6406,-6.6875,-6.6914,-6.6914,-6.6914,-6.6914,-6.6914,-6.6914,-6.6914,-6.6914,-6.6914,-6.7305,-6.793,-6.8789,-6.9219,-7.0117,-7.1328,-7.1797,-7.1992,-7.1992,-7.1992,-7.1992,-7.1953,-7.1562,-7.1601,-7.1953,-7.1523,-7.164,-7.1992,-7.1992,-7.2539,-7.3164,-5.5599,-5.5262,-5.4876,-5.4547,-5.4118,-5.3683,-5.3359,-5.323,-5.3203,-5.3203,-5.3203,-5.3203,-5.3203,-5.3272,-5.3424,-5.3777,-5.4288,-5.4731,-5.5094,-5.547,-5.5703,-5.5703,-5.5703,-5.5703,-5.5703,-5.656,-5.6637,-5.5934,-5.6791,-5.7214,-5.7253,-5.8088,-5.8858,-5.9511,-5.9665,-6.0127,-6.0781,-6.0781,-6.0281,-5.9511,-5.9665,-5.9627,-5.9511,-5.9665,-6.0165,-6.0781,-6.0781,-6.0781,-6.0781,-6.0627,-6.0666,-6.0781,-6.0781,-6.0781,-6.0781,-6.0781,-6.0781,-6.0781,-6.0781,-6.0781,-6.0627,-5.9896,-5.9704,-5.9704,-5.9704,-6.0165,-6.0627,-6.0781,-6.0242,-5.9694,-5.9679,-5.9249,-5.8947,-5.9069,-5.9853,-6.0512,-6.0781,-6.1484,-6.1992,-6.2148,-6.289,-6.4023,-6.5469,-6.6406,-6.6914,-6.6914,-6.6914,-6.6914,-6.6914,-6.6914,-6.6914,-6.6914,-6.7031,-6.7109,-6.7109,-6.7969,-6.8828,-6.9609,-6.9609,-7.0469,-7.1992,-7.1992,-7.1992,-7.1992,-7.1992,-7.1992,-7.1914,-7.1055,-7.1211,-7.1914,-7.1055,-7.1211,-7.2031,-7.2187,-7.3125,-7.4297,-5.5186,-5.4848,-5.4547,-5.45,-5.4118,-5.3758,-5.3739,-5.3404,-5.3203,-5.3203,-5.3203,-5.3203,-5.3203,-5.3524,-5.3739,-5.3814,-5.4541,-5.5053,-5.5107,-5.547,-5.5703,-5.5703,-5.5703,-5.5703,-5.5703,-5.656,-5.6945,-5.683,-5.7703,-5.8127,-5.8127,-5.8973,-5.9396,-5.955,-6.0281,-6.0704,-6.0781,-6.0781,-6.0292,-5.9561,-6.0331,-6.0177,-5.9561,-6.0319,-6.0704,-6.0781,-6.0781,-6.0781,-6.0666,-5.9935,-6.0165,-6.0781,-6.0781,-6.0781,-6.0781,-6.0781,-6.0781,-6.0781,-6.0781,-6.0781,-6.0781,-6.0666,-6.0627,-6.0627,-6.0627,-6.0127,-5.9896,-6.0627,-6.0704,-6.0408,-5.9672,-6.0152,-6.046,-5.9938,-6.0676,-6.1644,-6.2538,-6.2734,-6.3086,-6.3867,-6.4726,-6.5351,-6.5586,-6.6406,-6.6914,-6.6914,-6.6914,-6.6914,-6.6914,-6.6914,-6.6914,-6.6914,-6.7617,-6.8008,-6.8008,-6.8828,-6.9687,-7.0508,-7.0508,-7.1055,-7.1992,-7.1992,-7.1992,-7.1992,-7.1992,-7.1992,-7.1914,-7.1055,-7.1211,-7.1914,-7.1055,-7.1211,-7.2109,-7.2851,-7.3281,-7.3555,-5.4848,-5.4969,-5.5107,-5.4862,-5.4686,-5.435,-5.3869,-5.3625,-5.3444,-5.3209,-5.3203,-5.3203,-5.3203,-5.3546,-5.4013,-5.4478,-5.4876,-5.5199,-5.5423,-5.5599,-5.5703,-5.5703,-5.5703,-5.5703,-5.5703,-5.7011,-5.7742,-5.7742,-5.855,-5.8973,-5.8973,-5.9819,-6.0242,-6.0242,-6.0627,-6.0781,-6.0781,-6.0781,-6.0281,-5.9523,-5.9935,-5.9819,-5.955,-5.9935,-6.0358,-6.0781,-6.0781,-6.0473,-6.0089,-6.0204,-6.0165,-6.0165,-6.0666,-6.0781,-6.0781,-6.0781,-6.0781,-6.0781,-6.0781,-6.0781,-6.0781,-6.0781,-6.0781,-6.0781,-6.0781,-6.0512,-6.0319,-6.0704,-6.0781,-6.0666,-6.0281,-6.0586,-6.0838,-6.0569,-6.1017,-6.1732,-6.2748,-6.2966,-6.3515,-6.4844,-6.5351,-6.5781,-6.6289,-6.668,-6.6914,-6.6914,-6.6914,-6.6914,-6.6914,-6.6914,-6.7109,-6.7617,-6.8008,-6.8437,-6.8867,-6.9726,-7.0312,-7.0703,-7.1172,-7.164,-7.1992,-7.1992,-7.1992,-7.1953,-7.1484,-7.1562,-7.1875,-7.0039,-7.0078,-7.1133,-6.9805,-7.0117,-7.1367,-7.2265,-7.289,-7.3437]},{"header":{"parameterUnit":"m.s-1","parameterCategory":1,"la1":30.6,"la2":28.766,"lo1":-90.7593,"lo2":-88.6598,"dx":0.0162,"dy":0.0183,"nx":116,"ny":114,"refTime":"2023-01-28T06:00:00:Z","depth":0,"parameterNumber":3,"parameterNumberName":"V-component_of_WINDS"},"data":[0.0,0.0,0.0,0.0,0.0,0.0,0.0,0.0,0.0,0.0,0.0,0.0,0.0,0.0,0.0,0.0,0.0,0.0,0.0,0.0,0.0,0.0,0.0,0.0,0.0,0.0,0.0,0.0,0.0,0.0,0.0,0.0,0.0,0.0,0.0,0.0,0.0,0.0,0.0,0.0,0.0,0.0,0.0,0.0,0.0,0.0,0.0,0.0,0.0,0.0,0.0,0.0,0.0,0.0,0.0,0.0,0.0,0.0,0.0,0.0,0.0,0.0,0.0,0.0,0.0,0.0,0.0,0.0,0.0,0.0,0.0,0.0,0.0,0.0,0.0,0.0,0.0,0.0,0.0,0.0,0.0,0.0,0.0,0.0,0.0,0.0,0.0,0.0,0.0,0.0,0.0,0.0,0.0,0.0,0.0,0.0,0.0,0.0,0.0,0.0,0.0,0.0,0.0,0.0,0.0,0.0,0.0,0.0,0.0,0.0,0.0,0.0,0.0,0.0,0.0,0.0,0.0,0.0,0.0,0.0,0.0,0.0,0.0,0.0,0.0,0.0,0.0,0.0,0.0,0.0,0.0,0.0,0.0,0.0,0.0,0.0,0.0,0.0,0.0,0.0,0.0,0.0,0.0,0.0,0.0,0.0,0.0,0.0,0.0,0.0,0.0,0.0,0.0,0.0,0.0,0.0,0.0,0.0,0.0,0.0,0.0,0.0,0.0,0.0,0.0,0.0,0.0,0.0,0.0,0.0,0.0,0.0,0.0,0.0,0.0,0.0,0.0,0.0,0.0,0.0,0.0,0.0,0.0,0.0,0.0,0.0,0.0,0.0,0.0,0.0,0.0,0.0,0.0,0.0,0.0,0.0,0.0,0.0,0.0,0.0,0.0,0.0,0.0,0.0,0.0,0.0,0.0,0.0,0.0,0.0,0.0,0.0,0.0,0.0,0.0,0.0,0.0,0.0,0.0,0.0,0.0,0.0,0.0,0.0,0.0,0.0,0.0,0.0,0.0,0.0,0.0,0.0,0.0,0.0,0.0,0.0,0.0,0.0,0.0,0.0,0.0,0.0,0.0,0.0,0.0,0.0,0.0,0.0,0.0,0.0,0.0,0.0,0.0,0.0,0.0,0.0,0.0,0.0,0.0,0.0,0.0,0.0,0.0,0.0,0.0,0.0,0.0,0.0,0.0,0.0,0.0,0.0,0.0,0.0,0.0,0.0,0.0,0.0,0.0,0.0,0.0,0.0,0.0,0.0,0.0,0.0,0.0,0.0,0.0,0.0,0.0,0.0,0.0,0.0,0.0,0.0,0.0,0.0,0.0,0.0,0.0,0.0,0.0,0.0,0.0,0.0,0.0,0.0,0.0,0.0,0.0,0.0,0.0,0.0,0.0,0.0,0.0,0.0,0.0,0.0,0.0,0.0,0.0,0.0,0.0,0.0,0.0,0.0,0.0,0.0,0.0,0.0,0.0,0.0,0.0,0.0,0.0,0.0,0.0,0.0,0.0,0.0,0.0,0.0,0.0,0.0,0.0,0.0,0.0,0.0,0.0,0.0,0.0,0.0,0.0,0.0,0.0,0.0,0.0,0.0,0.0,0.0,0.0,0.0,0.0,0.0,0.0,0.0,0.0,0.0,0.0,0.0,0.0,0.0,0.0,0.0,0.0,0.0,0.0,0.0,0.0,0.0,0.0,0.0,0.0,0.0,0.0,0.0,0.0,0.0,0.0,0.0,0.0,0.0,0.0,0.0,0.0,0.0,0.0,0.0,0.0,0.0,0.0,0.0,0.0,0.0,0.0,0.0,0.0,0.0,0.0,0.0,0.0,0.0,0.0,0.0,0.0,0.0,0.0,0.0,0.0,0.0,0.0,0.0,0.0,0.0,0.0,0.0,0.0,0.0,0.0,0.0,0.0,0.0,0.0,0.0,0.0,0.0,0.0,0.0,0.0,0.0,0.0,0.0,0.0,0.0,0.0,0.0,0.0,0.0,0.0,0.0,0.0,0.0,0.0,0.0,0.0,0.0,0.0,0.0,0.0,0.0,0.0,0.0,0.0,0.0,0.0,0.0,0.0,0.0,0.0,0.0,0.0,0.0,0.0,0.0,0.0,0.0,0.0,0.0,0.0,0.0,0.0,0.0,0.0,0.0,0.0,0.0,0.0,0.0,0.0,0.0,0.0,0.0,0.0,0.0,0.0,0.0,0.0,0.0,0.0,0.0,0.0,0.0,0.0,0.0,0.0,0.0,0.0,0.0,0.0,0.0,0.0,0.0,0.0,0.0,0.0,0.0,0.0,0.0,0.0,0.0,0.0,0.0,0.0,0.0,0.0,0.0,0.0,0.0,0.0,0.0,0.0,0.0,0.0,0.0,0.0,0.0,0.0,0.0,0.0,0.0,0.0,0.0,0.0,0.0,0.0,0.0,0.0,0.0,0.0,0.0,0.0,0.0,0.0,0.0,0.0,0.0,0.0,0.0,0.0,0.0,0.0,0.0,0.0,0.0,0.0,0.0,0.0,0.0,0.0,0.0,0.0,0.0,0.0,0.0,0.0,0.0,0.0,0.0,0.0,0.0,0.0,0.0,0.0,0.0,0.0,0.0,0.0,0.0,0.0,0.0,0.0,0.0,0.0,0.0,0.0,0.0,0.0,0.0,0.0,0.0,0.0,0.0,0.0,0.0,0.0,0.0,0.0,0.0,0.0,0.0,0.0,0.0,0.0,0.0,0.0,0.0,0.0,0.0,0.0,0.0,0.0,0.0,0.0,0.0,0.0,0.0,0.0,0.0,0.0,0.0,0.0,0.0,0.0,0.0,0.0,0.0,0.0,0.0,0.0,0.0,0.0,0.0,0.0,0.0,0.0,0.0,0.0,0.0,0.0,0.0,0.0,0.0,0.0,0.0,0.0,0.0,0.0,0.0,0.0,0.0,0.0,0.0,0.0,0.0,0.0,0.0,0.0,0.0,0.0,0.0,0.0,0.0,0.0,0.0,0.0,0.0,0.0,0.0,0.0,0.0,0.0,0.0,0.0,0.0,0.0,0.0,0.0,0.0,0.0,0.0,0.0,0.0,0.0,0.0,0.0,0.0,0.0,0.0,0.0,0.0,0.0,0.0,0.0,0.0,0.0,0.0,0.0,0.0,0.0,0.0,0.0,0.0,0.0,0.0,0.0,0.0,0.0,0.0,0.0,0.0,0.0,0.0,0.0,0.0,0.0,0.0,0.0,0.0,0.0,0.0,0.0,0.0,0.0,0.0,0.0,0.0,0.0,0.0,0.0,0.0,0.0,0.0,0.0,0.0,0.0,0.0,0.0,0.0,0.0,0.0,0.0,0.0,0.0,0.0,0.0,0.0,0.0,0.0,0.0,0.0,0.0,0.0,0.0,0.0,0.0,0.0,0.0,0.0,0.0,0.0,0.0,0.0,0.0,0.0,0.0,0.0,0.0,0.0,0.0,0.0,0.0,0.0,0.0,0.0,0.0,0.0,0.0,0.0,0.0,0.0,0.0,0.0,0.0,0.0,0.0,0.0,0.0,0.0,0.0,0.0,0.0,0.0,0.0,0.0,0.0,0.0,0.0,0.0,0.0,0.0,0.0,0.0,0.0,0.0,0.0,0.0,0.0,0.0,0.0,0.0,0.0,0.0,0.0,0.0,0.0,0.0,0.0,0.0,0.0,0.0,0.0,0.0,0.0,0.0,0.0,0.0,0.0,0.0,0.0,0.0,0.0,0.0,0.0,0.0,0.0,0.0,0.0,0.0,0.0,0.0,0.0,0.0,0.0,0.0,0.0,0.0,0.0,0.0,0.0,0.0,0.0,0.0,0.0,0.0,0.0,0.0,0.0,0.0,0.0,0.0,0.0,0.0,0.0,0.0,0.0,0.0,0.0,0.0,0.0,0.0,0.0,0.0,0.0,0.0,0.0,0.0,0.0,0.0,0.0,0.0,0.0,0.0,0.0,0.0,0.0,0.0,0.0,0.0,0.0,0.0,0.0,0.0,0.0,0.0,0.0,0.0,0.0,0.0,0.0,0.0,0.0,0.0,0.0,0.0,0.0,0.0,0.0,0.0,0.0,0.0,0.0,0.0,0.0,0.0,0.0,0.0,0.0,0.0,0.0,0.0,0.0,0.0,0.0,0.0,0.0,0.0,0.0,0.0,0.0,0.0,0.0,0.0,0.0,0.0,0.0,0.0,0.0,0.0,0.0,0.0,0.0,0.0,0.0,0.0,0.0,0.0,0.0,0.0,0.0,0.0,0.0,0.0,0.0,0.0,0.0,0.0,0.0,0.0,0.0,0.0,0.0,0.0,0.0,0.0,0.0,0.0,0.0,0.0,0.0,0.0,0.0,0.0,0.0,0.0,0.0,0.0,0.0,0.0,0.0,0.0,0.0,0.0,0.0,0.0,0.0,0.0,0.0,0.0,0.0,0.0,0.0,0.0,0.0,0.0,0.0,0.0,0.0,0.0,0.0,0.0,0.0,0.0,0.0,0.0,0.0,0.0,0.0,0.0,0.0,0.0,0.0,0.0,0.0,0.0,0.0,0.0,0.0,0.0,0.0,0.0,0.0,0.0,0.0,0.0,0.0,0.0,0.0,0.0,0.0,0.0,0.0,0.0,0.0,0.0,0.0,0.0,0.0,0.0,0.0,0.0,0.0,0.0,0.0,0.0,0.0,0.0,0.0,0.0,0.0,0.0,0.0,0.0,0.0,0.0,0.0,0.0,0.0,0.0,0.0,0.0,0.0,0.0,0.0,0.0,0.0,0.0,0.0,0.0,0.0,0.0,0.0,0.0,0.0,0.0,0.0,0.0,0.0,0.0,0.0,0.0,0.0,0.0,0.0,0.0,0.0,0.0,0.0,0.0,0.0,0.0,0.0,0.0,0.0,0.0,0.0,0.0,0.0,0.0,0.0,0.0,0.0,0.0,0.0,0.0,0.0,0.0,0.0,0.0,0.0,0.0,0.0,0.0,0.0,0.0,0.0,0.0,0.0,0.0,0.0,0.0,0.0,0.0,0.0,0.0,0.0,0.0,0.0,0.0,0.0,0.0,0.0,0.0,0.0,0.0,0.0,0.0,0.0,0.0,0.0,0.0,0.0,0.0,0.0,0.0,0.0,0.0,0.0,0.0,0.0,0.0,0.0,0.0,0.0,0.0,0.0,0.0,0.0,0.0,0.0,0.0,0.0,0.0,0.0,0.0,0.0,0.0,0.0,0.0,0.0,0.0,0.0,0.0,0.0,0.0,0.0,0.0,0.0,0.0,0.0,0.0,0.0,0.0,0.0,0.0,0.0,0.0,0.0,0.0,0.0,0.0,0.0,0.0,0.0,0.0,0.0,0.0,0.0,0.0,0.0,0.0,0.0,0.0,0.0,0.0,0.0,0.0,0.0,0.0,0.0,0.0,0.0,0.0,0.0,0.0,0.0,0.0,0.0,0.0,0.0,0.0,0.0,0.0,0.0,0.0,0.0,0.0,0.0,0.0,0.0,0.0,0.0,0.0,0.0,0.0,0.0,0.0,0.0,0.0,0.0,0.0,0.0,0.0,0.0,0.0,0.0,0.0,0.0,0.0,0.0,0.0,0.0,0.0,0.0,0.0,0.0,0.0,0.0,0.0,0.0,0.0,0.0,0.0,0.0,0.0,0.0,0.0,0.0,0.0,0.0,0.0,0.0,0.0,0.0,0.0,0.0,0.0,0.0,0.0,0.0,0.0,0.0,0.0,0.0,0.0,0.0,0.0,0.0,0.0,0.0,0.0,0.0,0.0,0.0,0.0,0.0,0.0,0.0,0.0,0.0,0.0,0.0,0.0,0.0,0.0,0.0,0.0,0.0,0.0,0.0,0.0,0.0,0.0,0.0,0.0,0.0,0.0,0.0,0.0,0.0,0.0,0.0,0.0,0.0,0.0,0.0,0.0,0.0,0.0,0.0,0.0,0.0,0.0,0.0,0.0,0.0,0.0,0.0,0.0,0.0,0.0,0.0,0.0,0.0,0.0,0.0,0.0,0.0,0.0,0.0,0.0,0.0,0.0,0.0,0.0,0.0,0.0,0.0,0.0,0.0,0.0,0.0,0.0,0.0,0.0,0.0,0.0,0.0,0.0,0.5567,0.4336,0.0,0.0,0.0,0.0,0.0,0.0,0.0,0.0,0.0,0.0,0.0,0.0,0.0,0.0,0.0,0.0,0.0,0.0,0.0,0.0,0.0,0.0,0.0,0.0,0.0,0.0,0.0,0.0,0.0,0.0,0.0,0.0,0.0,0.0,0.0,0.0,0.0,0.0,0.0,0.0,0.0,0.0,0.0,0.0,0.0,0.0,0.0,0.0,0.0,0.0,0.0,0.0,0.0,0.0,0.0,0.0,0.0,0.0,0.0,0.0,0.0,0.0,0.0,0.0,0.0,0.0,0.0,0.0,0.0,0.0,0.0,0.0,0.0,0.0,0.0,0.0,0.0,0.0,0.0,0.0,0.0,0.0,0.0,0.0,0.0,0.0,0.0,0.0,0.0,0.0,0.0,0.0,0.0,0.0,0.0,0.0,0.0,0.0,0.0,0.0,0.0,0.0,0.0,0.0,0.0,0.0,0.0,0.0,0.0,0.0,0.0,0.0,0.0,0.0,0.7038,0.6007,0.0,0.0,0.0,0.0,0.0,0.0,0.0,0.0,0.0,0.0,0.0,0.0,0.0,0.0,0.0,0.0,0.0,0.0,0.0,0.0,0.0,0.0,0.0,0.0,0.0,0.0,0.0,0.0,0.0,0.0,0.0,0.0,0.0,0.0,0.0,0.0,0.0,0.0,0.0,0.0,0.0,0.0,0.0,0.0,0.0,0.0,0.0,0.0,0.0,0.0,0.0,0.0,0.0,0.0,0.0,0.0,0.0,0.0,0.0,0.0,0.0,0.0,0.0,0.0,0.0,0.0,0.0,0.0,0.0,0.0,0.0,0.0,0.0,0.0,0.0,0.0,0.0,0.0,0.0,0.0,0.0,0.0,0.0,0.0,0.0,0.0,0.0,0.0,0.0,0.0,0.0,0.0,0.0,0.0,0.0,0.0,0.0,0.0,0.0,0.0,0.0,0.0,0.0,0.0,0.0,0.0,0.0,0.0,0.7217,0.803,0.9605,0.9503,0.9591,0.9694,0.8233,0.7818,0.8364,0.9799,0.0,0.0,0.0,0.0,0.0,0.0,0.0,0.0,0.0,0.0,0.0,0.0,0.0,0.0,0.0,0.0,0.0,0.0,0.0,0.0,0.0,0.0,0.0,0.0,0.0,0.0,0.0,0.0,0.0,0.0,0.0,0.0,0.0,0.0,0.0,0.0,0.0,0.0,0.0,0.0,0.0,0.0,0.0,0.0,0.0,0.0,0.0,0.0,0.0,0.0,0.0,0.0,0.0,0.0,0.0,0.0,0.0,0.0,0.0,0.0,0.0,0.0,0.0,0.0,0.0,0.0,0.0,0.0,0.0,0.0,0.0,0.0,0.0,0.0,0.0,0.0,0.0,0.0,0.0,0.0,0.0,0.0,0.0,0.0,0.0,0.0,0.4344,0.4348,0.0,0.0,0.0,0.0,0.0,0.0,0.0,0.0,0.0,0.0,0.0,0.0,0.0,0.8589,0.8608,0.8679,0.8865,0.9058,0.917,0.9373,0.9612,0.9713,0.9781,0.9761,0.9552,0.0,1.1595,1.1931,0.0,0.0,0.0,0.0,0.0,0.0,0.0,0.0,0.0,0.0,0.0,0.0,0.0,0.0,0.0,0.0,0.0,0.0,0.0,0.0,0.0,0.0,0.0,0.0,0.0,0.0,0.0,0.0,0.0,0.0,0.0,0.0,0.0,0.0,0.0,0.0,0.0,0.0,0.0,0.0,0.0,0.0,0.0,0.0,0.0,0.0,0.0,0.0,0.0,0.0,0.0,0.0,0.0,0.0,0.0,0.0,0.0,0.0,0.0,0.0,0.0,0.0,0.0,0.0,0.0,0.0,0.0,0.0,0.0,0.0,0.0,0.0,0.0,0.0,0.0,0.0,0.0,0.0,0.0,0.0,0.0,0.0,0.0,0.0,0.0,0.5564,0.6832,0.5859,0.5974,0.5748,0.0,0.0,0.0,0.0,0.0,0.0,0.0,0.0,0.0,0.8205,0.8959,0.9337,0.9337,0.9347,0.9422,0.951,0.9578,0.9652,0.9734,0.9795,0.9822,0.9822,0.9822,1.1261,1.3536,1.3629,1.456,1.6067,0.0,0.0,0.0,0.0,1.462,1.4469,0.0,0.0,0.0,0.0,0.0,0.0,0.0,0.0,0.0,0.0,0.0,0.0,0.0,0.0,0.0,-2.1958,0.0,0.0,0.0,0.0,0.0,0.0,0.0,0.0,0.0,0.0,0.0,0.0,0.0,0.0,0.0,0.0,0.0,0.0,0.0,0.0,0.0,0.0,0.0,0.0,0.0,0.0,0.0,0.0,0.0,0.0,0.0,0.0,0.0,0.0,0.0,0.0,0.0,0.0,0.0,0.0,0.0,0.0,0.0,0.0,0.0,0.0,0.0,0.0,0.0,0.0,0.0,0.0,0.0,0.0,0.0,0.0,0.0,0.0,0.0,0.0,0.0,0.7158,0.8715,0.7358,0.7881,0.7724,0.0,0.0,0.0,0.0,0.0,0.0,0.9997,0.9559,0.9337,0.9435,0.9442,0.9442,0.9442,0.9476,0.9551,0.9666,0.9666,0.972,0.9822,0.9822,0.9822,0.9822,0.9822,1.1615,1.4599,1.4599,1.5784,1.763,1.763,1.763,1.7443,1.6267,1.5631,1.5412,0.0,0.0,0.0,0.0,0.0,0.0,0.0,0.0,0.0,0.0,0.0,0.0,0.0,0.0,-2.284,-2.2113,-1.953,-1.784,0.0,0.0,0.0,0.0,0.0,0.0,0.0,0.0,0.0,0.0,0.0,0.0,0.0,0.0,0.0,0.0,0.0,0.0,0.0,0.0,0.0,0.0,0.0,0.0,0.0,0.0,0.0,0.0,0.0,0.0,0.0,0.0,0.0,0.0,0.0,0.0,0.0,0.0,0.0,0.0,0.0,0.0,0.0,0.0,0.0,0.0,0.0,0.0,0.0,0.0,0.0,0.0,0.0,0.0,0.0,0.0,0.0,0.0,0.0,0.0,0.0,0.9094,1.0743,0.0,0.0,0.0,0.0,1.1293,1.0074,1.0048,1.161,1.0235,0.9442,0.9591,0.9598,0.9598,0.9598,0.9734,0.9802,0.9808,0.9808,0.9815,0.9822,0.9822,0.9822,0.9822,0.9822,1.1615,1.4599,1.4599,1.6444,1.9301,1.9301,1.9301,1.9243,1.9185,1.8942,1.8651,0.0,0.0,0.0,0.0,0.0,0.0,0.0,0.0,0.0,0.0,0.0,0.0,0.0,-2.1607,-2.0241,-1.9051,-1.8193,-1.7284,-1.6295,0.0,0.0,0.0,0.0,0.0,0.0,0.0,0.0,0.0,0.0,0.0,0.0,0.0,0.0,0.0,0.0,0.0,0.0,0.0,0.0,0.0,0.0,0.0,0.0,0.0,0.0,0.0,0.0,0.0,0.0,0.0,0.0,0.0,0.0,0.0,0.0,0.0,0.0,0.0,0.0,0.0,0.0,0.0,0.0,0.0,0.0,0.0,0.0,0.0,0.0,0.0,0.0,0.0,0.0,0.0,0.0,0.0,0.0,0.0,0.0,1.1131,1.3114,0.0,1.3113,1.2653,1.2775,1.3809,1.1327,1.0572,1.2439,1.0873,0.9937,0.9835,0.9829,0.9842,0.9747,0.9795,0.9822,0.9822,0.9822,0.9822,0.9822,0.9822,0.9822,0.9822,0.9822,1.174,1.4872,1.4872,1.6651,1.9444,1.9573,1.9533,1.9243,1.8227,1.758,1.7197,0.0,0.0,0.0,0.0,0.0,0.0,0.0,0.0,0.0,0.0,0.0,-2.2804,-2.2278,-2.0327,-1.8565,-1.7462,-1.7654,-1.7243,-1.5792,0.0,0.0,0.0,0.0,0.0,0.0,0.0,0.0,0.0,0.0,0.0,0.0,0.0,0.0,0.0,0.0,0.0,0.0,0.0,0.0,0.0,0.0,0.0,-1.0237,0.0,0.0,0.0,0.0,0.0,0.0,0.0,0.0,0.0,0.0,0.0,0.0,0.0,0.0,0.0,0.0,0.0,0.0,0.0,0.0,0.0,0.0,0.0,0.0,0.0,0.0,0.0,0.0,0.0,0.0,0.0,0.0,0.0,0.0,1.0119,1.2158,1.1462,1.4411,1.5639,1.3546,1.3441,1.3745,1.4298,1.1775,1.0995,1.2796,1.1295,1.0283,1.0134,1.0011,0.9663,0.9019,0.9019,0.8714,0.816,0.8714,0.9019,0.9019,0.9572,0.9822,0.9822,0.9876,1.1829,1.5004,1.5146,1.6926,1.9533,1.972,1.9318,1.846,1.7384,1.6402,1.558,0.0,0.0,0.0,0.0,0.0,0.0,0.0,0.0,0.0,0.0,0.0,-2.351,-2.2618,-1.9828,-1.7933,-1.7729,-1.7936,-1.7601,-1.6543,-1.7265,0.0,0.0,0.0,0.0,0.0,0.0,0.0,0.0,0.0,0.0,0.0,0.0,0.0,0.0,0.0,0.0,0.0,0.0,0.0,0.0,0.0,0.0,-1.3477,0.0,0.0,0.0,0.0,0.0,0.0,0.0,0.0,0.0,0.0,0.0,0.0,0.0,0.0,0.0,0.0,0.0,0.0,0.0,0.0,0.0,0.0,0.0,0.0,0.0,0.0,0.0,0.0,0.0,0.0,0.0,0.0,0.0,0.7232,1.0206,1.1804,1.0079,1.4575,1.5803,1.0695,1.3234,1.4591,1.2909,1.1369,1.12,1.2805,1.1394,1.0432,1.0283,1.0071,0.9106,0.7423,0.7362,0.6508,0.492,0.6573,0.7429,0.7429,0.9079,0.9822,0.9836,0.9923,1.1888,1.5044,1.5533,1.7325,1.9754,1.9826,1.8669,1.6973,1.6973,1.5737,1.4099,0.0,0.0,0.0,0.0,0.0,0.0,0.0,0.0,0.0,0.0,-2.4667,-2.2283,-2.0373,-1.7911,-1.6899,-1.8028,-1.7955,-1.8451,-1.9873,0.0,0.0,0.0,0.0,0.0,0.0,0.0,0.0,0.0,0.0,0.0,0.0,0.0,0.0,0.0,0.0,0.0,0.0,0.0,0.0,0.0,0.0,0.0,-1.648,0.0,0.0,0.0,0.0,0.0,0.0,0.0,0.0,0.0,0.0,0.0,0.0,0.0,0.0,0.0,0.0,0.0,0.0,0.0,0.0,0.0,0.0,0.0,0.0,0.0,0.0,0.0,0.0,0.0,0.0,0.0,0.7055,0.7917,0.8913,1.1226,1.2603,1.2233,1.4734,1.5903,1.4437,1.4033,1.4198,1.4961,1.2311,1.1373,1.3118,1.1563,1.0541,1.029,0.9082,0.8062,0.7423,0.62,0.5364,0.4929,0.6611,0.7418,0.748,0.9068,0.9883,0.993,0.997,1.2087,1.5533,1.5656,1.6794,1.8581,1.9907,1.9066,1.7005,1.5926,1.4134,1.2046,0.0,0.0,0.0,0.0,0.0,0.0,0.0,0.0,0.0,0.0,-2.5004,-2.2374,-2.0332,-1.8213,-1.7303,-1.821,-1.9146,-2.0146,-2.1245,0.0,0.0,0.0,0.0,0.0,0.0,0.0,0.0,0.0,0.0,0.0,0.0,0.0,0.0,0.0,0.0,0.0,0.0,0.0,0.0,0.0,0.0,0.0,-1.9919,-2.131,-1.9979,-1.7466,-1.8155,-1.7114,-1.5681,-1.7441,0.0,0.0,0.0,0.0,0.0,0.0,0.0,0.0,0.0,0.0,0.0,0.0,0.0,0.0,0.0,0.0,0.0,0.0,0.0,0.0,0.0,0.0,0.0,0.0,0.8139,0.9087,0.9975,1.1752,1.2761,1.2175,1.4354,1.5329,1.384,1.3456,1.339,1.3709,1.1828,1.1108,1.2157,1.124,1.0582,1.029,0.8654,0.7341,0.6381,0.4718,0.3541,0.2894,0.5209,0.638,0.6407,0.8811,0.9903,0.9997,1.0181,1.1901,1.4636,1.4657,1.559,1.7094,0.0,0.0,0.0,0.0,1.1962,1.0501,0.0,0.0,0.0,0.0,0.0,0.0,0.0,0.0,0.0,0.0,0.0,-2.2958,-2.1428,-1.9654,-1.8645,-1.8874,-2.1074,-2.2214,0.0,0.0,0.0,0.0,0.0,0.0,0.0,0.0,0.0,0.0,0.0,0.0,0.0,0.0,0.0,0.0,0.0,0.0,0.0,0.0,0.0,0.0,0.0,0.0,-2.3593,-2.4719,-2.2776,-1.9695,-2.0914,-1.8589,-1.5529,-1.8984,0.0,0.0,0.0,0.0,0.0,0.0,0.0,0.0,0.0,0.0,0.0,0.0,0.0,0.0,0.0,0.0,0.0,0.0,0.0,0.0,0.0,0.0,0.0,0.0,0.9387,1.05,1.0514,1.1862,1.2305,1.0902,1.3473,1.4128,1.0982,1.2084,1.2347,1.085,1.0717,1.0717,1.0717,1.0717,0.0,0.0,0.0,0.6661,0.4896,0.313,0.1538,0.0316,0.3403,0.5001,0.5313,0.8555,1.0004,1.0051,1.0378,1.1523,1.3152,1.3257,1.405,1.5399,1.6885,1.5431,1.2283,1.0583,0.9747,0.9381,0.0,0.0,0.0,0.0,0.0,0.0,0.0,0.0,0.0,0.0,0.0,0.0,0.0,0.0,-1.9962,-2.2149,0.0,0.0,0.0,0.0,0.0,0.0,0.0,0.0,0.0,0.0,0.0,0.0,0.0,0.0,0.0,0.0,0.0,0.0,0.0,0.0,0.0,0.0,0.0,0.0,0.0,0.0,-2.6986,-2.6189,-2.5027,-2.3504,-2.0701,-1.9332,-1.892,-1.9634,-1.9537,-1.9499,-2.1598,0.0,0.0,0.0,0.0,0.0,0.0,0.0,0.0,0.0,0.0,0.0,0.0,0.0,0.0,0.0,0.0,0.0,0.0,0.0,0.0,0.9506,1.0166,1.0534,1.0656,1.0934,1.108,1.0717,1.1421,1.1583,1.0797,1.0982,1.1049,1.0717,1.0717,1.0717,1.0717,1.0717,1.0582,1.029,0.7423,0.5566,0.4896,0.1938,0.0976,0.205,0.3965,0.0,0.7126,0.9081,1.0181,1.0405,1.0466,1.1525,1.3274,1.3308,1.3401,1.3596,1.369,1.334,1.2557,1.0559,0.9659,0.9361,0.0,0.0,0.0,0.0,0.0,0.0,0.0,0.0,0.0,0.0,0.0,0.0,0.0,0.0,-2.298,-2.443,0.0,0.0,0.0,0.0,0.0,0.0,0.0,0.0,0.0,0.0,0.0,0.0,0.0,0.0,0.0,0.0,0.0,0.0,0.0,0.0,0.0,0.0,0.0,0.0,0.0,0.0,-3.1819,-3.0544,-2.8303,-2.5743,-2.4624,-2.3197,-2.1867,-2.2139,-2.254,-2.2994,-2.32,-2.1326,-1.8138,0.0,0.0,0.0,0.0,0.0,0.0,0.0,0.0,0.0,0.0,0.0,0.0,0.0,0.0,0.7418,0.0,0.0,0.9237,1.031,1.0622,1.0772,1.0921,1.1009,1.0975,1.0744,1.0785,1.0739,1.0724,1.0717,1.0717,1.0717,1.0717,1.0717,1.0717,1.0649,1.0143,0.9092,0.6601,0.4739,0.3685,0.1236,0.0846,0.2546,0.4223,0.5946,0.7681,0.9469,1.0351,1.0493,1.0575,1.1103,1.2018,1.1934,1.1843,1.1743,1.1492,1.1401,1.1308,1.021,0.9632,0.9361,0.0,0.0,0.0,0.0,0.0,0.0,0.0,0.0,0.0,0.0,0.0,0.0,0.0,0.0,0.0,0.0,0.0,0.0,0.0,0.0,0.0,0.0,0.0,0.0,0.0,0.0,0.0,0.0,0.0,0.0,0.0,0.0,0.0,0.0,0.0,0.0,0.0,0.0,0.0,0.0,0.0,0.0,-3.5484,-3.4785,-3.1719,-2.7939,-2.8807,-2.6865,-2.4059,-2.4604,-2.5247,-2.5453,-2.4178,-2.1178,-1.7259,-1.2421,-0.652,0.0,0.0,0.0,0.0,0.0,0.0,0.0,0.0,0.0,0.915,0.9449,0.9537,0.9625,0.9869,1.0059,1.0176,1.0161,1.0617,1.0893,1.0655,1.1058,1.1212,1.0846,1.0833,1.0826,1.0772,1.0765,1.0751,1.0724,1.0717,1.0717,1.0717,1.0575,0.9636,0.7872,0.6035,0.4242,0.2519,0.0851,0.1041,0.3048,0.4412,0.6205,0.827,0.9806,1.0521,1.0582,1.0677,1.0717,1.0704,1.0527,1.0453,1.0419,1.0058,0.9943,0.9923,0.9836,0.9612,0.9361,0.0,0.0,0.0,0.0,0.0,0.0,0.0,0.0,0.0,0.0,0.0,0.0,0.0,0.0,0.0,0.0,0.0,0.0,0.0,0.0,0.0,0.0,0.0,0.0,0.0,0.0,0.0,0.0,0.0,0.0,0.0,0.0,0.0,0.0,0.0,0.0,0.0,0.0,0.0,0.0,0.0,0.0,-3.4727,-3.5999,-3.4499,-3.1498,-2.9226,-2.6683,-2.4501,-2.514,-2.3916,-2.2127,-2.1794,-1.8468,-1.3764,-0.9158,0.0,-0.0171,-0.0056,0.0999,0.2484,0.4355,0.5682,0.7099,0.0,0.0,0.9618,0.9856,1.0086,1.0188,1.0222,1.046,1.0101,0.8569,0.993,1.0586,0.8857,1.0127,1.1172,1.1118,1.1233,1.1212,1.088,1.0853,1.0799,1.0731,1.0717,1.0717,1.0717,1.0575,0.9636,0.7872,0.6035,0.4262,0.2491,0.0855,0.1641,0.4832,0.5036,0.6951,1.0373,1.0469,1.0636,1.0826,1.0772,1.0717,1.0697,1.0419,1.0304,1.0276,0.9964,0.9849,0.9829,0.9686,0.953,0.9381,0.0,0.0,0.0,0.0,0.0,0.0,0.0,0.0,0.0,0.0,0.0,0.0,0.0,0.0,0.0,0.0,0.0,0.0,0.0,0.0,0.0,0.0,0.0,0.0,0.0,0.0,0.0,0.0,0.0,0.0,0.0,0.0,0.0,0.0,0.0,0.0,0.0,0.0,0.0,0.0,0.0,0.0,-3.5358,-3.5502,-3.3375,-3.0207,-2.9084,-2.7079,0.0,0.0,-2.395,-2.2896,-2.0801,-1.6944,-1.2467,-0.8482,-0.3151,0.0,0.1482,0.1877,0.2458,0.3125,0.437,0.5983,0.801,0.8391,0.87,0.9989,1.0358,1.0432,1.0521,1.0711,1.0219,0.0,0.9932,1.0684,0.8768,1.0207,1.1396,1.1307,1.1355,1.1307,1.1097,1.0995,1.0853,1.0793,1.0772,1.0246,0.9172,0.8984,0.7701,0.4917,0.4021,0.2759,0.1053,0.1381,0.2826,0.5315,0.6444,0.831,1.0786,1.0785,1.0778,1.0812,1.0751,1.067,1.0575,1.0453,1.0304,1.0134,0.9943,0.9835,0.9802,0.9659,0.9571,0.9503,0.0,0.0,0.0,0.0,0.0,0.0,0.0,0.0,0.0,0.0,0.0,0.0,0.0,0.0,0.0,0.0,0.0,0.0,0.0,0.0,0.0,0.0,0.0,0.0,0.0,0.0,0.0,0.0,0.0,0.0,0.0,0.0,0.0,0.0,0.0,0.0,0.0,0.0,0.0,0.0,0.0,0.0,-3.4877,-3.3756,-3.1202,-2.8295,-2.8711,-2.6991,0.0,0.0,-2.3448,-2.264,-1.9465,-1.5386,-1.1126,-0.7644,-0.2651,0.1923,0.2312,0.2096,0.1884,0.2197,0.3216,0.4537,0.6328,0.6796,0.7228,0.879,0.9103,0.9264,0.9829,1.0095,0.9757,0.8495,1.0016,1.0793,0.8976,1.0347,1.1518,1.1402,1.1355,1.1287,1.1241,1.1029,1.088,1.088,1.0331,0.9371,0.8097,0.7398,0.5745,0.2818,0.2582,0.191,0.0728,0.2042,0.3889,0.6241,0.7612,0.9276,1.107,1.1029,1.09,1.0717,1.0717,1.0656,1.0555,1.0507,1.0365,1.0105,1.0127,1.0046,0.9937,0.9829,0.9713,0.9598,0.0,0.0,0.0,0.0,0.0,0.0,0.0,0.0,0.0,0.0,0.0,0.0,0.0,0.0,0.0,0.0,0.0,0.0,0.0,0.0,0.0,0.0,0.0,0.0,0.0,0.0,0.0,0.0,0.0,0.0,0.0,0.0,0.0,0.0,0.0,0.0,0.0,0.0,0.0,0.0,0.0,0.0,-3.2343,-3.0734,-2.8652,-2.6752,-2.8186,0.0,0.0,0.0,-2.1867,-1.9542,-1.7372,-1.3508,0.0,-0.5914,-0.2586,0.0,0.0,0.0,0.0475,0.2076,0.255,0.3042,0.4754,0.5178,0.5263,0.5475,0.5559,0.6093,0.7764,0.8262,0.8376,0.8282,1.0016,1.0793,0.8976,1.0262,1.1396,1.1389,1.126,1.1165,1.1234,1.1029,1.088,1.088,0.9175,0.803,0.803,0.6209,0.4427,0.2751,0.2582,0.2514,0.2617,0.2646,0.4525,0.8194,0.8287,0.9369,1.1375,1.1226,1.0995,1.0717,1.0717,1.0717,1.0704,1.0555,1.0487,1.0466,1.0331,1.027,1.0263,1.0263,0.9985,0.9632,0.0,0.0,0.0,0.0,0.0,0.0,0.0,0.0,0.0,0.0,0.0,0.0,0.0,0.0,0.0,0.0,0.0,0.0,0.0,0.0,0.0,0.0,0.0,0.0,0.0,0.0,0.0,0.0,0.0,0.0,0.0,0.0,0.0,0.0,0.0,0.0,0.0,0.0,0.0,0.0,0.0,0.0,-3.0389,-2.8729,-2.6301,-2.3938,0.0,0.0,0.0,0.0,0.0,0.0,-1.6679,0.0,0.0,-0.4951,0.0,0.0,0.0,0.0,0.0122,0.0694,0.0835,0.1304,0.3119,0.353,0.3868,0.5158,0.5391,0.5551,0.6144,0.6411,0.6095,0.4812,0.6314,0.7505,0.6881,0.838,1.0025,1.1121,1.1261,1.0705,0.9371,0.9189,0.916,0.916,0.7358,0.5763,0.4557,0.3873,0.2738,0.0941,0.087,0.1478,0.2791,0.3992,0.5974,0.8747,1.0001,1.0928,1.1389,1.1233,1.1002,1.0717,1.0717,1.0663,1.0575,1.0622,1.0527,1.0358,1.0405,1.0365,1.0283,1.0283,1.0188,1.0059,0.0,0.0,0.0,0.0,0.0,0.0,0.0,0.0,0.0,0.0,0.0,0.0,0.0,0.0,0.0,0.0,0.0,0.0,0.0,0.0,0.0,0.0,0.0,0.0,0.0,0.0,0.0,0.0,0.0,0.0,0.0,0.0,0.0,0.0,0.0,0.0,0.0,0.0,0.0,0.0,0.0,0.0,-2.8842,-2.6783,-2.4727,0.0,0.0,0.0,0.0,0.0,0.0,0.0,0.0,0.0,0.0,0.0,0.0,0.0,0.0,-0.0991,-0.0945,-0.0969,-0.0985,-0.0465,0.134,0.1747,0.2083,0.3222,0.345,0.3677,0.4333,0.4496,0.4403,0.3842,0.4878,0.5751,0.5784,0.6815,0.8228,0.9983,1.0098,0.9591,0.8283,0.7603,0.7278,0.731,0.5538,0.3957,0.2752,0.2083,0.121,0.0067,0.0676,0.1976,0.3932,0.5812,0.7743,0.9867,1.1173,1.1647,1.1307,1.1206,1.1002,1.0717,1.0717,1.0663,1.0582,1.0677,1.0609,1.0446,1.0534,1.0521,1.0439,1.0439,1.0439,1.0426,0.0,0.0,0.0,0.0,0.0,0.0,0.0,0.0,0.0,0.0,0.0,0.0,0.0,0.0,0.0,0.0,0.0,0.0,0.0,0.0,0.0,0.0,0.0,0.0,0.0,0.0,0.0,0.0,0.0,0.0,0.0,0.0,0.0,0.0,0.0,0.0,0.0,0.0,0.0,0.0,0.0,0.0,-2.7719,-2.5015,0.0,0.0,0.0,0.0,0.0,0.0,0.0,0.0,0.0,0.0,0.0,0.0,0.0,-0.2659,-0.2823,-0.2865,-0.2841,-0.2819,-0.2791,-0.2283,-0.0538,-0.0067,0.0,0.0,0.0,0.0527,0.0,0.0,0.3154,0.4998,0.5321,0.542,0.5643,0.5536,0.6171,0.0,0.0,0.0,0.0,0.6297,0.5255,0.5321,0.3582,0.2551,0.2551,0.0941,0.0067,0.0135,0.1907,0.3863,0.5942,0.7865,0.9763,1.1647,1.1769,1.1606,1.1185,1.1241,1.1002,1.0731,1.0724,1.0717,1.0717,1.0717,1.0717,1.0717,1.0717,1.0717,1.0717,1.0717,1.0717,1.067,0.0,0.0,0.0,0.0,0.0,0.0,0.0,0.0,0.0,0.0,0.0,0.0,0.0,0.0,0.0,0.0,0.0,0.0,0.0,0.0,0.0,0.0,0.0,0.0,0.0,0.0,0.0,0.0,0.0,0.0,0.0,0.0,0.0,0.0,0.0,0.0,0.0,0.0,0.0,0.0,0.0,0.0,-2.5296,0.0,0.0,0.0,0.0,0.0,0.0,0.0,0.0,0.0,0.0,0.0,-0.7595,0.0,0.0,-0.4461,-0.4643,-0.4686,-0.4717,-0.4718,-0.368,-0.2551,-0.2148,-0.0941,0.0,0.0,0.0,0.0132,0.0,0.0,0.0,0.1353,0.1442,0.0,0.3441,0.3616,0.0,0.7956,0.0,0.6163,0.6101,0.4426,0.2823,0.1553,0.0943,0.0672,0.0672,0.0269,0.0676,0.2114,0.267,0.4591,0.8041,1.0207,1.1462,1.1952,1.187,1.1714,1.1497,1.1267,1.1063,1.0813,1.0772,1.0717,1.0717,1.0717,1.0717,1.0717,1.0717,1.0717,1.0717,1.0717,1.0649,1.0541,0.0,0.0,0.0,0.0,0.0,0.0,0.0,0.0,0.0,0.0,0.0,0.0,0.0,0.0,0.0,0.0,0.0,0.0,0.0,0.0,0.0,0.0,0.0,0.0,0.0,0.0,0.0,0.0,0.0,0.0,0.0,0.0,0.0,0.0,0.0,0.0,0.0,0.0,0.0,0.0,0.0,0.0,0.0,0.0,0.0,0.0,0.0,0.0,0.0,0.0,0.0,-1.5979,-1.4666,-1.1811,-0.8799,-0.8039,0.0,-0.6293,-0.6463,-0.6522,-0.6564,-0.6552,-0.5228,-0.3689,-0.2887,-0.1277,0.0,0.0,0.0,0.0,0.0,0.0,0.0,0.0,0.0,0.0,0.1485,0.1621,0.2656,0.0,0.495,0.0,0.423,0.3306,0.1966,0.0136,0.0,0.0,0.0,0.0,0.0893,0.2836,0.3776,0.623,1.0337,1.1626,1.2128,1.206,1.1013,1.0396,1.0209,1.0058,0.9883,0.9635,1.045,1.0778,1.0717,1.0717,1.0717,1.0717,1.0717,1.0717,1.0717,1.0717,1.0622,1.0493,0.0,0.0,0.0,0.0,0.0,0.0,0.0,0.0,0.0,0.0,0.0,0.0,0.0,0.0,0.0,0.0,0.0,0.0,0.0,0.0,0.0,0.0,0.0,0.0,0.0,0.0,0.0,0.0,0.0,0.0,0.0,0.0,0.0,0.0,0.0,0.0,0.0,0.0,0.0,0.0,0.0,0.0,0.0,0.0,0.0,0.0,0.0,0.0,0.0,0.0,-1.6879,-1.5949,-1.5297,-1.3026,-1.026,-0.864,-0.8221,-0.822,-0.8345,-0.8355,-0.8363,-0.8363,-0.6898,-0.4961,-0.3423,-0.1478,0.0,0.0,0.0,0.0,0.0,0.0,0.0,0.0,0.0,0.0,0.0,0.0,0.0687,0.2474,0.2466,0.2449,0.2689,0.2512,0.1712,0.0137,0.0,0.0,0.0,0.0279,0.1403,0.3654,0.5689,0.8597,1.2257,1.2237,1.2087,1.1654,0.9798,0.8599,0.8125,0.8394,0.8348,0.8156,1.0079,1.088,1.0724,1.0744,1.0738,1.0717,1.0717,1.0717,1.0717,1.0717,1.0622,1.0487,0.0,0.0,0.0,0.0,0.0,0.0,0.0,0.0,0.0,0.0,0.0,0.0,0.0,0.0,0.0,0.0,0.0,0.0,0.0,0.0,0.0,0.0,0.0,0.0,0.0,0.0,0.0,0.0,0.0,0.0,0.0,0.0,0.0,0.0,0.0,0.0,0.0,0.0,0.0,0.0,0.0,0.0,0.0,0.0,0.0,0.0,0.0,0.0,0.0,0.0,-1.8432,-1.6255,-1.3157,-1.1535,-1.0799,-1.043,-1.0285,-1.0214,-1.0214,-1.0227,-1.0246,-1.0246,-0.7769,-0.5295,-0.5028,-0.235,0.0,0.0,0.0,0.0,0.0,0.0,0.0,0.0,0.0,0.0,0.0,0.0,0.069,0.0,0.1369,0.1079,0.2553,0.1347,0.0339,0.0,0.0,0.0,0.0,0.1539,0.4095,0.7778,0.99,1.1418,1.2101,1.1972,1.1081,0.9418,0.8936,0.7842,0.6293,0.7789,0.8394,0.8341,1.0291,1.0968,1.0731,1.0793,1.0766,1.0717,1.0717,1.0717,1.0717,1.0717,1.0622,1.0473,0.0,0.0,0.0,0.0,0.0,0.0,0.0,0.0,0.0,0.0,0.0,0.0,0.0,0.0,0.0,0.0,0.0,0.0,0.0,0.0,0.0,0.0,0.0,0.0,0.0,0.0,0.0,0.0,0.0,0.0,0.0,0.0,0.0,0.0,0.0,0.0,0.0,0.0,0.0,0.0,0.0,0.0,0.0,0.0,0.0,0.0,0.0,0.0,0.0,0.0,-2.0009,-1.8287,-1.4106,-1.2047,-1.1165,-1.1084,-1.0955,-1.0853,-1.0928,-1.0894,-1.0772,-1.0772,-0.8122,-0.5477,-0.5439,0.0,0.0,0.0,0.0,0.0,0.0,0.0,0.0,0.0,0.0,0.0,0.0,0.0,0.0,0.1166,0.0546,0.0339,0.1211,0.0542,0.0,0.0,0.0,0.0,0.0,0.2774,0.5825,0.879,1.0902,1.1528,1.0616,1.0417,0.9313,0.7391,0.6206,0.5225,0.4286,0.5192,0.6065,0.6976,0.8884,1.0141,1.0772,1.0833,1.0785,1.0717,1.0717,1.0717,1.0717,1.0717,1.0622,1.048,0.0,0.0,0.0,0.0,0.0,0.0,0.0,0.0,0.0,0.0,0.0,0.0,0.0,0.0,0.0,0.0,0.0,0.0,0.0,0.0,0.0,0.0,0.0,0.0,0.0,0.0,0.0,0.0,0.0,0.0,0.0,0.0,0.0,0.0,0.0,0.0,0.0,0.0,0.0,0.0,0.0,0.0,0.0,0.0,0.0,0.0,0.0,0.0,0.0,0.0,-2.1155,-2.0344,-1.6117,-1.3891,-1.2645,-1.2062,-1.204,-1.2134,-1.1888,-1.1686,-1.1532,-1.1532,-0.8554,-0.5594,-0.5488,-0.2595,0.0,0.0,-0.0346,-0.062,-0.061,-0.0608,-0.0607,0.0,-0.0269,0.0,0.0,0.0,0.0,0.0,0.0,0.0,0.0,0.0,0.0,0.0,0.0,0.0358,0.122,0.4201,0.6954,0.9459,1.1018,1.1129,0.9711,0.9176,0.787,0.5866,0.3864,0.2691,0.2328,0.2691,0.3896,0.5692,0.7529,0.9302,1.0873,1.0819,1.0751,1.0717,1.0717,1.0717,1.0717,1.0717,1.0643,1.0534,0.0,0.0,0.0,0.0,0.0,0.0,0.0,0.0,0.0,0.0,0.0,0.0,0.0,0.0,0.0,0.0,0.0,0.0,0.0,0.0,0.0,0.0,0.0,0.0,0.0,0.0,0.0,0.0,0.0,0.0,0.0,0.0,0.0,0.0,0.0,0.0,0.0,0.0,0.0,0.0,0.0,0.0,0.0,0.0,0.0,0.0,0.0,0.0,0.0,0.0,0.0,-2.1054,-1.8394,-1.7312,-1.6768,-1.4849,0.0,0.0,-1.4199,-1.3738,-1.3721,-1.3721,-0.9627,-0.5621,-0.5619,0.0,0.0,0.0,-0.1411,-0.2609,-0.2475,-0.2531,-0.259,0.0,0.0,0.0,0.0,0.0,0.0,0.0,0.0,0.0,0.0,0.0,0.0,0.0,0.0,0.1508,0.5072,0.572,0.7677,1.1384,1.1683,1.163,1.1365,0.9596,0.7657,0.5645,0.3758,0.1965,0.0292,0.211,0.3896,0.5692,0.7672,0.9376,1.088,1.0867,1.0779,1.0717,1.0717,1.0717,1.0717,1.0717,1.0711,1.0677,0.0,0.0,0.0,0.0,0.0,0.0,0.0,0.0,0.0,0.0,0.0,0.0,0.0,0.0,0.0,0.0,0.0,0.0,0.0,0.0,0.0,0.0,0.0,0.0,0.0,0.0,0.0,0.0,0.0,0.0,0.0,0.0,0.0,0.0,0.0,0.0,0.0,0.0,0.0,0.0,0.0,0.0,0.0,0.0,0.0,0.0,0.0,0.0,0.0,0.0,0.0,0.0,-2.2252,-2.168,0.0,0.0,-1.6529,-1.658,-1.4754,-1.4197,-1.3869,-1.2803,-0.9111,-0.5694,-0.5703,0.0,0.0,0.0,-0.152,-0.2876,-0.2847,-0.376,-0.4507,0.0,0.0,0.0,-0.1623,0.0,0.0,0.0,0.0,0.0,0.0,0.0,0.0,0.0,0.0,0.1207,0.3875,0.5232,0.6559,0.8165,1.0407,0.9875,0.6384,0.667,0.5317,0.2239,0.1526,0.0729,0.0,0.0802,0.2816,0.5621,0.6348,0.765,0.9431,1.037,1.0098,0.9172,1.0246,1.0717,1.0717,1.0717,1.0717,1.0711,0.0,0.0,0.0,0.0,0.0,0.0,0.0,0.0,0.0,0.0,0.0,0.0,0.0,0.0,0.0,0.0,0.0,0.0,0.0,0.0,0.0,0.0,0.0,0.0,0.0,0.0,0.0,0.0,0.0,0.0,0.0,0.0,-2.6037,-2.6037,0.0,0.0,0.0,0.0,0.0,0.0,0.0,0.0,0.0,0.0,0.0,0.0,0.0,0.0,0.0,0.0,0.0,0.0,0.0,0.0,0.0,0.0,-1.7658,-1.7392,-1.5026,-1.4331,-1.3999,-1.2783,-0.96,-0.6542,0.0,0.0,-0.1698,-0.1044,-0.297,-0.4709,-0.4657,-0.5675,-0.6525,0.0,0.0,-0.3404,-0.2832,-0.2046,0.0,0.0,0.0,-0.0725,-0.0738,-0.027,0.0,0.0,0.0,0.0564,0.1997,0.3896,0.5207,0.5805,0.8343,0.7809,0.3754,0.4406,0.343,0.0793,0.0291,0.0,0.0,0.0,0.1725,0.4811,0.4678,0.5725,0.7577,0.8689,0.8706,0.8097,0.9377,1.0246,1.0717,1.0717,1.0717,1.0717,0.0,0.0,0.0,0.0,0.0,0.0,0.0,0.0,0.0,0.0,0.0,0.0,0.0,0.0,0.0,0.0,0.0,0.0,0.0,0.0,0.0,0.0,0.0,0.0,0.0,0.0,0.0,0.0,0.0,0.0,0.0,0.0,0.0,0.0,0.0,0.0,0.0,0.0,0.0,0.0,0.0,0.0,0.0,0.0,0.0,0.0,0.0,0.0,0.0,0.0,0.0,0.0,0.0,0.0,0.0,0.0,-1.902,-1.9206,-1.5416,-1.4432,-1.4474,-1.4597,-1.1753,-0.8396,0.0,0.0,-0.5653,-0.3474,-0.6315,-0.9021,-0.8692,-0.877,-0.877,-0.8477,0.0,0.0,-0.3152,-0.4145,-0.4395,0.0,-0.2465,-0.2472,-0.2476,-0.0953,0.0,0.0,0.0,0.0,0.0,0.1879,0.3778,0.5736,0.5808,0.5799,0.5583,0.3822,0.2834,0.2661,0.0864,0.0,0.0,0.0,0.1065,0.2938,0.2759,0.3835,0.56,0.5527,0.6431,0.803,0.803,0.9105,1.0717,1.0717,1.0717,1.0717,0.0,0.0,0.0,0.0,0.0,0.0,0.0,0.0,0.0,0.0,0.0,0.0,0.0,0.0,0.0,0.0,0.0,0.0,0.0,0.0,0.0,0.0,0.0,0.0,0.0,0.0,0.0,0.0,0.0,0.0,0.0,0.0,0.0,0.0,0.0,0.0,0.0,0.0,0.0,0.0,0.0,0.0,0.0,0.0,0.0,0.0,0.0,0.0,0.0,0.0,0.0,0.0,0.0,0.0,0.0,0.0,0.0,0.0,-1.5062,-1.4525,-1.4316,-1.3192,-1.0965,-0.8989,-0.8449,0.0,-0.6121,-0.5405,-0.739,-0.9167,-0.9065,-0.9967,-1.0681,-1.0498,0.0,0.0,0.0,0.0,0.0,-0.273,-0.1529,-0.0799,-0.0806,-0.0338,0.0,0.0,0.0,0.0,0.0,0.0571,0.1217,0.1843,0.4296,0.4418,0.182,0.2459,0.2118,0.0852,0.0287,0.0,0.0,0.0,0.098,0.2759,0.2747,0.3067,0.3712,0.4903,0.5696,0.6364,0.7564,0.9105,1.0717,1.0717,1.0717,1.0717,0.0,0.0,0.0,0.0,0.0,0.0,0.0,0.0,0.0,0.0,0.0,0.0,0.0,0.0,0.0,0.0,0.0,0.0,0.0,0.0,0.0,0.0,0.0,0.0,0.0,0.0,0.0,0.0,0.0,0.0,0.0,0.0,0.0,0.0,0.0,0.0,0.0,0.0,0.0,0.0,0.0,0.0,-2.6386,0.0,0.0,0.0,0.0,0.0,0.0,0.0,0.0,0.0,0.0,0.0,0.0,0.0,0.0,0.0,0.0,-1.3655,-1.3486,-1.2407,-1.1308,0.0,0.0,0.0,-0.8438,-0.7648,-0.9084,-1.0409,-1.0369,-1.1226,-1.1803,-1.1592,-1.0384,0.0,0.0,0.0,0.0,-0.2773,-0.1602,-0.0671,-0.0067,0.0,0.0,0.0,0.0,0.0,0.0,0.0,0.0,0.0,0.2303,0.2384,0.0,0.1123,0.1126,0.0,0.0,0.0,0.0,0.0,0.0621,0.1702,0.1702,0.1694,0.0,0.2887,0.3756,0.4559,0.6297,0.8102,0.9775,1.0452,1.0717,1.0717,0.0,0.0,0.0,0.0,0.0,0.0,0.0,0.0,0.0,0.0,0.0,0.0,0.0,0.0,0.0,0.0,0.0,0.0,0.0,0.0,0.0,0.0,0.0,0.0,0.0,0.0,0.0,0.0,-3.0933,-2.8487,-2.5464,0.0,0.0,0.0,0.0,0.0,0.0,0.0,0.0,0.0,0.0,0.0,0.0,0.0,0.0,0.0,0.0,0.0,0.0,0.0,0.0,0.0,0.0,0.0,0.0,0.0,0.0,0.0,0.0,0.0,0.0,0.0,0.0,0.0,0.0,0.0,0.0,-0.9998,-1.1178,-1.2474,-1.2332,-1.2291,-1.2176,-1.1877,-1.1572,0.0,0.0,-0.8298,-0.6541,-0.3095,-0.2573,-0.187,-0.033,-0.0068,0.0,0.0,0.0,0.0,0.0,0.0,0.0,0.0,0.0,0.0,0.0,0.0,0.0,0.0,0.0,0.0,0.0,0.0,0.0,0.0,0.0,0.0,0.0,0.0,0.1076,0.2887,0.4693,0.6498,0.823,1.0047,1.0717,1.0717,0.0,0.0,0.0,0.0,0.0,0.0,0.0,0.0,0.0,0.0,0.0,0.0,0.0,0.0,0.0,0.0,0.0,0.0,0.0,0.0,0.0,0.0,0.0,0.0,0.0,0.0,0.0,-2.866,-2.9336,-2.8154,-2.5157,-2.4356,0.0,0.0,0.0,0.0,0.0,0.0,0.0,0.0,0.0,0.0,0.0,0.0,0.0,0.0,-2.5879,-2.4175,0.0,0.0,0.0,0.0,0.0,0.0,0.0,0.0,-1.3105,0.0,0.0,0.0,0.0,0.0,0.0,0.0,0.0,0.0,0.0,0.0,0.0,0.0,0.0,-1.2271,-1.2054,-1.1864,-1.1484,-1.1074,-1.0651,-0.9206,-0.7245,-0.4779,-0.3384,-0.247,-0.1975,-0.0736,0.0,0.0,0.0,0.0,0.0,0.0,0.0,0.0,0.0,0.0,0.0,0.0,0.0,0.0,0.0,0.0,0.0,0.0,0.0,0.0,0.0,0.0,0.0,0.0,0.1076,0.2887,0.4693,0.6498,0.823,1.0047,1.0717,1.0717,0.0,0.0,0.0,0.0,0.0,0.0,0.0,0.0,0.0,0.0,0.0,0.0,0.0,0.0,0.0,0.0,0.0,0.0,0.0,0.0,0.0,0.0,0.0,0.0,0.0,0.0,0.0,0.0,0.0,-2.7066,0.0,0.0,0.0,0.0,0.0,0.0,0.0,0.0,0.0,0.0,-2.6533,0.0,0.0,0.0,0.0,0.0,-2.5999,-2.4392,0.0,-2.078,-1.8891,-1.6907,0.0,0.0,0.0,0.0,-1.4385,0.0,0.0,0.0,0.0,-1.2406,-1.2447,-1.2501,0.0,0.0,0.0,0.0,0.0,0.0,0.0,-1.2216,-1.1986,-1.1769,-1.1409,-1.0836,-0.9875,-0.8839,-0.7139,-0.4317,-0.3187,-0.226,-0.1461,-0.0536,0.0,0.0,0.0,0.0,0.0,0.0,0.0,0.0,0.0,0.0,0.0,0.0,0.0,0.0,0.0,0.0,0.0,0.0,0.0,0.0,0.0,0.0,0.0,0.0,0.0606,0.1747,0.4359,0.5964,0.7098,0.9709,1.0717,1.0717,0.0,0.0,0.0,0.0,0.0,0.0,0.0,0.0,0.0,0.0,0.0,0.0,0.0,0.0,0.0,0.0,0.0,0.0,0.0,0.0,0.0,0.0,0.0,0.0,0.0,0.0,0.0,0.0,0.0,0.0,0.0,0.0,0.0,0.0,0.0,0.0,0.0,0.0,0.0,0.0,-2.6653,0.0,0.0,0.0,0.0,0.0,0.0,0.0,0.0,-2.2254,-2.0758,-1.9111,-1.9064,0.0,0.0,0.0,0.0,0.0,0.0,-1.2637,-1.2501,-1.2501,-1.2501,-1.2501,-1.2501,0.0,0.0,0.0,0.0,0.0,0.0,-1.2162,-1.1945,-1.1694,-1.1396,-1.0603,-0.8695,-0.8472,-0.7263,-0.3892,-0.3187,-0.2251,-0.0536,-0.0134,0.0,0.0,0.0,0.0,0.0,0.0,0.0,0.0,0.0,0.0,0.0,0.0,0.0,0.0,0.0,0.0,0.0,0.0,0.0,0.0,0.0,0.0,0.0,0.0,0.0,0.0336,0.3689,0.5162,0.5763,0.9111,1.0452,1.0717,0.0,0.0,0.0,0.0,0.0,0.0,0.0,0.0,0.0,0.0,0.0,0.0,0.0,0.0,0.0,0.0,0.0,0.0,0.0,0.0,0.0,0.0,0.0,0.0,0.0,0.0,0.0,0.0,0.0,0.0,-2.4329,-2.3955,-2.4062,0.0,0.0,0.0,0.0,0.0,0.0,0.0,0.0,0.0,0.0,0.0,0.0,0.0,0.0,0.0,0.0,-2.2804,-2.1302,-1.9444,-1.9559,0.0,0.0,0.0,0.0,0.0,-1.3561,-1.2718,-1.2501,-1.2501,-1.2501,-1.2501,-1.2501,0.0,0.0,0.0,0.0,0.0,0.0,-1.2135,-1.185,-1.1809,-1.1552,-1.1184,-1.0541,-1.06,-0.9825,-0.745,-0.5886,-0.4195,-0.231,-0.0801,0.0,0.0,0.0,0.0,0.0,0.0,0.0,0.0,0.0,0.0,0.0,0.0,0.0,0.0,0.0,0.0,0.0,0.0,0.0,0.0,0.0,0.0,0.0,0.0,0.0,0.0202,0.2283,0.4024,0.5629,0.7698,0.9371,1.0717,0.0,0.0,0.0,0.0,0.0,0.0,0.0,0.0,0.0,0.0,0.0,0.0,0.0,0.0,0.0,0.0,0.0,0.0,0.0,0.0,0.0,0.0,0.0,0.0,0.0,0.0,0.0,0.0,0.0,-2.6224,-2.4676,-2.4369,-2.4462,-2.489,0.0,0.0,0.0,0.0,0.0,0.0,0.0,0.0,0.0,0.0,0.0,0.0,0.0,0.0,0.0,0.0,-2.3868,-2.299,-2.3122,0.0,0.0,0.0,0.0,0.0,-1.3909,-1.2739,-1.2501,-1.2501,-1.244,-1.2386,-1.2386,-1.2501,0.0,0.0,0.0,0.0,0.0,0.0,-1.166,-1.1497,-1.1294,-1.1104,-1.09,-1.086,-0.9764,-0.6902,-0.5789,-0.4179,-0.1398,-0.0469,0.0,0.0,0.0,0.0,0.0,0.0,0.0,0.0,0.0,0.0,0.0,0.0,0.0,0.0,0.0,0.0,0.0,0.0,0.0,0.0,0.0,0.0,0.0,0.0,0.0,0.0202,0.2016,0.3823,0.5696,0.8435,0.9981,1.0717,0.0,0.0,0.0,0.0,0.0,0.0,0.0,0.0,0.0,0.0,0.0,0.0,0.0,0.0,0.0,0.0,0.0,0.0,0.0,0.0,0.0,0.0,0.0,0.0,0.0,0.0,0.0,0.0,-2.5518,-2.5117,-2.497,-2.4676,-2.473,0.0,0.0,0.0,0.0,0.0,0.0,-2.6106,0.0,0.0,0.0,0.0,0.0,0.0,0.0,0.0,0.0,0.0,0.0,0.0,0.0,0.0,0.0,0.0,-1.9622,-1.8378,-1.4134,-1.2739,-1.2488,-1.2413,0.0,-1.2298,-1.2332,-1.24,-1.242,0.0,0.0,0.0,0.0,-1.1653,-1.1416,-1.1111,-1.0995,-1.088,-1.088,-1.0744,-0.9312,-0.5852,-0.5255,-0.3777,-0.0336,0.0,0.0,0.0,0.0,0.0,0.0,0.0,0.0,0.0,0.0,0.0,0.0,0.0,0.0,0.0,0.0,0.0,0.0,0.0,0.0,0.0,0.0,0.0,0.0,0.0,0.0,0.0135,0.1545,0.3423,0.5763,0.8906,1.0319,1.0717,0.0,0.0,0.0,0.0,0.0,0.0,0.0,0.0,0.0,0.0,0.0,0.0,0.0,0.0,0.0,0.0,0.0,0.0,0.0,0.0,0.0,0.0,0.0,0.0,0.0,0.0,0.0,0.0,0.0,0.0,-2.4663,-2.4369,-2.4529,0.0,0.0,0.0,0.0,0.0,0.0,-2.6386,-2.6694,0.0,0.0,0.0,0.0,0.0,0.0,0.0,0.0,0.0,0.0,0.0,0.0,0.0,0.0,0.0,-1.9521,-1.8116,-1.4104,-1.2739,-1.2433,-1.2162,-1.2189,-1.2325,-1.2454,-1.2393,0.0,-1.2291,0.0,0.0,-1.1891,-1.1484,-1.1097,-1.0799,-1.086,-1.088,-1.088,-1.086,-0.9549,-0.6005,-0.5467,-0.3954,-0.0336,0.0,0.0,0.0,0.0,0.0,0.0,0.0,0.0,0.0,0.0,0.0,0.0,0.0,0.0,0.0,0.0,0.0,0.0,0.0,0.0,0.0,0.0,0.0,0.0,0.0,0.0,0.0,0.0135,0.235,0.5629,0.7498,0.9238,1.0717,0.0,0.0,0.0,0.0,0.0,0.0,0.0,0.0,0.0,0.0,0.0,0.0,0.0,0.0,0.0,0.0,0.0,0.0,0.0,0.0,0.0,0.0,0.0,0.0,0.0,0.0,0.0,0.0,0.0,0.0,0.0,0.0,0.0,0.0,0.0,0.0,0.0,0.0,0.0,-2.5919,-2.676,-2.7161,0.0,0.0,0.0,0.0,0.0,0.0,0.0,0.0,-2.6386,0.0,0.0,0.0,0.0,0.0,-1.8533,-1.6527,-1.3576,-1.2664,-1.2454,-1.225,-1.2101,0.0,0.0,-1.2115,-1.2121,-1.2026,-1.2081,-1.2026,-1.1633,-1.1341,-1.1193,-1.1016,-1.0968,-1.088,-1.088,-1.0799,-0.9454,-0.5874,-0.5446,-0.3957,-0.0336,0.0,0.0,0.0,0.0,0.0,0.0,0.0,0.0,0.0,0.0,0.0,0.0,0.0,0.0,0.0,0.0,0.0,0.0,0.0,0.0,0.0,0.0,0.0,0.0,0.0,0.0,0.0135,0.121,0.3222,0.5629,0.7365,0.9172,1.0518,0.0,0.0,0.0,0.0,0.0,0.0,0.0,0.0,0.0,0.0,0.0,0.0,0.0,0.0,0.0,0.0,0.0,0.0,0.0,0.0,0.0,0.0,0.0,0.0,0.0,0.0,0.0,0.0,0.0,0.0,0.0,0.0,0.0,0.0,0.0,0.0,0.0,0.0,0.0,-2.5879,-2.6867,-2.7268,0.0,0.0,0.0,0.0,0.0,0.0,0.0,0.0,-2.6386,0.0,0.0,0.0,0.0,0.0,0.0,-1.5437,-1.3269,-1.2617,-1.2467,0.0,0.0,0.0,-1.1775,-1.1884,-1.1959,-1.185,-1.1843,-1.1742,-1.1382,-1.1158,-1.1023,-1.1023,-1.0941,-1.0806,-1.0806,-1.0785,-0.9377,-0.583,-0.5429,-0.3957,-0.0336,0.0,0.0,0.0,0.0,0.0,0.0,0.0,0.0,0.0,0.0,0.0,0.0,0.0,0.0,0.0,0.0,0.0,0.0,0.0,0.0,0.0,0.0,0.0,0.0,0.0,0.0,0.0135,0.1344,0.2954,0.4693,0.5893,0.7831,0.9576,0.0,0.0,0.0,0.0,0.0,0.0,0.0,0.0,0.0,0.0,0.0,0.0,0.0,0.0,0.0,0.0,0.0,0.0,0.0,0.0,0.0,0.0,0.0,0.0,0.0,0.0,0.0,0.0,0.0,0.0,0.0,0.0,0.0,0.0,0.0,0.0,0.0,0.0,0.0,-2.644,-2.7028,-2.7255,-2.7321,0.0,0.0,0.0,0.0,0.0,0.0,0.0,-2.6386,-2.5977,0.0,0.0,0.0,0.0,-1.6115,-1.5282,-1.3269,-1.2617,-1.2467,0.0,0.0,0.0,-1.1647,-1.1728,-1.183,-1.183,-1.1592,-1.1341,-1.1192,-1.0921,-1.0717,-1.0717,-1.0717,-1.0717,-1.0717,-1.0717,-0.9377,-0.583,-0.5429,-0.3957,-0.0336,0.0,0.0,0.0,0.0,0.0,0.0,0.0,0.0,0.0,0.0,0.0,0.0,0.0,0.0,0.0,0.0,0.0,0.0,0.0,0.0,0.0,0.0,0.0,0.0,0.0,0.0,0.0,0.0,0.1076,0.2685,0.2685,0.4958,0.7698,0.0,0.0,0.0,0.0,0.0,0.0,0.0,0.0,0.0,0.0,0.0,0.0,0.0,0.0,0.0,0.0,0.0,0.0,0.0,0.0,0.0,0.0,0.0,0.0,0.0,0.0,0.0,0.0,0.0,0.0,0.0,0.0,0.0,-2.6266,0.0,0.0,0.0,0.0,0.0,-2.6119,-2.6493,-2.6774,-2.7001,0.0,0.0,0.0,0.0,0.0,0.0,0.0,0.0,0.0,0.0,0.0,0.0,-1.7048,-1.4908,-1.3332,-1.2725,-1.2535,-1.2467,-1.2325,0.0,0.0,0.0,-1.1491,0.0,0.0,-1.1443,-1.1219,-1.1241,-1.0921,-1.0717,-1.0717,-1.0717,-1.0717,-1.0717,-1.0717,-0.9377,-0.583,-0.5429,-0.3957,-0.0336,0.0,0.0,0.0,0.0,0.0,0.0,0.0,0.0,0.0,0.0,0.0,0.0,0.0,0.0,0.0,0.0,0.0,0.0,0.0,0.0,0.0,0.0,0.0,0.0,0.0,0.0,0.0,0.0,0.1076,0.2685,0.2685,0.4158,0.5897,0.0,0.0,0.0,0.0,0.0,0.0,0.0,0.0,0.0,0.0,0.0,0.0,0.0,0.0,0.0,0.0,0.0,0.0,0.0,0.0,0.0,0.0,0.0,0.0,0.0,0.0,0.0,0.0,0.0,0.0,0.0,0.0,0.0,0.0,0.0,0.0,0.0,0.0,0.0,-2.6159,-2.644,-2.6667,-2.6854,0.0,0.0,0.0,0.0,0.0,0.0,0.0,0.0,0.0,0.0,0.0,0.0,-1.583,-1.3842,-1.2671,-1.261,-1.2549,0.0,-1.2393,-1.1993,-1.1552,-1.128,0.0,0.0,-1.1497,-1.1335,-1.1214,-1.109,-1.088,-1.0717,-1.0717,-1.0717,-1.0717,-1.0717,-1.0047,-0.8568,-0.5763,-0.4736,-0.3193,-0.0267,0.0,0.0,0.0,0.0,0.0,0.0,0.0,0.0,0.0,0.0,0.0,0.0,0.0,0.0,0.0,0.0,0.0,0.0,0.0,0.0,0.0,0.0,0.0,0.0,0.0,0.0,0.0,0.0,0.0672,0.1613,0.1613,0.2752,0.4091,0.0,0.0,0.0,0.0,0.0,0.0,0.0,0.0,0.0,0.0,0.0,0.0,0.0,0.0,0.0,0.0,0.0,0.0,0.0,0.0,0.0,0.0,0.0,0.0,0.0,0.0,0.0,0.0,0.0,0.0,0.0,0.0,0.0,0.0,0.0,-2.6386,0.0,0.0,0.0,-2.6413,-2.6653,-2.676,-2.6814,-2.7081,0.0,0.0,0.0,0.0,0.0,0.0,0.0,0.0,0.0,0.0,-1.8746,-1.4318,-1.2949,-1.2908,-1.2766,-1.2617,-1.2508,-1.2522,-1.2067,-1.1504,-1.0981,-1.105,-1.1185,-1.1341,-1.1246,-1.1104,-1.09,-1.0759,-1.0717,-1.0717,-1.0717,-1.0717,-1.0717,-0.9293,-0.755,-0.5619,-0.3902,-0.2165,-0.0197,0.0,0.0,0.0,0.0,0.0,0.0,0.0,0.0,0.0,0.0,0.0,0.0,0.0,0.0,0.0,0.0,0.0,0.0,0.0,0.0,0.0,0.0,0.0,0.0,0.0,0.0,0.0,0.0,0.0,0.0,0.0,0.1009,0.2216,0.0,0.0,0.0,0.0,0.0,0.0,0.0,0.0,0.0,0.0,0.0,0.0,0.0,0.0,0.0,0.0,0.0,0.0,0.0,0.0,0.0,0.0,0.0,0.0,0.0,0.0,0.0,0.0,0.0,0.0,0.0,0.0,0.0,0.0,0.0,0.0,0.0,0.0,0.0,0.0,-2.6213,-2.6279,-2.6493,-2.656,-2.5471,0.0,0.0,0.0,0.0,0.0,0.0,0.0,-1.8679,-1.7196,-1.6644,-1.3807,-1.2874,-1.2773,0.0,-1.2617,0.0,0.0,-1.2149,-1.1504,-1.0981,-1.09,-1.1036,-1.1179,-1.1097,-1.0921,-1.0887,-1.0759,-1.0717,-1.0717,-1.0717,-1.0717,-1.0717,-1.028,-0.8824,-0.5734,-0.4946,-0.3357,-0.0324,0.0,0.0,0.0,0.0,0.0,0.0,0.0,0.0,0.0,0.0,0.0,0.0,0.0,0.0,0.0,0.0,0.0,0.0,0.0,0.0,0.0,0.0,0.0,0.0,0.0,0.0,0.0,0.0,0.0,0.0,0.0,0.0269,0.0538,0.0,0.0,0.0,0.0,0.0,0.0,0.0,0.0,0.0,0.0,0.0,0.0,0.0,0.0,0.0,0.0,0.0,0.0,0.0,0.0,0.0,0.0,0.0,0.0,0.0,0.0,0.0,0.0,0.0,0.0,0.0,0.0,0.0,0.0,0.0,0.0,0.0,0.0,0.0,0.0,-2.6226,-2.6253,-2.6307,-2.5251,-2.4111,0.0,0.0,0.0,0.0,0.0,0.0,0.0,0.0,0.0,-1.6056,-1.3661,-1.2901,0.0,0.0,0.0,0.0,-1.2332,0.0,-1.1538,-1.1233,-1.1104,-1.107,-1.1145,-1.105,-1.086,-1.0853,-1.0772,-1.0717,-1.0717,-1.0717,-1.0717,-1.0717,-0.9185,-0.7398,-0.5581,-0.3761,-0.1931,-0.0194,0.0,0.0,0.0,0.0,0.0,0.0,0.0,0.0,0.0,0.0,0.0,0.0,0.0,0.0,0.0,0.0,0.0,0.0,0.0,0.0,0.0,0.0,0.0,0.0,0.0,0.0,0.0,0.0,0.0,0.0,0.0,0.0,0.0,0.0,0.0,0.0,0.0,0.0,0.0,0.0,0.0,0.0,0.0,0.0,0.0,0.0,0.0,0.0,0.0,0.0,0.0,0.0,0.0,0.0,0.0,0.0,0.0,0.0,0.0,0.0,0.0,0.0,0.0,0.0,0.0,0.0,0.0,0.0,0.0,0.0,0.0,0.0,0.0,0.0,0.0,0.0,0.0,0.0,0.0,0.0,0.0,-1.9258,-1.8933,0.0,0.0,0.0,0.0,-1.5641,-1.3559,-1.2922,0.0,0.0,0.0,-1.2433,-1.1986,-1.1782,0.0,-1.1504,-1.1348,-1.1233,-1.1206,-1.1063,-1.0833,-1.0751,-1.0717,-1.0717,-1.0717,-1.0717,-1.0711,-1.0683,-0.7857,-0.5694,-0.5414,-0.2449,-0.0321,0.0,0.0,0.0,0.0,0.0,0.0,0.0,0.0,0.0,0.0,0.0,0.0,0.0,0.0,0.0,0.0,0.0,0.0,0.0,0.0,0.0,0.0,0.0,0.0,0.0,0.0,0.0,0.0,0.0,0.0,0.0,0.0,0.0,0.0,0.0,0.0,0.0,0.0,0.0,0.0,0.0,0.0,0.0,0.0,0.0,0.0,0.0,0.0,0.0,0.0,0.0,0.0,0.0,0.0,0.0,0.0,0.0,0.0,0.0,0.0,0.0,0.0,0.0,0.0,0.0,0.0,0.0,0.0,0.0,0.0,0.0,0.0,0.0,0.0,0.0,0.0,0.0,0.0,0.0,0.0,0.0,0.0,-1.6729,-1.4871,-1.5514,0.0,0.0,0.0,-1.3545,-1.2927,-1.2759,0.0,0.0,0.0,-1.2589,0.0,-1.202,-1.1965,0.0,0.0,-1.1518,-1.1389,-1.1145,-1.0833,-1.0751,-1.0717,-1.0717,-1.0717,-1.0717,-1.0677,-1.0541,-0.8781,-0.6869,-0.5315,-0.3371,-0.1621,-0.0127,0.0,0.0,0.0,0.0,0.0,0.0,0.0,0.0,0.0,0.0,0.0,0.0,0.0,0.0,0.0,0.0,0.0,0.0,0.0,0.0,0.0,0.0,0.0,0.0,0.0,0.0,0.0,0.0,0.0,0.0,0.0,0.0,0.0,0.0,0.0,0.0,0.0,0.0,0.0,0.0,0.0,0.0,0.0,0.0,0.0,0.0,0.0,0.0,0.0,0.0,0.0,0.0,0.0,0.0,0.0,0.0,0.0,0.0,0.0,0.0,0.0,0.0,0.0,0.0,-2.5344,-2.5344,0.0,0.0,0.0,0.0,0.0,0.0,0.0,0.0,0.0,0.0,0.0,0.0,0.0,0.0,0.0,-1.4564,-1.3596,-1.3981,-1.4593,-1.354,0.0,0.0,0.0,-1.2732,0.0,-1.2623,-1.2603,-1.2535,0.0,-1.2189,-1.2149,-1.1993,-1.1843,-1.1674,-1.1436,-1.1219,-1.0995,-1.0765,-1.0717,-1.0717,-1.0717,-1.0717,-1.0359,-0.9228,-0.759,-0.5805,-0.3954,-0.2155,-0.0822,-0.0063,0.0,0.0,0.0,0.0,0.0,0.0,0.0,0.0,0.0,0.0,0.0,0.0,0.0,0.0,0.0,0.0,0.0,0.0,0.0,0.0,0.0,0.0,0.0,0.0,0.0,0.0,0.0,0.0,0.0,0.0,0.0,0.0,0.0,0.0,0.0,0.0,0.0,0.0,0.0,0.0,0.0,0.0,0.0,0.0,0.0,0.0,0.0,0.0,0.0,0.0,0.0,0.0,0.0,0.0,0.0,0.0,0.0,0.0,0.0,0.0,0.0,0.0,0.0,-2.5277,-2.4997,-2.4863,0.0,-2.501,0.0,0.0,0.0,0.0,0.0,0.0,0.0,0.0,0.0,0.0,0.0,0.0,-1.2908,-1.3017,-1.3091,-1.3193,-1.3261,-1.3112,-1.3057,0.0,0.0,0.0,0.0,0.0,0.0,-1.2474,-1.2372,-1.2372,-1.2372,0.0,0.0,-1.1972,-1.1681,-1.1436,-1.1185,-1.0887,-1.0772,-1.0717,-1.0717,-1.0313,-0.9564,-0.8127,-0.6062,-0.4224,-0.2824,-0.109,0.0,0.0,0.0,0.0,0.0,0.0,0.0,0.0,0.0,0.0,0.0,0.0,0.0,0.0,0.0,0.0,0.0,0.0,0.0,0.0,0.0,0.0,0.0,0.0,0.0,0.0,0.0,0.0,0.0,0.0,0.0,0.0,0.0,0.0,0.0,0.0,0.0,0.0,0.0,0.0,0.0,0.0,0.0,0.0,0.0,0.0,0.0,0.0,0.0,0.0,0.0,0.0,0.0,0.0,0.0,0.0,0.0,0.0,0.0,0.0,0.0,0.0,0.0,0.0,0.0,-2.4676,-2.4382,-2.4249,-2.4275,-2.4836,-2.493,-2.4663,0.0,0.0,0.0,0.0,0.0,0.0,0.0,0.0,0.0,0.0,-1.2528,-1.2583,-1.2874,-1.3056,-1.2956,-1.28,-1.2752,-1.2718,0.0,0.0,0.0,0.0,-1.24,0.0,-1.2494,0.0,0.0,0.0,0.0,-1.2603,-1.2305,-1.1898,-1.1504,-1.1199,-1.0907,-1.0717,-1.0717,-0.9238,-0.8061,-0.7827,-0.4926,-0.2734,-0.253,-0.101,0.0,0.0,0.0,0.0,0.0,0.0,0.0,0.0,0.0,0.0,0.0,0.0,0.0,0.0,0.0,0.0,0.0,0.0,0.0,0.0,0.0,0.0,0.0,0.0,0.0,0.0,0.0,0.0,0.0,0.0,0.0,0.0,0.0,0.0,0.0,0.0,0.0,0.0,0.0,0.0,0.0,0.0,0.0,0.0,0.0,0.0,0.0,0.0,0.0,0.0,0.0,0.0,0.0,0.0,0.0,0.0,0.0,0.0,0.0,0.0,0.0,0.0,0.0,0.0,-2.5304,-2.5184,-2.4703,-2.4382,-2.4209,-2.4422,-2.4356,-2.4075,-2.4075,0.0,0.0,0.0,0.0,0.0,0.0,0.0,-1.166,-1.1864,-1.206,-1.2237,-1.2345,-1.2576,-1.2786,-1.263,-1.2651,-1.2698,-1.2549,-1.2501,0.0,0.0,0.0,0.0,-1.2623,-1.2691,-1.2759,-1.2854,-1.2725,-1.2501,-1.2203,-1.1864,-1.1497,-1.1097,-1.086,-1.0717,-1.0717,-0.9172,-0.7616,-0.6456,-0.4193,-0.2242,-0.1027,-0.0384,0.0,0.0,0.0,0.0,0.0,0.0,0.0,0.0,0.0,0.0,0.0,0.0,0.0,0.0,0.0,0.0,0.0,0.0,0.0,0.0,0.0,0.0,0.0,0.0,0.0,0.0,0.0,0.0,0.0,0.0,0.0,0.0,0.0,0.0,0.0,0.0,0.0,0.0,0.0,0.0,0.0,0.0,0.0,0.0,0.0,0.0,0.0,0.0,0.0,0.0,0.0,0.0,0.0,0.0,0.0,0.0,0.0,0.0,0.0,0.0,0.0,0.0,0.0,0.0,0.0,0.0,0.0,-2.4529,-2.4342,-2.4342,-2.4075,0.0,0.0,0.0,-2.2408,0.0,0.0,-1.6199,0.0,0.0,-1.1192,-1.1396,-1.1592,-1.1775,-1.1877,-1.2115,-1.2345,-1.2291,-1.2379,0.0,0.0,0.0,0.0,-1.2433,0.0,0.0,0.0,0.0,-1.2834,-1.2935,-1.284,-1.2644,-1.2345,-1.2013,-1.1647,-1.1177,-1.09,-1.0578,-0.9921,-0.8302,-0.6498,-0.476,-0.2954,-0.133,-0.013,0.0,0.0,0.0,0.0,0.0,0.0,0.0,0.0,0.0,0.0,0.0,0.0,0.0,0.0,0.0,0.0,0.0,0.0,0.0,0.0,0.0,0.0,0.0,0.0,0.0,0.0,0.0,0.0,0.0,0.0,0.0,0.0,0.0,0.0,0.0,0.0,0.0,0.0,0.0,0.0,0.0,0.0,0.0,0.0,0.0,0.0,0.0,0.0,0.0,0.0,0.0,0.0,0.0,0.0,0.0,0.0,0.0,0.0,0.0,0.0,0.0,0.0,0.0,0.0,0.0,0.0,0.0,0.0,-2.4636,0.0,-2.4549,-2.4142,-2.32,0.0,-2.058,-2.0133,0.0,-1.419,-1.4077,0.0,-1.0717,-1.0758,-1.1043,-1.122,-1.1199,-1.1497,-1.1606,-1.164,-1.1782,0.0,0.0,0.0,0.0,0.0,0.0,0.0,0.0,0.0,0.0,0.0,-1.2963,0.0,-1.3085,-1.2786,-1.2372,-1.1979,-1.1674,-1.119,-1.0225,-0.8261,-0.6502,-0.476,-0.2954,-0.1143,0.0,0.0,0.0,0.0,0.0,0.0,0.0,0.0,0.0,0.0,0.0,0.0,0.0,0.0,0.0,0.0,0.0,0.0,0.0,0.0,0.0,0.0,0.0,0.0,0.0,0.0,0.0,0.0,0.0,0.0,0.0,0.0,0.0,0.0,0.0,0.0,0.0,0.0,0.0,0.0,0.0,0.0,0.0,0.0,0.0,0.0,0.0,0.0,0.0,0.0,-2.5758,-2.5758,0.0,0.0,0.0,0.0,0.0,0.0,0.0,0.0,0.0,0.0,0.0,0.0,0.0,0.0,0.0,0.0,0.0,0.0,0.0,0.0,-2.4422,-2.4075,-2.3647,-2.3138,0.0,-1.9771,-1.712,-1.5171,0.0,0.0,-1.0717,-1.0731,-1.0812,-1.0914,-1.1023,-1.1035,-1.128,-1.1497,-1.1748,0.0,0.0,0.0,0.0,0.0,-1.2413,0.0,0.0,0.0,0.0,0.0,-1.2963,-1.299,-1.2935,-1.263,-1.2386,-1.2101,-1.1694,-1.0349,-0.8617,-0.6566,-0.5769,-0.476,-0.2954,-0.1143,0.0,0.0,0.0,0.0,0.0,0.0,0.0,0.0,0.0,0.0,0.0,0.0,0.0,0.0,0.0,0.0,0.0,0.0,0.0,0.0,0.0,0.0,0.0,0.0,0.0,0.0,0.0,0.0,0.0,0.0,0.0,0.0,0.0,0.0,0.0,0.0,0.0,0.0,0.0,0.0,0.0,0.0,0.0,0.0,0.0,0.0,0.0,0.0,0.0,0.0,0.0,0.0,0.0,0.0,0.0,0.0,0.0,0.0,0.0,0.0,-2.6132,0.0,0.0,0.0,0.0,0.0,0.0,0.0,0.0,0.0,0.0,0.0,0.0,0.0,0.0,0.0,0.0,0.0,-1.5583,0.0,0.0,-1.1171,-1.0717,-1.0717,-1.0717,-1.0778,-1.0786,-1.0786,-1.1009,-1.1246,-1.1477,0.0,0.0,0.0,0.0,0.0,0.0,0.0,0.0,0.0,0.0,0.0,-1.304,-1.2995,-1.2874,-1.2562,-1.2386,-1.2169,-1.1782,-1.0029,-0.805,-0.5926,-0.4887,-0.3663,-0.1849,-0.0681,0.0,0.0,0.0,0.0,0.0,0.0,0.0,0.0,0.0,0.0,0.0,0.0,0.0,0.0,0.0,0.0,0.0,0.0,0.0,0.0,0.0,0.0,0.0,0.0,0.0,0.0,0.0,0.0,0.0,0.0,0.0,0.0,0.0,0.0,0.0,0.0,0.0,0.0,0.0,0.0,0.0,0.0,0.0,0.0,0.0,0.0,0.0,0.0,-2.5291,-2.5464,0.0,0.0,0.0,0.0,0.0,0.0,0.0,0.0,0.0,-2.6373,-2.6386,-2.6386,0.0,0.0,0.0,0.0,0.0,0.0,0.0,0.0,0.0,0.0,0.0,0.0,0.0,0.0,0.0,-1.6383,-1.2927,-1.1269,0.0,-1.0772,-1.0717,-1.0717,-1.0717,-1.0717,-1.0717,-1.0717,-1.0819,-1.0975,-1.1118,-1.128,-1.1497,0.0,-1.206,0.0,0.0,0.0,0.0,0.0,-1.2847,0.0,-1.301,-1.2934,-1.2788,-1.2562,-1.24,-1.2223,-1.1932,-1.0149,-0.8148,-0.6327,-0.4189,-0.2092,-0.0282,0.0,0.0,0.0,0.0,0.0,0.0,0.0,0.0,0.0,0.0,0.0,0.0,0.0,0.0,0.0,0.0,0.0,0.0,0.0,0.0,0.0,0.0,0.0,0.0,0.0,0.0,0.0,0.0,0.0,0.0,0.0,0.0,0.0,0.0,0.0,0.0,0.0,0.0,0.0,0.0,0.0,0.0,0.0,0.0,0.0,0.0,0.0,0.0,0.0,0.0,0.0,0.0,0.0,0.0,0.0,0.0,0.0,0.0,0.0,-2.5838,-2.6373,-2.6386,-2.6386,-2.6386,0.0,0.0,0.0,0.0,0.0,0.0,0.0,0.0,0.0,0.0,0.0,0.0,0.0,0.0,-1.455,-1.3763,-1.2346,-1.0765,-1.0731,-1.0717,-1.0717,-1.0717,-1.0717,-1.0717,-1.0717,-1.0819,-1.0975,-1.1118,-1.1355,-1.1613,-1.1816,0.0,0.0,0.0,0.0,0.0,-1.2691,-1.2847,0.0,-1.2845,-1.2847,-1.2874,-1.2562,-1.2481,-1.2406,-1.223,-1.05,-0.8961,-0.8558,-0.536,-0.217,-0.0286,0.0,0.0,0.0,0.0,0.0,0.0,0.0,0.0,0.0,0.0,0.0,0.0,0.0,0.0,0.0,0.0,0.0,0.0,0.0,0.0,0.0,0.0,0.0,0.0,0.0,0.0,0.0,0.0,0.0,0.0,0.0,0.0,0.0,0.0,0.0,0.0,0.0,0.0,0.0,0.0,0.0,0.0,0.0,0.0,0.0,0.0,0.0,0.0,0.0,0.0,0.0,0.0,0.0,0.0,0.0,0.0,0.0,0.0,0.0,-2.5491,-2.5932,-2.6092,-2.6106,-2.5959,-2.6239,0.0,0.0,0.0,0.0,0.0,0.0,0.0,0.0,0.0,0.0,0.0,0.0,-1.6012,-1.4009,-1.3033,0.0,-1.0717,-1.0717,-1.0717,-1.0717,-1.0717,-1.0717,-1.0717,-1.0717,-1.0772,-1.0873,-1.109,-1.1267,-1.145,-1.1742,-1.1993,-1.2196,0.0,-1.2447,-1.263,-1.2712,-1.2901,0.0,0.0,-1.2963,-1.3003,-1.2779,-1.2671,-1.2569,-1.242,-1.0732,-0.8895,-0.7755,-0.4993,-0.2331,-0.0298,0.0,0.0,0.0,0.0,0.0,0.0,0.0,0.0,0.0,0.0,0.0,0.0,0.0,0.0,0.0,0.0,0.0,0.0,0.0,0.0,0.0,0.0,0.0,0.0,0.0,0.0,0.0,0.0,0.0,0.0,0.0,0.0,0.0,0.0,0.0,0.0,0.0,0.0,0.0,0.0,0.0,0.0,0.0,0.0,0.0,0.0,0.0,0.0,0.0,0.0,0.0,0.0,0.0,0.0,0.0,0.0,0.0,0.0,0.0,-2.501,0.0,0.0,-2.5705,-2.5358,-2.5919,-2.5852,0.0,0.0,0.0,0.0,0.0,0.0,0.0,0.0,0.0,0.0,0.0,0.0,-1.3461,0.0,-1.0975,-1.0758,-1.0731,-1.0717,-1.0717,-1.0717,-1.0717,-1.0717,-1.0717,-1.0717,-1.0765,-1.1036,-1.1158,-1.1274,-1.164,-1.1918,-1.2128,-1.2223,-1.2481,-1.2739,-1.2852,-1.2976,-1.3139,0.0,0.0,0.0,-1.299,-1.284,-1.2691,-1.2569,-1.0779,-0.8924,-0.7455,-0.5186,-0.3187,-0.1927,-0.1442,-0.09,-0.0075,0.0,0.0,0.0,0.0,0.0,0.0,0.0,0.0,0.0,0.0,0.0,0.0,0.0,0.0,0.0,0.0,0.0,0.0,0.0,0.0,0.0,0.0,0.0,0.0,0.0,0.0,0.0,0.0,0.0,0.0,0.0,0.0,0.0,0.0,0.0,0.0,-2.4529,-2.4195,0.0,0.0,0.0,0.0,0.0,0.0,0.0,0.0,0.0,0.0,0.0,0.0,0.0,0.0,0.0,0.0,-2.3888,-2.4155,0.0,0.0,0.0,-2.5304,-2.4669,-2.5317,-2.5438,-2.5077,0.0,0.0,0.0,0.0,0.0,0.0,-2.1152,0.0,0.0,0.0,-1.3255,0.0,-1.1098,-1.0887,0.0,-1.0772,-1.0717,-1.0717,-1.0717,-1.0717,-1.0717,-1.0717,-1.0717,-1.0751,-1.0853,-1.1151,-1.1375,-1.1423,-1.183,-1.2237,-1.2121,-1.2406,-1.2766,-1.2901,-1.3057,-1.3166,-1.3152,0.0,-1.3132,-1.299,0.0,-1.2725,-1.2705,0.0,0.0,-1.1365,-0.822,-0.6225,-0.7901,-0.6649,-0.4169,-0.0455,0.0,0.0,0.0,0.0,0.0,0.0,0.0,0.0,0.0,0.0,0.0,0.0,0.0,0.0,0.0,0.0,0.0,0.0,0.0,0.0,0.0,0.0,0.0,0.0,0.0,0.0,0.0,0.0,0.0,0.0,0.0,0.0,0.0,0.0,0.0,0.0,-2.3825,-2.4048,0.0,0.0,0.0,0.0,0.0,0.0,0.0,0.0,0.0,0.0,0.0,-2.3995,-2.3714,0.0,-2.3033,-2.3166,-2.3233,-2.3688,0.0,0.0,-2.4796,-2.5064,-2.4649,-2.5211,-2.5291,-2.4823,-2.4997,0.0,0.0,0.0,0.0,0.0,-2.0798,0.0,-1.6716,0.0,-1.2933,0.0,0.0,-1.088,-1.086,-1.0778,-1.0717,-1.0717,-1.0717,-1.0663,-1.0602,-1.069,-1.0663,-1.0629,-1.0806,-1.1036,-1.1151,-1.1233,-1.1565,-1.1904,-1.1925,-1.2318,-1.2745,-1.2807,-1.3003,-1.3152,-1.3071,-1.2983,-1.2922,-1.2956,0.0,0.0,0.0,0.0,0.0,0.0,-0.9246,-0.7972,-0.7606,-0.6781,-0.5612,-0.3861,-0.2532,-0.13,-0.0153,0.0,0.0,0.0,0.0,0.0,0.0,0.0,0.0,0.0,0.0,0.0,0.0,0.0,0.0,0.0,0.0,0.0,0.0,0.0,0.0,0.0,0.0,0.0,0.0,0.0,0.0,0.0,0.0,0.0,0.0,0.0,0.0,0.0,0.0,0.0,0.0,0.0,0.0,0.0,0.0,0.0,0.0,0.0,0.0,0.0,-2.3581,-2.3567,-2.33,-2.2633,-2.2632,-2.2659,-2.2579,-2.3073,-2.3327,-2.3166,-2.4168,-2.4502,-2.4035,-2.477,-2.4943,0.0,0.0,0.0,0.0,0.0,0.0,0.0,0.0,-1.7916,-1.5846,0.0,-1.2392,-1.109,-1.0941,-1.0793,-1.0745,-1.0744,-1.0697,-1.0663,-1.0704,-1.0622,-1.0507,-1.0622,-1.0582,-1.0527,-1.0751,-1.0813,-1.09,0.0,0.0,0.0,-1.1735,-1.2149,-1.2556,-1.2603,-1.28,-1.2976,-1.2908,-1.2779,-1.2725,-1.2922,-1.284,0.0,0.0,0.0,0.0,0.0,0.0,-0.9189,-0.8141,-0.7972,-0.7345,-0.563,-0.3564,-0.1695,-0.0154,0.0,0.0,0.0,0.0,0.0,0.0,0.0,0.0,0.0,0.0,0.0,0.0,0.0,0.0,0.0,0.0,0.0,0.0,0.0,0.0,0.0,0.0,0.0,0.0,0.0,0.0,0.0,0.0,0.0,0.0,0.0,0.0,0.0,-1.7847,-1.9386,0.0,0.0,0.0,0.0,0.0,0.0,0.0,-2.3392,-2.1944,-2.1224,-2.2789,-2.2392,-2.1937,-2.1681,-2.1336,-2.1296,-2.1641,-2.2138,-2.2205,-2.1708,-2.3102,-2.3394,-2.2512,-2.3647,-2.4235,0.0,0.0,0.0,0.0,0.0,0.0,0.0,-1.8052,-1.6008,-1.4119,-1.1952,-1.0955,-1.0873,-1.0785,-1.0636,-1.0521,-1.0663,-1.0629,-1.0521,-1.067,-1.0622,-1.0493,-1.0493,-1.0493,-1.0493,-1.0507,-1.0711,-1.088,-1.0887,-1.1165,-1.143,-1.1586,-1.185,-1.2121,-1.2271,-1.2413,-1.2562,-1.2705,-1.2617,-1.2596,-1.2901,-1.284,-1.2779,-1.2935,0.0,0.0,0.0,0.0,0.0,0.0,-1.2269,-1.007,-0.391,-0.1396,-0.0077,0.0,0.0,0.0,0.0,0.0,0.0,0.0,0.0,0.0,0.0,0.0,0.0,0.0,0.0,0.0,0.0,0.0,0.0,0.0,0.0,0.0,0.0,0.0,0.0,0.0,0.0,0.0,0.0,0.0,0.0,0.0,0.0,0.0,0.0,0.0,0.0,0.0,0.0,0.0,0.0,0.0,-2.0936,-2.0662,-2.3122,-2.1724,-2.0983,-2.215,-2.2271,-2.2004,-2.1323,-2.1349,-2.1363,-2.1269,-2.1804,-2.2044,-2.1844,-2.2767,-2.3126,-2.302,-2.342,-2.3714,-2.3915,-2.3915,0.0,0.0,0.0,0.0,0.0,0.0,-1.4653,0.0,0.0,0.0,0.0,-1.0629,-1.048,-1.0371,-1.0514,-1.0534,-1.0487,-1.0446,-1.0399,-1.0351,-1.0351,-1.0283,-1.0236,-1.0432,-1.0561,-1.0663,-1.0765,-1.0941,-1.1151,-1.1402,-1.1681,-1.1918,-1.1972,-1.2176,-1.2325,-1.2169,-1.2094,-1.2142,-1.2454,-1.2474,-1.2549,-1.2895,0.0,0.0,0.0,0.0,0.0,0.0,-1.1383,-0.9656,-0.7415,-0.5388,-0.3067,-0.0305,0.0,0.0,0.0,0.0,0.0,0.0,0.0,0.0,0.0,0.0,0.0,0.0,0.0,0.0,0.0,0.0,0.0,0.0,0.0,0.0,0.0,0.0,0.0,0.0,0.0,0.0,0.0,0.0,0.0,0.0,0.0,0.0,0.0,-1.1538,0.0,0.0,0.0,-1.6895,-1.9116,-2.179,-2.0509,-2.0122,-2.2661,-2.1289,-2.0537,-2.1846,-2.2058,-2.1844,-2.1162,-2.1283,-2.1269,-2.0975,-2.151,-2.179,-2.1683,-2.2231,-2.2592,-2.2699,-2.2899,-2.2809,-2.2351,-2.3007,-2.2605,0.0,0.0,0.0,0.0,0.0,-1.3667,-1.2917,-1.1496,-1.0819,0.0,0.0,-1.0405,-1.0283,-1.0317,-1.0331,-1.0331,-1.029,-1.0243,-1.0202,-1.0202,-1.0134,-1.0031,-1.0337,-1.0453,-1.0521,-1.0677,-1.0792,-1.0921,-1.1165,-1.1375,-1.1531,-1.1579,-1.1299,-1.1037,-1.1563,-1.0612,-0.9937,-1.0921,-1.1177,-1.1403,-1.1767,0.0,0.0,0.0,0.0,0.0,0.0,-1.1346,-1.0141,-0.929,-0.7414,-0.4861,-0.1354,-0.1622,-0.1741,-0.1008,-0.0995,-0.0984,-0.0974,-0.0347,0.0,0.0,0.0,0.0,0.0,0.0,0.0,0.0,0.0,0.0,0.0,0.0,0.0,0.0,0.0,0.0,0.0,0.0,0.0,0.0,0.0,0.0,0.0,0.0,0.0,0.0,0.0,0.0,-1.1642,-1.1923,-1.3578,-1.6065,-1.9861,-1.8568,-1.84,-2.1947,-2.0513,-1.9875,-2.174,-2.1748,-2.1454,-2.1109,-2.1069,-2.0949,-2.0695,-2.1266,-2.139,-2.1122,-2.1643,-2.1817,-2.1628,-2.2098,-2.1478,-1.9776,-2.1424,0.0,0.0,0.0,0.0,0.0,-1.4142,0.0,-1.1234,-1.1158,-1.0989,-1.0717,-1.0548,-1.0399,-1.0263,-1.01,-0.9977,-0.9997,-1.0202,-1.0168,-0.9984,-0.9977,-0.9977,-1.0004,-1.0222,-1.0365,-1.0514,-1.0663,-1.0717,-1.0751,-1.084,-1.088,-1.0914,-1.1049,-0.9763,-0.8959,-1.0697,-0.8373,-0.6348,-0.8348,-0.9086,-0.9387,-0.9547,-1.1451,0.0,0.0,0.0,0.0,0.0,0.0,-1.1587,-0.9579,-0.7435,-0.5325,-0.3265,-0.4606,-0.4809,-0.2873,-0.2756,-0.2674,-0.2542,-0.0904,0.0,0.0,0.0,0.0,0.0,0.0,0.0,0.0,0.0,0.0,0.0,0.0,0.0,0.0,0.0,0.0,0.0,0.0,0.0,0.0,0.0,0.0,0.0,0.0,0.0,0.0,-1.1219,-1.248,-1.4258,-1.6841,-1.6867,-1.7832,-2.1628,-2.0347,-1.9675,-2.1793,-2.0162,-1.9458,-2.1157,-2.1082,-2.0869,-2.0802,-2.0588,-2.0521,-2.0668,-2.0815,-2.0962,-2.1109,-2.1256,-2.1403,-2.1614,-2.1762,-2.1069,-1.9504,-1.9917,0.0,-1.7133,0.0,0.0,0.0,0.0,0.0,-1.1158,-1.105,-1.0962,-1.0793,-1.0487,-1.031,-1.0249,-0.9985,-0.9876,-0.9883,-0.9924,-0.9985,-0.997,-0.9856,-0.9876,-0.991,-1.0059,-1.0215,-1.0365,-1.0507,-1.0629,-1.0751,-1.084,-1.088,-1.0616,-0.9336,-0.8793,-0.8218,-0.7332,-0.6387,-0.5968,-0.659,-0.7854,-0.8977,-0.9371,-1.1091,0.0,0.0,0.0,0.0,0.0,0.0,-1.2092,-1.1446,-0.958,-0.7493,-0.5262,-0.4174,-0.3452,-0.2869,-0.1517,-0.0756,-0.0697,-0.0277,0.0,0.0,0.0,0.0,0.0,0.0,0.0,0.0,0.0,0.0,0.0,0.0,0.0,0.0,0.0,0.0,0.0,0.0,0.0,0.0,0.0,0.0,0.0,0.0,0.0,0.0,-1.1056,-1.2559,-1.4992,-1.8552,-1.8575,-1.9096,-2.2067,-2.1337,-2.0829,-2.1686,-2.0502,-1.9928,-2.081,-2.0655,-2.0428,-2.0307,-2.0254,-2.0307,-2.0468,-2.0601,-2.0802,-2.1096,-2.1109,-2.1189,-2.1363,-2.1363,-2.0244,-1.7884,-1.8607,0.0,-1.444,0.0,0.0,0.0,0.0,-1.105,-1.1056,-1.0914,-1.0779,-1.0745,-1.0432,-1.0243,0.0,-0.991,-0.9822,-0.9822,-0.9822,-0.9876,-0.9876,-0.9849,-0.9822,-0.9863,-1.008,-1.0209,-1.0324,-1.0527,-1.0656,-1.0738,-1.0759,-1.0779,-1.0578,-0.9624,-0.8246,-0.7047,-0.6715,-0.5522,-0.4478,-0.4538,-0.6745,-0.8464,-0.7897,-1.0145,-1.2169,0.0,0.0,0.0,0.0,-1.2128,-1.206,-1.1972,-1.0933,-0.9759,-0.8445,-0.6511,-0.534,-0.5242,-0.3495,-0.2393,-0.2375,-0.0834,0.0,0.0,0.0,0.0,0.0,0.0,0.0,0.0,0.0,0.0,0.0,0.0,0.0,0.0,0.0,0.0,0.0,0.0,0.0,0.0,0.0,0.0,0.0,0.0,0.0,0.0,-1.1418,-1.2992,-1.531,-1.8815,-1.9483,-2.0038,-2.1608,-2.1683,-2.1614,-2.1614,-2.1132,-2.0722,-2.0681,-2.0414,-2.012,-1.9826,-2.0,-2.0147,-2.0227,-2.0468,-2.0762,-2.1096,-2.0856,-2.0779,-2.0779,-2.055,-1.8796,-1.5589,-1.7055,-1.5505,0.0,0.0,0.0,0.0,0.0,0.0,0.0,-1.0792,-1.0717,-1.0697,-1.0399,-1.0188,-0.997,-0.9876,-0.9822,-0.9822,-0.9822,-0.9822,-0.9822,-0.9822,-0.9822,-0.9869,-1.0134,-1.0236,-1.0304,-1.0582,-1.0677,-1.0697,-1.0717,-1.0717,-1.0651,-1.0386,-0.8035,-0.6097,-0.7365,-0.5292,-0.303,-0.3069,-0.5924,-0.7946,-0.643,-0.9192,-1.1857,0.0,0.0,-1.204,-1.2135,-1.1932,-1.1683,-1.1464,-1.1352,0.0,-1.1227,-0.9581,-0.8474,-0.8308,-0.6397,-0.5146,-0.5077,-0.1818,0.0,0.0,0.0,0.0,0.0,0.0,0.0,0.0,0.0,0.0,0.0,0.0,0.0,0.0,0.0,0.0,0.0,0.0,0.0,0.0,0.0,0.0,0.0,0.0,0.0,0.0,-1.4437,-1.665,-1.858,-2.0451,-2.1006,-2.1213,-2.1232,-2.143,-2.1614,-2.1614,-2.1256,-2.0949,-2.0695,-2.0414,-2.012,-1.9826,-1.9626,-1.972,-2.0201,-2.0281,-2.0548,-2.1082,-1.9737,-1.896,-1.896,-1.7465,-1.5731,-1.3774,-1.3931,-1.2955,-1.0982,0.0,0.0,0.0,0.0,0.0,-1.1111,-1.0833,0.0,-1.0697,-1.0399,-1.0188,-0.997,-0.9876,-0.9822,-0.9822,-0.9822,-0.9822,-0.9822,-0.9822,-0.9822,-0.9829,-0.9883,-0.9985,-1.0065,-1.0304,-1.0439,-1.0561,-1.0683,-1.0717,-1.0319,-0.8834,-0.803,-0.7231,-0.6097,-0.5362,-0.4897,-0.491,-0.6602,-0.806,-0.7898,-0.9941,-1.1701,-1.185,-1.187,-1.1918,-1.2047,-1.1932,-1.1164,-0.9612,-0.9375,-0.9283,-0.9079,-0.8749,-0.8462,-0.8447,-0.5185,-0.3185,-0.316,-0.1184,0.0,0.0,0.0,0.0,0.0,0.0,0.0,0.0,0.0,0.0,0.0,0.0,0.0,0.0,0.0,0.0,0.0,0.0,0.0,0.0,0.0,0.0,0.0,0.0,0.0,0.0,-1.5375,-1.7433,-1.9245,-2.0806,-2.1229,-2.1269,-2.1136,-2.1229,-2.1269,-2.1186,-2.0842,-2.0548,-2.0254,-1.996,-1.9733,-1.9586,-1.9452,-1.9546,-1.9987,-2.0013,-1.9824,-1.9486,-1.8613,-1.7788,-1.697,-1.6034,-1.4823,-1.3172,-1.3152,-1.2326,-1.088,0.0,0.0,0.0,0.0,-1.0914,0.0,0.0,-1.0629,-1.048,-1.0337,-1.0141,-0.9862,-0.9849,-0.9822,-0.9822,-0.9822,-0.9822,-0.9822,-0.9822,-0.9822,-0.9849,-1.0005,-1.0114,-1.0215,-1.0439,-1.0555,-1.0629,-1.0704,-0.999,-0.927,-0.927,-0.7898,-0.63,-0.5426,-0.5238,-0.4718,-0.2948,-0.5492,-0.8333,-0.9414,-0.9796,-1.0275,-1.1422,-1.0803,-1.0558,-1.1663,-1.0881,-0.9858,-0.892,-0.877,-0.8269,-0.7196,-0.8697,-0.9394,-0.8491,-0.5694,-0.3712,-0.274,-0.0974,0.0,0.0,0.0,0.0,0.0,0.0,0.0,0.0,0.0,0.0,0.0,0.0,0.0,0.0,0.0,0.0,0.0,0.0,0.0,0.0,0.0,0.0,0.0,0.0,0.0,0.0,-1.5514,-1.7269,-1.9024,-2.0779,-2.1109,-2.1109,-2.1109,-2.1109,-2.1002,-2.0722,-2.0468,-2.0187,-1.984,-1.9599,-1.9439,-1.943,-1.943,-1.9492,-1.9786,-1.98,-1.9249,-1.797,-1.7553,-1.6618,-1.4955,-1.4533,-1.3734,-1.2475,-1.2475,-1.1938,-1.0786,0.0,0.0,0.0,0.0,0.0,-1.0867,-1.0751,-1.0534,-1.0317,-1.0256,-1.0086,-0.9869,-0.9836,-0.9822,-0.9822,-0.9822,-0.9822,-0.9822,-0.9822,-0.9822,-0.9863,-1.0107,-1.0181,-1.0243,-1.0541,-1.0629,-1.0636,-1.0663,-0.9586,-0.8838,-1.0123,-0.8285,-0.6114,-0.5732,-0.5954,-0.5263,-0.1868,-0.4815,-0.8595,-1.047,-0.9488,-0.8955,-1.1014,-0.9871,-0.9363,-1.1305,-1.0305,-0.9165,-0.8687,-0.8959,-0.8339,-0.6472,-0.908,-1.0177,-0.8371,-0.6472,-0.4784,-0.3341,-0.1177,0.0,0.0,0.0,0.0,0.0,0.0,0.0,0.0,0.0,0.0,0.0,0.0,0.0,0.0,0.0,0.0,0.0,0.0,0.0,0.0,0.0,0.0,0.0,0.0,0.0,0.0,-1.555,-1.7269,-1.9024,-2.0779,-2.1109,-2.1109,-2.1109,-2.1109,-2.1002,-2.0722,-2.0655,-2.0428,-1.9867,-1.9773,-1.9653,-1.9444,-1.943,-1.9492,-1.9786,-1.98,-1.9249,-1.797,-1.6371,-1.4821,-1.3152,-1.144,-1.0517,-1.0551,-1.0551,-1.0571,-1.0534,-1.0663,-1.0806,0.0,-1.0785,-1.0739,-1.086,-1.0636,-1.0493,-1.0446,-1.0181,-0.999,-0.995,-0.9876,-0.9822,-0.9822,-0.9822,-0.9822,-0.9822,-0.9822,-0.9822,-0.9829,-0.9856,-0.9863,-0.9924,-1.0229,-1.0324,-1.0351,-1.048,-1.037,-1.0265,-1.0331,-1.0029,-0.9443,-0.7906,-0.8834,-0.9051,-0.5584,-0.6572,-0.8568,-1.0399,-0.9423,-0.8933,-1.0875,-0.9812,-0.9363,-1.1305,-1.1476,-1.0615,-0.8758,-1.003,-1.022,-0.803,-0.9647,-1.0072,-0.8189,-0.6368,-0.5299,-0.5171,-0.1842,0.0,0.0,0.0,0.0,0.0,0.0,0.0,0.0,0.0,0.0,0.0,0.0,0.0,0.0,0.0,0.0,0.0,0.0,0.0,0.0,0.0,0.0,0.0,0.0,0.0,0.0,-1.5764,-1.8116,-2.0259,-2.0982,-2.0962,-2.0855,-2.0855,-2.0695,-2.0481,-2.0187,-2.0307,-2.0187,-1.9599,-1.9546,-1.9492,-1.943,-1.943,-1.947,-1.9533,-1.9546,-1.8926,-1.7386,-1.5767,-1.4135,-1.2498,-1.1699,-1.1387,-1.1565,-1.2716,-1.2805,-1.1968,-1.2138,-1.1681,-1.067,-1.0521,-1.0487,-1.0541,-1.0419,-1.031,-1.0215,-1.0038,-0.9984,-0.997,-0.9876,-0.9876,-0.9883,-0.9856,-0.9822,-0.9822,-0.9822,-0.9822,-0.9836,-0.9869,-0.9896,-0.9998,-1.0215,-1.0283,-1.029,-1.0351,-0.9589,-0.8995,-0.9903,-0.8563,-0.7146,-0.7456,-0.7429,-0.6877,-0.5501,-0.6696,-0.8568,-1.0379,-0.8419,-0.7187,-0.9132,-0.7061,-0.6302,-0.9439,-0.7868,-0.6478,-0.6836,-0.6469,-0.5361,-0.339,-0.682,-0.8421,-0.6564,-0.6765,-0.603,-0.389,-0.2401,-0.1104,-0.0068,0.0,0.0,0.0,0.0,0.0,0.0,0.0,0.0,0.0,0.0,0.0,0.0,0.0,0.0,0.0,0.0,0.0,0.0,0.0,0.0,0.0,0.0,0.0,0.0,-1.6485,-1.864,-2.05,-2.0926,-2.0882,-2.0748,-2.0575,-2.0441,-2.0227,-1.9853,-1.9973,-1.992,-1.9426,-1.943,-1.939,-1.9239,-1.9319,-1.9292,-1.9118,-1.9185,-1.8519,-1.6914,-1.5733,-1.4469,-1.2928,-1.2928,-1.294,-1.3021,-1.444,-1.4304,-1.2766,-1.25,-1.1682,-1.0426,-1.0324,-1.0283,-1.0276,-1.0236,-1.0175,-1.0107,-0.9957,-0.997,-1.01,-0.9944,-0.9896,-0.997,-0.9862,-0.9863,-0.9822,-0.9822,-0.9822,-0.9842,-0.9883,-0.9923,-0.995,-1.0168,-1.0215,-1.0215,-1.0215,-0.9306,-0.859,-0.9682,-0.8105,-0.6535,-0.7319,-0.7049,-0.6644,-0.6705,-0.7445,-0.8568,-1.0379,-0.8212,-0.6539,-0.8009,-0.563,-0.4795,-0.8085,-0.582,-0.4414,-0.6329,-0.5276,-0.3854,-0.2489,-0.5756,-0.7498,-0.6231,-0.6831,-0.616,-0.3622,-0.2472,-0.1311,-0.0068,0.0,0.0,0.0,0.0,0.0,0.0,0.0,0.0,0.0,0.0,0.0,0.0,0.0,0.0,0.0,0.0,0.0,0.0,0.0,0.0,0.0,0.0,0.0,0.0,-1.775,-1.8512,-1.9003,-2.0473,-2.0909,-2.0909,-2.0334,-2.0481,-2.0468,-1.988,-1.98,-1.9693,-1.9457,-1.943,-1.9252,-1.8958,-1.9199,-1.9118,-1.8544,-1.8771,-1.8166,-1.6586,-1.6471,-1.5892,-1.4599,-1.454,-1.454,-1.455,-1.4761,-1.3958,-1.239,-1.0958,-1.0347,-1.0283,-1.0283,-1.0283,-1.027,-1.0114,-1.0141,-1.0249,-0.9944,-1.0005,-1.0263,-1.0044,-0.9984,-0.9984,-0.9984,-0.9889,-0.9822,-0.9822,-0.9822,-0.9822,-0.9822,-0.9822,-0.9856,-0.9943,-0.999,-0.999,-0.999,-0.999,-0.995,-0.9863,-0.9761,-0.9368,-0.794,-0.8959,-1.03,-1.059,-0.9238,-0.8568,-1.0379,-0.9073,-0.7807,-0.7998,-0.6506,-0.6034,-0.8041,-0.6864,-0.6391,-0.8083,-0.8272,-0.8158,-0.7907,-0.7964,-0.7964,-0.7964,-0.6364,-0.5429,-0.5362,-0.1974,0.0,0.0,0.0,0.0,0.0,0.0,0.0,0.0,0.0,0.0,0.0,0.0,0.0,0.0,0.0,0.0,0.0,0.0,0.0,0.0,0.0,0.0,0.0,0.0,0.0,0.0,-1.6454,-1.864,-2.0371,-2.0659,-2.0588,-2.0388,-2.0,-1.9853,-1.972,-1.9533,-1.9506,-1.9466,-1.943,-1.9185,-1.9025,-1.8931,-1.8824,-1.8691,-1.8504,-1.8584,-1.8401,-1.7884,-1.6835,-1.6092,-1.5881,-1.5881,-1.6029,-1.6256,-1.753,-1.6888,-1.428,-1.144,-1.012,-1.012,-1.0012,-0.9964,-0.9964,-0.9917,-0.9924,-0.9964,-0.9909,-1.01,-1.0263,-1.0107,-1.0114,-1.0181,-0.9971,-0.9863,-0.9822,-0.9822,-0.9822,-0.9822,-0.9822,-0.9822,-0.9829,-0.9876,-0.989,-0.989,-0.989,-0.989,-0.9883,-0.9836,-0.8958,-0.8355,-0.8952,-0.9712,-1.0365,-1.0656,-1.0246,-1.0047,-1.0585,-0.9198,-0.7561,-0.6444,-0.4745,-0.3835,-0.455,-0.3042,-0.2506,-0.439,-0.3424,-0.259,-0.2553,-0.3687,-0.4356,-0.4356,-0.389,-0.3571,-0.3537,-0.2484,-0.1252,-0.007,0.0,0.0,0.0,0.0,0.0,0.0,0.0,0.0,0.0,0.0,0.0,0.0,0.0,0.0,0.0,0.0,0.0,0.0,0.0,0.0,0.0,0.0,0.0,0.0,-1.6819,-1.9079,-2.0855,-2.0561,-2.0361,-2.0094,-1.9693,-1.9573,-1.9492,-1.9386,-1.943,-1.943,-1.943,-1.9105,-1.8878,-1.8771,-1.8597,-1.8397,-1.817,-1.8263,-1.833,-1.833,-1.7355,-1.7018,-1.7387,-1.7399,-1.7592,-1.7923,-1.786,-1.6571,-1.4085,-1.1225,-0.9903,-0.9896,-0.9863,-0.9822,-0.9822,-0.9822,-0.9856,-0.9849,-0.9883,-1.012,-1.0337,-1.0127,-1.0148,-1.0249,-0.9998,-0.9869,-0.9822,-0.9822,-0.9863,-0.9849,-0.9849,-0.9849,-0.9897,-0.9836,-0.9822,-0.9822,-0.9822,-0.9822,-0.9822,-0.9822,-0.9019,-0.8616,-0.9718,-1.0181,-1.0426,-1.067,-1.0677,-1.0432,-0.9833,-0.8691,-0.7062,-0.4738,-0.3367,-0.2656,-0.2828,-0.1163,-0.0688,-0.2588,-0.177,-0.1018,-0.1009,-0.2016,-0.2685,-0.2685,-0.2083,-0.1694,-0.1658,-0.1673,-0.1194,-0.0071,0.0,0.0,0.0,0.0,0.0,0.0,0.0,0.0,0.0,0.0,0.0,0.0,0.0,0.0,0.0,0.0,0.0,0.0,0.0,0.0,0.0,0.0,0.0,0.0,-1.8359,-1.9613,-2.0548,-2.0254,-2.014,-2.0013,-1.9452,-1.9599,-1.9679,-1.9399,-1.943,-1.943,-1.943,-1.9105,-1.8811,-1.8544,-1.8504,-1.825,-1.7689,-1.7903,-1.7995,-1.7995,-1.7969,-1.8222,-1.8795,-1.8878,-1.8994,-1.9243,-1.6031,-1.3646,-1.2157,-1.0536,-0.9822,-0.9822,-0.9822,-0.9822,-0.9822,-0.9822,-0.9842,-0.9963,-0.9903,-1.01,-1.0446,-1.0118,-1.0168,-1.0276,-1.012,-0.9909,-0.9856,-0.9856,-0.9944,-1.0004,-1.0004,-0.9997,-0.9957,-0.9876,-0.9829,-0.9822,-0.9822,-0.9822,-0.9822,-0.9822,-0.9822,-0.9897,-1.0195,-1.0365,-1.0507,-1.0656,-1.0575,-0.9948,-0.8307,-0.7811,-0.6508,-0.3211,-0.2573,-0.252,-0.2493,-0.1065,-0.0604,-0.228,-0.2482,-0.2484,-0.2484,-0.2484,-0.2484,-0.2484,-0.0941,0.0,0.0,0.0,0.0,0.0,0.0,0.0,0.0,0.0,0.0,0.0,0.0,0.0,0.0,0.0,0.0,0.0,0.0,0.0,0.0,0.0,0.0,0.0,0.0,0.0,0.0,0.0,0.0,0.0,-1.7793,-1.9197,-2.0241,-1.9947,-1.9907,-1.9786,-1.9426,-1.9426,-1.9452,-1.943,-1.943,-1.943,-1.943,-1.9105,-1.8891,-1.8824,-1.8624,-1.8424,-1.829,-1.813,-1.7995,-1.7995,-1.7822,-1.7876,-1.8195,-1.8477,-1.8259,-1.756,-1.4351,-1.2577,-1.2157,-1.0536,-0.9822,-0.9822,-0.9822,-0.9822,-0.9822,-0.9822,-0.9842,-0.989,-1.0093,-1.0236,-1.0337,-1.0371,-1.0412,-1.0426,-1.0276,-1.0202,-1.0168,-1.0168,-1.0195,-1.0222,-1.0222,-1.0148,-0.9977,-0.9943,-0.9849,-0.9822,-0.9822,-0.9822,-0.9822,-0.9822,-0.9822,-0.9869,-1.0059,-1.0134,-1.0195,-1.0351,-1.0358,-0.9813,-0.813,-0.7827,-0.6673,-0.326,-0.2655,-0.2199,-0.0854,-0.0264,-0.0132,-0.0596,-0.0668,-0.0672,-0.0672,-0.0672,-0.0672,-0.0672,-0.0269,0.0,0.0,0.0,0.0,0.0,0.0,0.0,0.0,0.0,0.0,0.0,0.0,0.0,0.0,0.0,0.0,0.0,0.0,0.0,0.0,0.0,0.0,0.0,0.0,0.0,0.0,0.0,0.0,0.0,-1.7751,-1.8885,-1.9987,-1.9826,-1.9693,-1.9546,-1.9399,-1.943,-1.943,-1.943,-1.943,-1.943,-1.943,-1.9225,-1.9132,-1.9132,-1.8731,-1.8437,-1.8303,-1.8075,-1.7929,-1.7836,-1.7675,-1.7729,-1.7982,-1.7528,-1.6449,-1.4731,-1.2963,-1.1774,-1.108,-1.0179,-0.9822,-0.9822,-0.9822,-0.9822,-0.9822,-0.9822,-0.9863,-0.9869,-1.0032,-1.0195,-1.0371,-1.031,-1.0371,-1.0473,-1.0331,-1.0283,-1.0283,-1.0283,-1.0324,-1.0378,-1.0378,-1.0276,-1.0154,-1.0154,-0.9998,-0.9822,-0.9822,-0.9869,-0.9862,-0.9862,-0.9869,-0.9863,-0.995,-0.9984,-1.0031,-1.0249,-1.0222,-0.9664,-0.8007,-0.7016,-0.563,-0.3021,-0.1986,-0.1154,-0.013,0.0,0.0,0.0,0.0,0.0,0.0,0.0,0.0,0.0,0.0,0.0,0.0,0.0,0.0,0.0,0.0,0.0,0.0,0.0,0.0,0.0,0.0,0.0,0.0,0.0,0.0,0.0,0.0,0.0,0.0,0.0,0.0,0.0,0.0,0.0,0.0,0.0,0.0,0.0,-1.807,-1.8864,-1.9733,-1.9733,-1.9533,-1.943,-1.943,-1.943,-1.943,-1.943,-1.943,-1.943,-1.943,-1.943,-1.943,-1.943,-1.8865,-1.845,-1.8142,-1.8035,-1.7876,-1.7662,-1.7609,-1.7702,-1.7916,-1.6344,-1.4372,-1.1988,-1.1762,-1.103,-0.9822,-0.9822,-0.9822,-0.9822,-0.9822,-0.9822,-0.9822,-0.9842,-0.9869,-0.9977,-0.9958,-1.0148,-1.0466,-1.0236,-1.031,-1.0514,-1.0392,-1.0344,-1.0344,-1.0344,-1.0426,-1.0527,-1.0527,-1.0412,-1.0283,-1.0283,-1.008,-0.9849,-0.9829,-0.9856,-0.995,-0.995,-0.9856,-0.9856,-0.9923,-0.995,-0.999,-1.0181,-1.0107,-0.9448,-0.7884,-0.613,-0.4385,-0.2764,-0.107,0.0,0.0,0.0,0.0,0.0,0.0,0.0,0.0,0.0,0.0,0.0,0.0,0.0,0.0,0.0,0.0,0.0,0.0,0.0,0.0,0.0,0.0,0.0,0.0,0.0,0.0,0.0,0.0,0.0,0.0,0.0,0.0,0.0,0.0,0.0,0.0,0.0,0.0,0.0,0.0,0.0,-1.8894,-1.9277,-1.9439,-1.9439,-1.9457,-1.943,-1.943,-1.943,-1.943,-1.943,-1.943,-1.943,-1.943,-1.943,-1.943,-1.943,-1.9052,-1.8838,-1.8741,-1.8262,-1.7969,-1.7916,-1.7716,-1.7609,-1.7649,-1.5149,-1.3257,-1.1988,-1.0657,-0.9919,-0.9822,-0.9822,-0.9822,-0.9822,-0.9822,-0.9822,-0.9829,-0.9896,-0.9963,-1.0004,-1.0297,-1.0432,-1.05,-1.0582,-1.0643,-1.0683,-1.0663,-1.0649,-1.0649,-1.0649,-1.0663,-1.0683,-1.0683,-1.05,-1.0283,-1.0283,-1.0154,-0.9923,-0.9856,-0.9836,-0.9856,-0.9856,-0.9836,-0.9829,-0.9849,-0.9856,-0.9863,-0.989,-0.9876,-0.9361,-0.7755,-0.6027,-0.4385,-0.2764,-0.1123,0.0,0.0,0.0,0.0,0.0,0.0,0.0,0.0,0.0,0.0,0.0,0.0,0.0,0.0,0.0,0.0,0.0,0.0,0.0,0.0,0.0,0.0,0.0,0.0,0.0,0.0,0.0,0.0,0.0,0.0,0.0,0.0,0.0,0.0,0.0,0.0,0.0,0.0,0.0,0.0,0.0,-1.9068,-1.943,-1.943,-1.943,-1.943,-1.943,-1.943,-1.943,-1.943,-1.943,-1.943,-1.943,-1.943,-1.943,-1.943,-1.943,-1.8958,-1.8691,-1.8691,-1.8235,-1.7916,-1.7809,-1.7662,-1.6882,-1.5316,-1.3257,-1.1642,-1.0501,-0.9844,-0.9564,-0.9707,-0.9788,-0.9822,-0.9822,-0.9822,-0.9822,-0.9829,-0.9923,-0.9984,-1.0004,-1.029,-1.0426,-1.05,-1.0568,-1.0649,-1.0717,-1.0717,-1.0717,-1.0717,-1.0717,-1.0717,-1.0717,-1.0717,-1.0568,-1.0392,-1.0392,-1.0229,-0.999,-1.0066,-1.0005,-0.9883,-0.9883,-0.9883,-0.9822,-0.9822,-0.9822,-0.9822,-0.9822,-0.9822,-0.9572,-0.8836,-0.663,-0.4681,-0.3911,-0.1671,0.0,0.0,0.0,0.0,0.0,0.0,0.0,0.0,0.0,0.0,0.0,0.0,0.0,0.0,0.0,0.0,0.0,0.0,0.0,0.0,0.0,0.0,0.0,0.0,0.0,0.0,0.0,0.0,0.0,0.0,0.0,0.0,0.0,0.0,0.0,0.0,0.0,0.0,0.0,0.0,0.0,-1.901,-1.943,-1.943,-1.943,-1.943,-1.943,-1.943,-1.943,-1.943,-1.943,-1.943,-1.943,-1.943,-1.943,-1.943,-1.943,-1.8891,-1.8557,-1.849,-1.821,-1.7849,-1.7595,-1.7252,-1.5743,-1.2832,-1.1701,-1.0508,-0.9262,-0.932,-0.9476,-0.9659,-0.9768,-0.9822,-0.9822,-0.9822,-0.9822,-0.9836,-1.0025,-1.0038,-1.012,-1.0304,-1.0446,-1.0548,-1.0548,-1.0616,-1.0717,-1.0717,-1.0717,-1.0717,-1.0717,-1.0717,-1.0717,-1.0717,-1.0616,-1.0487,-1.0453,-1.0256,-1.0011,-1.0195,-1.0141,-0.9984,-0.9984,-0.9903,-0.9883,-0.9917,-0.9903,-0.9883,-0.9917,-0.9897,-0.9876,-0.9876,-0.7138,-0.4916,-0.4916,-0.2156,0.0,0.0,0.0,0.0,0.0,0.0,0.0,0.0,0.0,0.0,0.0,0.0,0.0,0.0,0.0,0.0,0.0,0.0,0.0,0.0,0.0,0.0,0.0,0.0,0.0,0.0,0.0,0.0,0.0,0.0,0.0,0.0,0.0,0.0,0.0,0.0,0.0,0.0,0.0,0.0,0.0,-1.8765,-1.943,-1.943,-1.943,-1.943,-1.943,-1.943,-1.943,-1.943,-1.943,-1.943,-1.943,-1.943,-1.943,-1.943,-1.943,-1.9078,-1.8784,-1.8504,-1.821,-1.7849,-1.7595,-1.6287,-1.4234,-1.1319,-1.1156,-1.0564,-0.9361,-0.9374,-0.953,-0.9802,-0.9815,-0.9822,-0.9822,-0.9822,-0.9822,-0.9842,-1.0134,-1.0263,-1.029,-1.0575,-1.0697,-1.0704,-1.0704,-1.0711,-1.0717,-1.0717,-1.0717,-1.0717,-1.0717,-1.0717,-1.0717,-1.0717,-1.0616,-1.0466,-1.0337,-1.0181,-0.999,-1.0004,-0.9997,-0.9984,-0.9984,-0.9977,-1.0011,-1.0215,-1.0134,-1.0011,-1.0215,-1.0134,-0.997,-0.997,-0.7192,-0.4916,-0.4916,-0.2156,0.0,0.0,0.0,0.0,0.0,0.0,0.0,0.0,0.0,0.0,0.0,0.0,0.0,0.0,0.0,0.0,0.0,0.0,0.0,0.0,0.0,0.0,0.0,0.0,0.0,0.0,0.0,0.0,0.0,0.0,0.0,0.0,0.0,0.0,0.0,0.0,0.0,0.0,0.0,0.0,0.0,-1.8765,-1.943,-1.943,-1.943,-1.943,-1.943,-1.943,-1.943,-1.943,-1.943,-1.943,-1.943,-1.943,-1.943,-1.943,-1.943,-1.9092,-1.8878,-1.8771,-1.8262,-1.746,-1.6299,-1.4877,-1.3217,-1.127,-1.0397,-0.973,-0.9381,-0.9476,-0.9578,-0.9693,-0.9781,-0.9822,-0.9822,-0.9822,-0.9876,-0.9916,-1.0188,-1.0331,-1.0432,-1.0636,-1.0717,-1.0717,-1.0717,-1.0717,-1.0717,-1.0717,-1.0717,-1.0717,-1.0717,-1.0717,-1.0717,-1.0717,-1.0677,-1.0602,-1.0453,-1.0371,-1.0304,-1.0215,-1.0195,-1.0195,-1.0195,-1.0195,-1.0181,-1.0148,-1.0031,-0.9977,-1.0005,-0.9951,-0.9849,-0.9849,-0.7148,-0.4916,-0.4916,-0.2156,0.0,0.0,0.0,0.0,0.0,0.0,0.0,0.0,0.0,0.0,0.0,0.0,0.0,0.0,0.0,0.0,0.0,0.0,0.0,0.0,0.0,0.0,0.0,0.0,0.0,0.0,0.0,0.0,0.0,0.0,0.0,0.0,0.0,0.0,0.0,0.0,0.0,0.0,0.0,0.0,0.0,-1.8765,-1.943,-1.943,-1.943,-1.943,-1.943,-1.943,-1.943,-1.943,-1.943,-1.943,-1.943,-1.943,-1.943,-1.943,-1.943,-1.9185,-1.9025,-1.8931,-1.7952,-1.6654,-1.4905,-1.342,-1.2045,-1.073,-0.9731,-0.93,-0.9456,-0.9557,-0.9632,-0.968,-0.9774,-0.9822,-0.9822,-0.9869,-0.9889,-0.9997,-1.0263,-1.0405,-1.0507,-1.0656,-1.0717,-1.0717,-1.0717,-1.0717,-1.0717,-1.0717,-1.0717,-1.0717,-1.0717,-1.0717,-1.0717,-1.0717,-1.0683,-1.0629,-1.0521,-1.046,-1.0412,-1.0365,-1.0344,-1.0344,-1.0344,-1.0344,-1.0317,-1.0215,-1.0092,-1.0093,-0.9985,-0.9924,-0.989,-0.989,-0.7143,-0.4916,-0.4916,-0.2156,0.0,0.0,0.0,0.0,0.0,0.0,0.0,0.0,0.0,0.0,0.0,0.0,0.0,0.0,0.0,0.0,0.0,0.0,0.0,0.0,0.0,0.0,0.0,0.0,0.0,0.0,0.0,0.0,0.0,0.0,0.0,0.0,0.0,0.0,0.0,0.0,0.0,0.0,0.0,0.0,0.0,-1.8765,-1.9359,-1.943,-1.9359,-1.9372,-1.943,-1.943,-1.943,-1.943,-1.943,-1.943,-1.943,-1.943,-1.943,-1.943,-1.943,-1.943,-1.9239,-1.8888,-1.7097,-1.53,-1.3563,-1.2098,-1.0738,-0.9439,-0.9381,-0.9456,-0.9612,-0.9612,-0.9686,-0.9822,-0.9822,-0.9822,-0.9829,-0.9916,-0.9984,-1.0011,-1.0365,-1.0493,-1.0507,-1.0656,-1.0717,-1.0717,-1.0717,-1.0717,-1.0717,-1.0717,-1.0717,-1.0717,-1.0717,-1.0717,-1.0717,-1.0717,-1.0616,-1.0493,-1.0493,-1.0392,-1.0317,-1.0453,-1.0493,-1.0493,-1.0493,-1.0493,-1.0493,-1.0487,-1.0378,-1.0283,-1.0276,-1.0154,-0.9984,-0.9984,-0.7197,-0.4916,-0.4855,-0.2156,0.0,0.0,0.0,0.0,0.0,0.0,0.0,0.0,0.0,0.0,0.0,0.0,0.0,0.0,0.0,0.0,0.0,0.0,0.0,0.0,0.0,0.0,0.0,0.0,0.0,0.0,0.0,0.0,0.0,0.0,0.0,0.0,0.0,0.0,0.0,0.0,0.0,0.0,0.0,0.0,0.0,-1.5854,-1.7877,-1.9068,-1.7923,-1.8648,-1.943,-1.943,-1.943,-1.943,-1.943,-1.943,-1.943,-1.943,-1.943,-1.943,-1.943,-1.943,-1.8764,-1.7297,-1.4714,-1.2922,-1.2356,-1.1757,-1.0862,-0.9596,-0.9544,-0.9612,-0.9754,-0.9754,-0.9781,-0.9822,-0.9822,-0.9822,-0.9829,-0.9916,-1.0107,-1.0222,-1.0412,-1.0555,-1.0656,-1.0704,-1.0717,-1.0717,-1.0717,-1.0717,-1.0717,-1.0717,-1.0717,-1.0717,-1.0717,-1.0717,-1.0717,-1.0717,-1.069,-1.0629,-1.0521,-1.0534,-1.0575,-1.0507,-1.0568,-1.0629,-1.0521,-1.0575,-1.0595,-1.0392,-1.031,-1.0249,-1.0141,-0.9998,-0.9516,-0.8401,-0.6403,-0.4548,-0.3384,-0.1418,0.0,0.0,0.0,0.0,0.0,0.0,0.0,0.0,0.0,0.0,0.0,0.0,0.0,0.0,0.0,0.0,0.0,0.0,0.0,0.0,0.0,0.0,0.0,0.0,0.0,0.0,0.0,0.0,0.0,0.0,0.0,0.0,0.0,0.0,0.0,0.0,0.0,0.0,0.0,0.0,0.0,-1.448,-1.668,-1.8156,-1.7149,-1.8344,-1.943,-1.943,-1.943,-1.943,-1.943,-1.943,-1.943,-1.943,-1.943,-1.943,-1.943,-1.8823,-1.7674,-1.5868,-1.3457,-1.1751,-1.1046,-1.0886,-1.0473,-0.9693,-0.9693,-0.9734,-0.9822,-0.9822,-0.9822,-0.9822,-0.9822,-0.9849,-0.9856,-1.0073,-1.0222,-1.0371,-1.0521,-1.0636,-1.0717,-1.0717,-1.0717,-1.0717,-1.0717,-1.0717,-1.0717,-1.0717,-1.0717,-1.0717,-1.0717,-1.0717,-1.0717,-1.0717,-1.0717,-1.0704,-1.0609,-1.0649,-1.0704,-1.0609,-1.0649,-1.067,-1.046,-1.0568,-1.0643,-1.0344,-1.0324,-1.0324,-1.0175,-1.0019,-0.9413,-0.7798,-0.6043,-0.4364,-0.277,-0.1115,0.0,0.0,0.0,0.0,0.0,0.0,0.0,0.0,0.0,0.0,0.0,0.0,0.0,0.0,0.0,0.0,0.0,0.0,0.0,0.0,0.0,0.0,0.0,0.0,0.0,0.0,0.0,0.0,0.0,0.0,0.0,0.0,0.0,0.0,0.0,0.0,0.0,0.0,0.0,0.0,0.0,-1.4123,-1.5902,-1.7149,-1.702,-1.8344,-1.943,-1.943,-1.943,-1.943,-1.943,-1.943,-1.943,-1.943,-1.943,-1.943,-1.943,-1.7806,-1.6138,-1.4718,-1.2928,-1.1322,-0.9883,-0.9822,-0.9822,-0.9822,-0.9822,-0.9822,-0.9822,-0.9822,-0.9822,-0.9822,-0.9836,-0.9856,-0.9997,-1.0222,-1.0371,-1.05,-1.0656,-1.0717,-1.0717,-1.0717,-1.0717,-1.0717,-1.0717,-1.0717,-1.0717,-1.0717,-1.0717,-1.0717,-1.0717,-1.0717,-1.0717,-1.0717,-1.0717,-1.0717,-1.0717,-1.0717,-1.0717,-1.0717,-1.0717,-1.0649,-1.0371,-1.0514,-1.0643,-1.0344,-1.0378,-1.0439,-1.0324,-1.0175,-0.9561,-0.791,-0.6155,-0.4379,-0.2775,-0.1064,0.0,0.0,0.0,0.0,0.0,0.0,0.0,0.0,0.0,0.0,0.0,0.0,0.0,0.0,0.0,0.0,0.0,0.0,0.0,0.0,0.0,0.0,0.0,0.0,0.0,0.0,0.0,0.0,0.0,0.0,0.0,0.0,0.0,0.0,0.0,0.0,0.0,0.0,0.0,0.0,0.0,-1.2868,-1.602,-1.846,-1.7208,-1.8344,-1.943,-1.943,-1.943,-1.943,-1.943,-1.943,-1.943,-1.943,-1.943,-1.943,-1.943,-1.6797,-1.4955,-1.4599,-1.1916,-1.0179,-0.9822,-0.9822,-0.9822,-0.9822,-0.9822,-0.9822,-0.9822,-0.9822,-0.9822,-0.9822,-0.9883,-0.9957,-0.9997,-1.0324,-1.0466,-1.05,-1.0656,-1.0717,-1.0717,-1.0717,-1.0717,-1.0717,-1.0717,-1.0717,-1.0717,-1.0717,-1.0717,-1.0717,-1.0717,-1.0717,-1.0717,-1.0717,-1.0717,-1.0717,-1.0717,-1.0717,-1.0717,-1.0717,-1.0717,-1.0677,-1.0493,-1.0582,-1.0643,-1.0344,-1.0304,-1.0351,-1.0432,-1.0331,-0.9684,-0.7926,-0.6193,-0.45,-0.2762,-0.1081,0.0,0.0,0.0,0.0,0.0,0.0,0.0,0.0,0.0,0.0,0.0,0.0,0.0,0.0,0.0,0.0,0.0,0.0,0.0,0.0,0.0,0.0,0.0,0.0,0.0,0.0,0.0,0.0,0.0,0.0,0.0,0.0,0.0,0.0,0.0,0.0,0.0,0.0,0.0,0.0,0.0,-1.1201,-1.3706,-1.5961,-1.5843,-1.7208,-1.8519,-1.9301,-1.943,-1.943,-1.943,-1.943,-1.943,-1.943,-1.943,-1.9068,-1.8344,-1.6031,-1.4242,-1.3526,-1.114,-0.9822,-0.9822,-0.9822,-0.9822,-0.9822,-0.989,-0.9897,-0.9822,-0.9897,-0.9869,-0.9869,-1.0086,-1.0195,-1.027,-1.0426,-1.0534,-1.0609,-1.0683,-1.0677,-1.0609,-1.0609,-1.0609,-1.0609,-1.0609,-1.0656,-1.0717,-1.0717,-1.0717,-1.0717,-1.0717,-1.0717,-1.0717,-1.0717,-1.0717,-1.0717,-1.0717,-1.0717,-1.0717,-1.0717,-1.0717,-1.0683,-1.0527,-1.0555,-1.0568,-1.0419,-1.0439,-1.0514,-1.0582,-1.048,-0.9838,-0.8087,-0.6992,-0.5571,-0.2993,-0.1869,-0.0979,-0.0132,0.0,0.0,0.0,0.0,0.0,0.0,0.0,0.0,0.0,0.0,0.0,0.0,0.0,0.0,0.0,0.0,0.0,0.0,0.0,0.0,0.0,0.0,0.0,0.0,0.0,0.0,0.0,0.0,0.0,0.0,0.0,0.0,0.0,0.0,0.0,0.0,0.0,0.0,0.0,-1.0179,-1.1495,-1.3048,-1.4361,-1.5902,-1.7443,-1.8765,-1.9243,-1.943,-1.943,-1.943,-1.943,-1.943,-1.9127,-1.846,-1.7149,-1.5311,-1.3646,-1.2277,-1.0657,-0.9822,-0.9822,-0.9822,-0.9822,-0.9822,-0.9909,-0.9923,-0.9863,-0.995,-1.0024,-1.0031,-1.0243,-1.0378,-1.0493,-1.0521,-1.0602,-1.0717,-1.0717,-1.0629,-1.0493,-1.0521,-1.0514,-1.0493,-1.0521,-1.0609,-1.0717,-1.0717,-1.0717,-1.0717,-1.069,-1.0697,-1.0717,-1.0717,-1.0717,-1.0717,-1.0717,-1.0717,-1.0717,-1.0717,-1.0717,-1.069,-1.0561,-1.0527,-1.0527,-1.0527,-1.0609,-1.069,-1.0717,-1.0622,-1.0123,-0.8719,-0.8129,-0.6781,-0.3613,-0.2875,-0.2047,-0.0265,0.0,0.0,0.0,0.0,0.0,0.0,0.0,0.0,0.0,0.0,0.0,0.0,0.0,0.0,0.0,0.0,0.0,0.0,0.0,0.0,0.0,0.0,0.0,0.0,0.0,0.0,0.0,0.0,0.0,0.0,0.0,0.0,0.0,0.0,0.0,0.0,0.0,0.0,0.0,-1.1856,-1.3168,-1.4361,-1.454,-1.5902,-1.7079,-1.7267,-1.8519,-1.943,-1.943,-1.943,-1.943,-1.943,-1.8169,-1.7267,-1.7032,-1.4232,-1.2457,-1.2217,-1.0657,-0.9822,-0.9822,-0.9822,-0.9822,-0.9822,-0.9909,-0.9977,-0.9957,-1.0175,-1.0249,-1.0249,-1.0399,-1.0473,-1.05,-1.0629,-1.0704,-1.0717,-1.0717,-1.0563,-1.0435,-1.057,-1.0543,-1.0435,-1.0636,-1.0704,-1.0717,-1.0717,-1.0717,-1.0697,-1.0568,-1.0609,-1.0717,-1.0717,-1.0717,-1.0717,-1.0717,-1.0717,-1.0717,-1.0717,-1.0717,-1.0717,-1.0697,-1.069,-1.069,-1.069,-1.0602,-1.0561,-1.069,-1.0704,-1.0584,-1.0254,-0.899,-0.729,-0.5112,-0.3578,-0.2085,-0.0273,0.0,0.0,0.0,0.0,0.0,0.0,0.0,0.0,0.0,0.0,0.0,0.0,0.0,0.0,0.0,0.0,0.0,0.0,0.0,0.0,0.0,0.0,0.0,0.0,0.0,0.0,0.0,0.0,0.0,0.0,0.0,0.0,0.0,0.0,0.0,0.0,0.0,0.0,0.0,-1.0786,-1.1371,-1.2217,-1.3108,-1.3825,-1.4945,-1.6727,-1.7618,-1.8402,-1.9301,-1.943,-1.943,-1.943,-1.7981,-1.6256,-1.447,-1.3048,-1.1796,-1.0899,-1.0179,-0.9822,-0.9822,-0.9822,-0.9822,-0.9822,-1.0053,-1.0181,-1.0181,-1.0324,-1.0399,-1.0399,-1.0548,-1.0622,-1.0622,-1.069,-1.0717,-1.0717,-1.0717,-1.0629,-1.0429,-1.0568,-1.0548,-1.05,-1.0568,-1.0643,-1.0717,-1.0717,-1.0663,-1.0595,-1.0616,-1.0609,-1.0609,-1.0697,-1.0717,-1.0717,-1.0717,-1.0717,-1.0717,-1.0717,-1.0717,-1.0717,-1.0717,-1.0717,-1.0717,-1.0717,-1.067,-1.0636,-1.0704,-1.0717,-1.0697,-1.0629,-1.0003,-0.8889,-0.7035,-0.5338,-0.3573,-0.178,-0.0618,0.0,0.0,0.0,0.0,0.0,0.0,0.0,0.0,0.0,0.0,0.0,0.0,0.0,0.0,0.0,0.0,0.0,0.0,0.0,0.0,0.0,0.0,0.0,0.0,0.0,0.0,0.0,0.0,0.0,0.0,0.0,0.0,0.0,0.0,0.0,0.0,0.0,0.0]}]]